[[{"header":{"parameterUnit":"m.s-1","parameterCategory":1,"la1":31.0,"la2":29.5877,"lo1":-88.7671,"lo2":-86.6584,"dx":0.0162,"dy":0.0185,"nx":115,"ny":88,"refTime":"2023-02-05T06:00:00:Z","depth":0,"parameterNumber":2,"parameterNumberName":"U-component_of_WINDS"},"data":[0.0,0.0,0.0,0.0,0.0,0.0,0.0,0.0,0.0,0.0,0.0,0.0,0.0,0.0,0.0,0.0,0.0,0.0,0.0,0.0,0.0,0.0,0.0,0.0,0.0,0.0,0.0,0.0,0.0,0.0,0.0,0.0,0.0,0.0,0.0,0.0,0.0,0.0,0.0,0.0,0.0,0.0,0.0,0.0,0.0,0.0,0.0,0.0,0.0,0.0,0.0,0.0,0.0,0.0,0.0,0.0,0.0,0.0,0.0,0.0,0.0,0.0,0.0,0.0,0.0,0.0,0.0,0.0,0.0,0.0,0.0,0.0,0.0,0.0,0.0,0.0,0.0,0.0,0.0,0.0,0.0,0.0,0.0,0.0,0.0,0.0,0.0,0.0,0.0,0.0,0.0,0.0,0.0,0.0,0.0,0.0,0.0,0.0,0.0,0.0,0.0,0.0,0.0,0.0,0.0,0.0,0.0,0.0,0.0,0.0,0.0,0.0,0.0,0.0,0.0,0.0,0.0,0.0,0.0,0.0,0.0,0.0,0.0,0.0,0.0,0.0,0.0,0.0,0.0,0.0,0.0,0.0,0.0,0.0,0.0,0.0,0.0,0.0,0.0,0.0,0.0,0.0,0.0,0.0,0.0,0.0,0.0,0.0,0.0,0.0,0.0,0.0,0.0,0.0,0.0,0.0,0.0,0.0,0.0,0.0,0.0,0.0,0.0,0.0,0.0,0.0,0.0,0.0,0.0,0.0,0.0,0.0,0.0,0.0,0.0,0.0,0.0,0.0,0.0,0.0,0.0,0.0,0.0,0.0,0.0,0.0,0.0,0.0,0.0,0.0,0.0,0.0,0.0,0.0,0.0,0.0,0.0,0.0,0.0,0.0,0.0,0.0,0.0,0.0,0.0,0.0,0.0,0.0,0.0,0.0,0.0,0.0,0.0,0.0,0.0,0.0,0.0,0.0,0.0,0.0,0.0,0.0,0.0,0.0,0.0,0.0,0.0,0.0,0.0,0.0,0.0,0.0,0.0,0.0,0.0,0.0,0.0,0.0,0.0,0.0,0.0,0.0,0.0,0.0,0.0,0.0,0.0,0.0,0.0,0.0,0.0,0.0,0.0,0.0,0.0,0.0,0.0,0.0,0.0,0.0,0.0,0.0,0.0,0.0,0.0,0.0,0.0,0.0,0.0,0.0,0.0,0.0,0.0,0.0,0.0,0.0,0.0,0.0,0.0,0.0,0.0,0.0,0.0,0.0,0.0,0.0,0.0,0.0,0.0,0.0,0.0,0.0,0.0,0.0,0.0,0.0,0.0,0.0,0.0,0.0,0.0,0.0,0.0,0.0,0.0,0.0,0.0,0.0,0.0,0.0,0.0,0.0,0.0,0.0,0.0,0.0,0.0,0.0,0.0,0.0,0.0,0.0,0.0,0.0,0.0,0.0,0.0,0.0,0.0,0.0,0.0,0.0,0.0,0.0,0.0,0.0,0.0,0.0,0.0,0.0,0.0,0.0,0.0,0.0,0.0,0.0,0.0,0.0,0.0,0.0,0.0,0.0,0.0,0.0,0.0,0.0,0.0,0.0,0.0,0.0,0.0,0.0,0.0,0.0,0.0,0.0,0.0,0.0,0.0,0.0,0.0,0.0,0.0,0.0,0.0,0.0,0.0,0.0,0.0,0.0,0.0,0.0,0.0,0.0,0.0,0.0,0.0,0.0,0.0,0.0,0.0,0.0,0.0,0.0,0.0,0.0,0.0,0.0,0.0,0.0,0.0,0.0,0.0,0.0,0.0,0.0,0.0,0.0,0.0,0.0,0.0,0.0,0.0,0.0,0.0,0.0,0.0,0.0,0.0,0.0,0.0,0.0,0.0,0.0,0.0,0.0,0.0,0.0,0.0,0.0,0.0,0.0,0.0,0.0,0.0,0.0,0.0,0.0,0.0,0.0,0.0,0.0,0.0,0.0,0.0,0.0,0.0,0.0,0.0,0.0,0.0,0.0,0.0,0.0,0.0,0.0,0.0,0.0,0.0,0.0,0.0,0.0,0.0,0.0,0.0,0.0,0.0,0.0,0.0,0.0,0.0,0.0,0.0,0.0,0.0,0.0,0.0,0.0,0.0,0.0,0.0,0.0,0.0,0.0,0.0,0.0,0.0,0.0,0.0,0.0,0.0,0.0,0.0,0.0,0.0,0.0,0.0,0.0,0.0,0.0,0.0,0.0,0.0,0.0,0.0,0.0,0.0,0.0,0.0,0.0,0.0,0.0,0.0,0.0,0.0,0.0,0.0,0.0,0.0,0.0,0.0,0.0,0.0,0.0,0.0,0.0,0.0,0.0,0.0,0.0,0.0,0.0,0.0,0.0,0.0,0.0,0.0,0.0,0.0,0.0,0.0,0.0,0.0,0.0,0.0,0.0,0.0,0.0,0.0,0.0,0.0,0.0,0.0,0.0,0.0,0.0,0.0,0.0,0.0,0.0,0.0,0.0,0.0,0.0,0.0,0.0,0.0,0.0,0.0,0.0,0.0,0.0,0.0,0.0,0.0,0.0,0.0,0.0,0.0,0.0,0.0,0.0,0.0,0.0,0.0,0.0,0.0,0.0,0.0,0.0,0.0,0.0,0.0,0.0,0.0,0.0,0.0,0.0,0.0,0.0,0.0,0.0,0.0,0.0,0.0,0.0,0.0,0.0,0.0,0.0,0.0,0.0,0.0,0.0,0.0,0.0,0.0,0.0,0.0,0.0,0.0,0.0,0.0,0.0,0.0,0.0,0.0,0.0,0.0,0.0,0.0,0.0,0.0,0.0,0.0,0.0,0.0,0.0,0.0,0.0,0.0,0.0,0.0,0.0,0.0,0.0,0.0,0.0,0.0,0.0,0.0,0.0,0.0,0.0,0.0,0.0,0.0,0.0,0.0,0.0,0.0,0.0,0.0,0.0,0.0,0.0,0.0,0.0,0.0,0.0,0.0,0.0,0.0,0.0,0.0,0.0,0.0,0.0,0.0,0.0,0.0,0.0,0.0,0.0,0.0,0.0,0.0,0.0,0.0,0.0,0.0,0.0,0.0,0.0,0.0,0.0,0.0,0.0,0.0,0.0,0.0,0.0,0.0,0.0,0.0,0.0,0.0,0.0,0.0,0.0,0.0,0.0,0.0,0.0,0.0,0.0,0.0,0.0,0.0,0.0,0.0,0.0,0.0,0.0,0.0,0.0,0.0,0.0,0.0,0.0,0.0,0.0,0.0,0.0,0.0,0.0,0.0,0.0,0.0,0.0,0.0,0.0,0.0,0.0,0.0,0.0,0.0,0.0,0.0,0.0,0.0,0.0,0.0,0.0,0.0,0.0,0.0,0.0,0.0,0.0,0.0,0.0,0.0,0.0,0.0,0.0,0.0,0.0,0.0,0.0,0.0,0.0,0.0,0.0,0.0,0.0,0.0,0.0,0.0,0.0,0.0,0.0,0.0,0.0,0.0,0.0,0.0,0.0,0.0,0.0,0.0,0.0,0.0,0.0,0.0,0.0,0.0,0.0,0.0,0.0,0.0,0.0,0.0,0.0,0.0,0.0,0.0,0.0,0.0,0.0,0.0,0.0,0.0,0.0,0.0,0.0,0.0,0.0,0.0,0.0,0.0,0.0,0.0,0.0,0.0,0.0,0.0,0.0,0.0,0.0,0.0,0.0,0.0,0.0,0.0,0.0,0.0,0.0,0.0,0.0,0.0,0.0,0.0,0.0,0.0,0.0,0.0,0.0,0.0,0.0,0.0,0.0,0.0,0.0,0.0,0.0,0.0,0.0,0.0,0.0,0.0,0.0,0.0,0.0,0.0,0.0,0.0,0.0,0.0,0.0,0.0,0.0,0.0,0.0,0.0,0.0,0.0,0.0,0.0,0.0,0.0,0.0,0.0,0.0,0.0,0.0,0.0,0.0,0.0,0.0,0.0,0.0,0.0,0.0,0.0,0.0,0.0,0.0,0.0,0.0,0.0,0.0,0.0,0.0,0.0,0.0,0.0,0.0,0.0,0.0,0.0,0.0,0.0,0.0,0.0,0.0,0.0,0.0,0.0,0.0,0.0,0.0,0.0,0.0,0.0,0.0,0.0,0.0,0.0,0.0,0.0,0.0,0.0,0.0,0.0,0.0,0.0,0.0,0.0,0.0,0.0,0.0,0.0,0.0,0.0,0.0,0.0,0.0,0.0,0.0,0.0,0.0,0.0,0.0,0.0,0.0,0.0,0.0,0.0,0.0,0.0,0.0,0.0,0.0,0.0,0.0,1.5744,0.0,0.0,0.0,0.0,0.0,0.0,0.0,0.0,0.0,0.0,0.0,0.0,0.0,0.0,0.0,0.0,0.0,0.0,0.0,0.0,0.0,0.0,0.0,0.0,0.0,0.0,0.0,0.0,0.0,0.0,0.0,0.0,0.0,0.0,0.0,0.0,0.0,0.0,0.0,0.0,0.0,0.0,0.0,0.0,0.0,0.0,0.0,0.0,0.0,0.0,0.0,0.0,0.0,0.0,0.0,0.0,0.0,0.0,0.0,0.0,0.0,0.0,0.0,0.0,0.0,0.0,0.0,0.0,0.0,0.0,0.0,0.0,0.0,0.0,0.0,0.0,0.0,0.0,0.0,0.0,0.0,0.0,0.0,0.0,0.0,0.0,0.0,0.0,0.0,0.0,0.0,0.0,0.0,0.0,0.0,0.0,0.0,0.0,0.0,0.0,0.0,0.0,0.0,0.0,0.0,0.0,0.0,0.0,0.0,0.0,1.5073,1.6288,1.5549,1.5584,1.6483,0.0,0.0,0.0,0.0,0.0,0.0,0.0,0.0,0.0,0.0,0.0,0.0,0.0,0.0,0.0,0.0,0.0,0.0,0.0,0.0,0.0,0.0,0.0,0.0,0.0,0.0,0.0,0.0,0.0,0.0,0.0,0.0,0.0,0.0,0.0,0.0,0.0,0.0,0.0,0.0,0.0,0.0,0.0,0.0,0.0,0.0,0.0,0.0,0.0,0.0,0.0,0.0,0.0,0.0,0.0,0.0,0.0,0.0,0.0,0.0,0.0,0.0,0.0,0.0,0.0,0.0,0.0,0.0,0.0,0.0,0.0,0.0,0.0,0.0,0.0,0.0,0.0,0.0,0.0,0.0,0.0,0.0,0.0,0.0,0.0,0.0,0.0,0.0,0.0,0.0,0.0,0.0,0.0,0.0,0.0,0.0,0.0,0.0,0.0,0.0,0.0,0.0,0.0,0.0,0.0,0.0,0.0,0.0,0.0,0.0,0.0,0.0,1.6078,1.6431,1.7642,0.0,0.0,0.0,0.0,0.0,0.0,0.0,0.0,0.0,0.0,0.0,0.0,0.0,0.0,0.0,0.0,0.0,0.0,0.0,0.0,0.0,0.0,0.0,0.0,0.0,0.0,0.0,0.0,0.0,0.0,0.0,0.0,0.0,0.0,0.0,0.0,0.0,0.0,0.0,0.0,0.0,0.0,0.0,0.0,0.0,0.0,0.0,0.0,0.0,0.0,0.0,0.0,0.0,0.0,0.0,0.0,0.0,0.0,0.0,0.0,0.0,0.0,0.0,0.0,0.0,0.0,0.0,0.0,0.0,0.0,0.0,0.0,0.0,0.0,0.0,0.0,0.0,0.0,0.0,0.0,0.0,0.0,0.0,0.0,0.0,0.0,0.0,0.0,0.0,0.0,0.0,0.0,0.0,0.0,0.0,0.0,0.0,0.0,0.0,0.0,0.0,0.0,0.0,0.0,0.0,0.0,0.0,0.0,0.0,0.0,1.817,1.8941,1.9565,0.0,2.0063,0.0,0.0,0.0,0.0,0.0,0.0,0.0,0.0,0.0,0.0,0.0,0.0,0.0,0.0,0.0,0.0,0.0,0.0,0.0,0.0,0.0,0.0,0.0,0.0,0.0,0.0,0.0,0.0,0.0,0.0,0.0,0.0,0.0,0.0,0.0,0.0,0.0,0.0,0.0,0.0,0.0,0.0,0.0,0.0,0.0,0.0,0.0,0.0,0.0,0.0,0.0,0.0,0.0,0.0,0.0,0.0,0.0,0.0,0.0,0.0,0.0,0.0,0.0,0.0,0.0,0.0,0.0,0.0,0.0,0.0,0.0,0.0,0.0,0.0,0.0,0.0,0.0,0.0,0.0,0.0,0.0,0.0,0.0,0.0,0.0,0.0,0.0,0.0,0.0,0.0,0.0,0.0,0.0,0.0,0.0,0.0,0.0,0.0,0.0,0.0,0.0,0.0,0.0,0.0,0.0,0.0,0.0,0.0,0.0,0.0,1.85,1.9286,2.0079,2.0246,0.0,0.0,0.0,0.0,0.0,0.0,0.0,0.0,0.0,0.0,0.0,0.0,0.0,0.0,0.0,0.0,0.0,0.0,0.0,0.0,0.0,0.0,0.0,0.0,0.0,0.0,0.0,0.0,0.0,0.0,0.0,0.0,0.0,0.0,0.0,0.0,0.0,0.0,0.0,0.0,0.0,0.0,0.0,0.0,0.0,0.0,0.0,0.0,0.0,0.0,0.0,0.0,0.0,0.0,0.0,0.0,0.0,0.0,0.0,0.0,0.0,0.0,0.0,0.0,0.0,0.0,0.0,0.0,0.0,0.0,0.0,0.0,0.0,0.0,0.0,0.0,0.0,0.0,0.0,0.0,0.0,0.0,0.0,0.0,0.0,0.0,0.0,0.0,0.0,0.0,0.0,0.0,0.0,0.0,0.0,0.0,0.0,0.0,0.0,0.0,0.0,0.0,0.0,0.0,0.0,0.0,0.0,0.0,0.0,0.0,1.8595,1.9161,1.9932,2.0115,2.0005,1.9638,0.0,0.0,0.0,0.0,0.0,0.0,0.0,0.0,0.0,0.0,0.0,0.0,0.0,0.0,0.0,0.0,0.0,0.0,0.0,0.0,0.0,0.0,0.0,0.0,0.0,0.0,0.0,0.0,0.0,0.0,0.0,0.0,0.0,0.0,0.0,0.0,0.0,0.0,0.0,0.0,0.0,0.0,0.0,0.0,0.0,0.0,0.0,0.0,0.0,0.0,0.0,0.0,0.0,0.0,0.0,0.0,0.0,0.0,0.0,0.0,0.0,0.0,0.0,0.0,0.0,0.0,0.0,0.0,0.0,0.0,0.0,0.0,0.0,0.0,0.0,0.0,0.0,0.0,0.0,0.0,0.0,0.0,0.0,0.0,0.0,0.0,0.0,0.0,0.0,0.0,0.0,0.0,0.0,0.0,0.0,0.0,0.0,0.0,0.0,0.0,0.0,0.0,0.0,0.0,0.0,0.0,0.0,0.0,2.1363,2.0776,2.0813,2.1601,2.0168,1.9711,0.0,0.0,0.0,0.0,0.0,0.0,0.0,0.0,0.0,0.0,0.0,0.0,0.0,0.0,0.0,0.0,0.0,0.0,0.0,0.0,0.0,0.0,0.0,0.0,0.0,0.0,0.0,0.0,0.0,0.0,0.0,0.0,0.0,0.0,0.0,0.0,0.0,0.0,0.0,0.0,0.0,0.0,0.0,0.0,0.0,0.0,0.0,0.0,0.0,0.0,0.0,0.0,0.0,0.0,0.0,0.0,0.0,0.0,0.0,0.0,0.0,0.0,0.0,0.0,0.0,0.0,0.0,0.0,0.0,0.0,0.0,0.0,0.0,0.0,0.0,0.0,0.0,0.0,0.0,0.0,0.0,0.0,0.0,0.0,0.0,0.0,0.0,0.0,0.0,0.0,0.0,0.0,0.0,0.0,0.0,0.0,0.0,0.0,0.0,0.0,0.0,0.0,0.0,0.0,0.0,0.0,0.0,0.0,0.0,2.0168,2.0372,2.0906,2.1748,2.0666,2.016,0.0,0.0,0.0,0.0,0.0,0.0,0.0,0.0,0.0,0.0,0.0,0.0,0.0,0.0,0.0,0.0,0.0,0.0,0.0,0.0,0.0,0.0,0.0,0.0,0.0,0.0,0.0,0.0,0.0,0.0,0.0,0.0,0.0,0.0,0.0,0.0,0.0,0.0,0.0,0.0,0.0,0.0,0.0,0.0,0.0,0.0,0.0,0.0,0.0,0.0,0.0,0.0,0.0,0.0,0.0,0.0,0.0,0.0,0.0,0.0,0.0,0.0,0.0,0.0,0.0,0.0,0.0,0.0,0.0,0.0,0.0,0.0,0.0,0.0,0.0,0.0,0.0,0.0,0.0,0.0,0.0,0.0,0.0,0.0,0.0,0.0,0.0,0.0,0.0,0.0,0.0,0.0,0.0,0.0,0.0,0.0,0.0,0.0,0.0,0.0,0.0,0.0,0.0,0.0,0.0,0.0,0.0,0.0,0.0,1.9711,0.0,2.162,2.1363,2.107,2.0566,0.0,0.0,0.0,0.0,0.0,0.0,0.0,0.0,0.0,0.0,0.0,0.0,0.0,0.0,0.0,0.0,0.0,0.0,0.0,0.0,0.0,0.0,0.0,0.0,0.0,0.0,0.0,0.0,0.0,0.0,0.0,0.0,0.0,0.0,0.0,0.0,0.0,0.0,0.0,0.0,0.0,0.0,0.0,0.0,0.0,0.0,0.0,0.0,0.0,0.0,0.0,0.0,0.0,0.0,0.0,0.0,0.0,0.0,0.0,0.0,0.0,0.0,0.0,0.0,0.0,0.0,0.0,0.0,0.0,0.0,0.0,0.0,0.0,0.0,0.0,0.0,0.0,0.0,0.0,0.0,0.0,0.0,0.0,0.0,0.0,0.0,0.0,0.0,0.0,0.0,0.0,0.0,0.0,0.0,0.0,0.0,0.0,0.0,0.0,0.0,0.0,0.0,0.0,0.0,0.0,0.0,0.0,0.0,1.9764,2.0539,2.2795,2.2868,2.0686,2.1327,2.0894,0.0,0.0,0.0,0.0,0.0,0.0,0.0,0.0,0.0,0.0,0.0,0.0,0.0,0.0,0.0,0.0,0.0,0.0,0.0,0.0,0.0,0.0,0.0,0.0,0.0,0.0,0.0,0.0,0.0,0.0,0.0,0.0,0.0,0.0,0.0,0.0,0.0,0.0,0.0,0.0,0.0,0.0,0.0,0.0,0.0,0.0,0.0,0.0,0.0,0.0,0.0,0.0,0.0,0.0,0.0,0.0,0.0,0.0,0.0,0.0,0.0,0.0,0.0,0.0,0.0,0.0,0.0,0.0,0.0,0.0,0.0,0.0,0.0,0.0,0.0,0.0,0.0,0.0,0.0,0.0,0.0,0.0,0.0,0.0,0.0,0.0,0.0,0.0,0.0,0.0,0.0,0.0,0.0,0.0,0.0,0.0,0.0,0.0,0.0,0.0,0.0,0.0,0.0,0.0,0.0,0.0,0.0,0.0,0.0,2.1417,2.1584,2.2354,2.3712,2.14,2.0679,0.0,0.0,0.0,0.0,0.0,0.0,0.0,0.0,0.0,0.0,0.0,0.0,0.0,0.0,0.0,0.0,0.0,0.0,0.0,0.0,0.0,0.0,0.0,0.0,0.0,0.0,0.0,0.0,0.0,0.0,0.0,0.0,0.0,0.0,0.0,0.0,0.0,0.0,0.0,0.0,0.0,0.0,0.0,0.0,0.0,0.0,0.0,0.0,0.0,0.0,0.0,0.0,0.0,0.0,0.0,0.0,0.0,0.0,0.0,0.0,0.0,0.0,0.0,0.0,0.0,0.0,0.0,0.0,0.0,0.0,0.0,0.0,0.0,0.0,0.0,0.0,0.0,0.0,0.0,0.0,0.0,0.0,0.0,0.0,0.0,0.0,0.0,0.0,0.0,0.0,0.0,0.0,0.0,0.0,0.0,0.0,0.0,0.0,0.0,0.0,0.0,0.0,0.0,0.0,0.0,0.0,0.0,0.0,0.0,2.2771,2.2169,2.2428,2.3529,2.1694,2.1116,2.2046,0.0,0.0,0.0,0.0,0.0,0.0,0.0,0.0,0.0,0.0,0.0,0.0,0.0,0.0,0.0,0.0,0.0,0.0,0.0,0.0,0.0,0.0,0.0,0.0,0.0,0.0,0.0,0.0,0.0,0.0,0.0,0.0,0.0,0.0,0.0,0.0,0.0,0.0,0.0,0.0,0.0,0.0,0.0,0.0,0.0,0.0,0.0,0.0,0.0,0.0,0.0,0.0,0.0,0.0,0.0,0.0,0.0,0.0,0.0,0.0,0.0,0.0,0.0,0.0,0.0,0.0,0.0,0.0,0.0,0.0,0.0,0.0,0.0,0.0,0.0,0.0,0.0,0.0,0.0,0.0,0.0,0.0,0.0,0.0,0.0,0.0,0.0,0.0,0.0,0.0,0.0,0.0,0.0,0.0,0.0,0.0,0.0,0.0,0.0,0.0,0.0,0.0,0.0,0.0,0.0,0.0,0.0,0.0,2.4479,2.4413,2.3345,2.1126,2.23,2.2209,0.0,0.0,0.0,0.0,0.0,0.0,0.0,0.0,0.0,0.0,0.0,0.0,0.0,0.0,0.0,0.0,0.0,0.0,0.0,0.0,0.0,0.0,0.0,0.0,0.0,0.0,0.0,0.0,0.0,0.0,0.0,0.0,0.0,0.0,0.0,0.0,0.0,0.0,0.0,0.0,0.0,0.0,0.0,0.0,0.0,0.0,0.0,0.0,0.0,0.0,0.0,0.0,0.0,0.0,0.0,0.0,0.0,0.0,0.0,0.0,0.0,0.0,0.0,0.0,0.0,0.0,0.0,0.0,0.0,0.0,0.0,0.0,0.0,0.0,0.0,0.0,0.0,0.0,0.0,0.0,0.0,0.0,0.0,0.0,0.0,0.0,0.0,0.0,0.0,0.0,0.0,0.0,0.0,0.0,0.0,0.0,0.0,0.0,0.0,0.0,0.0,0.0,0.0,0.0,0.0,0.0,0.0,0.0,0.0,2.556,2.641,2.6539,2.5878,2.4006,2.3213,0.0,0.0,0.0,0.0,0.0,0.0,0.0,0.0,0.0,0.0,0.0,0.0,0.0,0.0,0.0,0.0,0.0,0.0,0.0,0.0,0.0,0.0,0.0,0.0,0.0,0.0,0.0,0.0,0.0,0.0,0.0,0.0,0.0,0.0,0.0,0.0,0.0,0.0,0.0,0.0,0.0,0.0,0.0,0.0,0.0,0.0,0.0,0.0,0.0,0.0,0.0,0.0,0.0,0.0,0.0,0.0,0.0,0.0,0.0,0.0,0.0,0.0,0.0,0.0,0.0,0.0,0.0,0.0,0.0,0.0,0.0,0.0,0.0,0.0,0.0,0.0,0.0,0.0,0.0,0.0,0.0,0.0,0.0,0.0,0.0,0.0,0.0,0.0,0.0,0.0,0.0,0.0,0.0,0.0,0.0,0.0,0.0,0.0,0.0,0.0,0.0,0.0,0.0,0.0,0.0,0.0,0.0,0.0,2.6517,2.6802,2.8107,2.8815,2.8815,2.6686,2.4965,0.0,0.0,0.0,0.0,0.0,0.0,0.0,0.0,0.0,0.0,0.0,0.0,0.0,0.0,0.0,0.0,0.0,0.0,0.0,0.0,0.0,0.0,0.0,0.0,0.0,0.0,0.0,0.0,0.0,0.0,0.0,0.0,0.0,0.0,0.0,0.0,0.0,0.0,0.0,0.0,0.0,0.0,0.0,0.0,0.0,0.0,0.0,0.0,0.0,0.0,0.0,0.0,0.0,0.0,0.0,0.0,0.0,0.0,0.0,0.0,0.0,0.0,0.0,0.0,0.0,0.0,0.0,0.0,0.0,0.0,0.0,0.0,0.0,0.0,0.0,0.0,0.0,0.0,0.0,0.0,0.0,0.0,0.0,0.0,0.0,0.0,0.0,0.0,0.0,0.0,0.0,0.0,0.0,0.0,0.0,0.0,0.0,0.0,0.0,0.0,0.0,0.0,0.0,0.0,0.0,0.0,0.0,0.0,2.7306,2.8137,2.9642,3.0393,3.0173,2.9365,2.6958,0.0,0.0,0.0,0.0,0.0,0.0,0.0,0.0,0.0,0.0,0.0,0.0,0.0,0.0,0.0,0.0,0.0,0.0,0.0,0.0,0.0,0.0,0.0,0.0,0.0,0.0,0.0,0.0,0.0,0.0,0.0,0.0,0.0,0.0,0.0,0.0,0.0,0.0,0.0,0.0,0.0,0.0,0.0,0.0,0.0,0.0,0.0,0.0,0.0,0.0,0.0,0.0,0.0,0.0,0.0,0.0,0.0,0.0,0.0,0.0,0.0,0.0,0.0,0.0,0.0,0.0,0.0,0.0,0.0,0.0,0.0,0.0,0.0,0.0,0.0,0.0,0.0,0.0,0.0,0.0,0.0,0.0,0.0,0.0,0.0,0.0,0.0,0.0,0.0,0.0,0.0,0.0,0.0,0.0,0.0,0.0,0.0,0.0,0.0,0.0,0.0,0.0,0.0,0.0,0.0,0.0,0.0,0.0,2.7566,2.8952,3.1004,3.1494,3.021,2.8815,2.6922,0.0,0.0,0.0,0.0,0.0,0.0,0.0,0.0,0.0,0.0,0.0,0.0,0.0,0.0,0.0,0.0,0.0,0.0,0.0,0.0,0.0,0.0,0.0,0.0,0.0,0.0,0.0,0.0,0.0,0.0,0.0,0.0,0.0,0.0,0.0,0.0,0.0,0.0,0.0,0.0,0.0,0.0,0.0,0.0,0.0,0.0,0.0,0.0,1.6479,0.0,0.0,0.0,0.0,0.0,0.0,0.0,0.0,0.0,0.0,0.0,0.0,0.0,0.0,0.0,0.0,0.0,0.0,0.0,0.0,0.0,0.0,0.0,0.0,0.0,0.0,0.0,0.0,0.0,0.0,0.0,0.0,0.0,0.0,0.0,0.0,0.0,0.0,0.0,0.0,0.0,0.0,0.0,0.0,0.0,0.0,0.0,0.0,0.0,0.0,0.0,0.0,0.0,0.0,0.0,0.0,0.0,0.0,0.0,2.807,2.9673,3.169,3.2305,3.1311,2.9525,2.739,0.0,0.0,0.0,0.0,0.0,0.0,0.0,0.0,0.0,0.0,0.0,0.0,0.0,0.0,0.0,0.0,0.0,0.0,0.0,0.0,0.0,0.0,0.0,0.0,0.0,0.0,0.0,0.0,0.0,0.0,0.0,0.0,0.0,0.0,0.0,0.0,0.0,0.0,0.0,0.0,0.0,0.0,0.0,0.0,0.0,0.0,0.0,0.0,0.0,0.0,0.0,0.0,0.0,0.0,0.0,0.0,0.0,0.0,0.0,0.0,0.0,0.0,0.0,0.0,0.0,0.0,0.0,0.0,0.0,0.0,0.0,0.0,0.0,0.0,0.0,0.0,0.0,0.0,0.0,0.0,0.0,0.0,0.0,0.0,0.0,0.0,0.0,0.0,0.0,0.0,0.0,0.0,0.0,0.0,0.0,0.0,0.0,0.0,0.0,0.0,0.0,0.0,0.0,0.0,0.0,0.0,0.0,2.7327,2.8838,3.0599,3.2265,3.2969,3.2636,3.062,2.8223,2.5484,0.0,0.0,0.0,0.0,0.0,0.0,0.0,0.0,0.0,0.0,0.0,0.0,0.0,0.0,0.0,0.0,0.0,0.0,0.0,0.0,0.0,0.0,0.0,0.0,0.0,0.0,0.0,0.0,0.0,0.0,0.0,0.0,0.0,0.0,0.0,0.0,0.0,0.0,1.4582,1.4227,0.0,0.0,0.0,0.0,0.0,0.0,0.0,0.0,1.5661,0.0,0.0,0.0,0.0,0.0,0.0,0.0,0.0,0.0,0.0,0.0,0.0,0.0,0.0,0.0,0.0,0.0,0.0,0.0,0.0,0.0,0.0,0.0,0.0,0.0,0.0,0.0,0.0,0.0,0.0,0.0,0.0,0.0,0.0,0.0,0.0,0.0,0.0,0.0,0.0,0.0,0.0,0.0,0.0,0.0,0.0,0.0,0.0,0.0,0.0,0.0,0.0,0.0,0.0,0.0,0.0,2.7679,2.8433,3.0019,3.2493,3.3278,3.3437,3.2915,3.1085,2.9228,2.7354,0.0,0.0,0.0,0.0,0.0,0.0,0.0,0.0,0.0,0.0,0.0,0.0,0.0,0.0,0.0,0.0,0.0,0.0,0.0,0.0,0.0,0.0,0.0,0.0,0.0,0.0,0.0,0.0,0.0,0.0,0.0,0.0,0.0,0.0,0.0,0.0,0.0,0.0,0.0,1.4488,1.4419,0.0,0.0,0.0,0.0,0.0,0.0,0.0,0.0,1.4033,0.0,0.0,0.0,0.0,0.0,0.0,0.0,0.0,0.0,0.0,0.0,0.0,0.0,0.0,0.0,0.0,0.0,0.0,0.0,0.0,0.0,0.0,0.0,0.0,0.0,0.0,0.0,0.0,0.0,0.0,0.0,0.0,0.0,0.0,0.0,0.0,0.0,0.0,0.0,0.0,0.0,0.0,0.0,0.0,0.0,0.0,0.0,0.0,0.0,0.0,0.0,0.0,0.0,0.0,0.0,2.8014,2.9075,3.0833,3.3364,3.4389,3.4612,3.3993,3.099,2.9072,0.0,0.0,0.0,0.0,0.0,0.0,0.0,0.0,0.0,0.0,0.0,0.0,0.0,0.0,0.0,0.0,0.0,0.0,0.0,0.0,0.0,0.0,0.0,0.0,0.0,0.0,0.0,0.0,0.0,0.0,0.0,0.0,0.0,0.0,0.0,0.0,0.0,0.0,0.0,0.0,1.4293,1.4192,1.3037,0.0,0.0,0.0,0.0,0.0,0.0,1.4419,1.4013,0.0,0.0,0.0,0.0,0.0,0.0,0.0,0.0,0.0,0.0,0.0,0.0,0.0,0.0,0.0,0.0,0.0,0.0,0.0,0.0,0.0,0.0,0.0,0.0,0.0,0.0,0.0,0.0,0.0,0.0,0.0,0.0,0.0,0.0,0.0,0.0,0.0,0.0,0.0,0.0,0.0,0.0,0.0,0.0,0.0,0.0,0.0,0.0,0.0,0.0,0.0,0.0,0.0,0.0,0.0,2.837,2.9931,3.1703,3.3828,3.5104,3.544,3.4797,3.1005,2.8952,0.0,0.0,0.0,0.0,0.0,0.0,0.0,0.0,0.0,0.0,0.0,0.0,0.0,0.0,0.0,0.0,0.0,0.0,0.0,0.0,0.0,0.0,0.0,0.0,0.0,0.0,0.0,0.0,0.0,0.0,0.0,0.0,0.0,0.0,0.0,0.0,0.0,0.0,0.0,0.0,0.0,1.4222,1.3323,1.4611,0.0,0.0,0.0,0.0,1.4566,1.4278,0.0,0.0,0.0,0.0,0.0,0.0,0.0,0.0,0.0,0.0,0.0,0.0,0.0,0.0,0.0,0.0,0.0,0.0,0.0,0.0,0.0,0.0,0.0,0.0,0.0,0.0,0.0,0.0,0.0,0.0,0.0,0.0,0.0,0.0,0.0,0.0,0.0,0.0,0.0,0.0,0.0,0.0,0.0,0.0,0.0,0.0,0.0,0.0,0.0,0.0,0.0,0.0,0.0,0.0,0.0,0.0,2.9401,3.133,3.2932,3.4104,3.4792,3.4829,3.4277,3.1515,2.9655,0.0,0.0,0.0,0.0,0.0,0.0,0.0,0.0,0.0,0.0,0.0,0.0,0.0,0.0,0.0,0.0,0.0,0.0,0.0,0.0,0.0,0.0,0.0,0.0,0.0,0.0,0.0,0.0,0.0,0.0,0.0,0.0,0.0,0.0,0.0,0.0,0.0,0.0,0.0,0.0,0.0,1.5691,1.4416,1.4928,1.529,0.0,0.0,0.0,1.4195,1.3683,0.0,0.0,0.0,0.0,0.0,0.0,0.0,0.0,0.0,0.0,0.0,0.0,0.0,0.0,0.0,0.0,0.0,0.0,0.0,0.0,0.0,0.0,0.0,0.0,0.0,0.0,0.0,0.0,0.0,0.0,0.0,0.0,0.0,0.0,0.0,0.0,0.0,0.0,0.0,0.0,0.0,0.0,0.0,0.0,0.0,0.0,0.0,0.0,0.0,0.0,0.0,0.0,0.0,0.0,0.0,2.7941,3.0088,3.174,3.3235,3.4607,3.552,3.5325,3.4005,3.0798,2.9052,0.0,0.0,0.0,0.0,0.0,0.0,0.0,0.0,0.0,0.0,0.0,0.0,0.0,0.0,0.0,0.0,0.0,0.0,0.0,0.0,0.0,0.0,0.0,0.0,0.0,0.0,0.0,0.0,0.0,0.0,0.0,0.0,0.0,0.0,0.0,0.0,0.0,0.0,0.0,0.0,0.0,0.0,1.5124,1.5861,0.0,0.0,0.0,1.5434,1.5042,0.0,0.0,0.0,0.0,0.0,0.0,0.0,0.0,0.0,0.0,0.0,0.0,0.0,0.0,0.0,0.0,0.0,0.0,0.0,0.0,0.0,0.0,0.0,0.0,0.0,0.0,0.0,0.0,0.0,0.0,0.0,0.0,0.0,0.0,0.0,0.0,0.0,0.0,0.0,0.0,0.0,0.0,0.0,0.0,0.0,0.0,0.0,0.0,0.0,0.0,0.0,0.0,0.0,0.0,0.0,0.0,0.0,3.0463,3.2157,3.3718,3.5081,3.6318,3.6122,3.4223,3.062,0.0,0.0,0.0,0.0,0.0,0.0,0.0,0.0,0.0,0.0,0.0,0.0,0.0,0.0,0.0,0.0,0.0,0.0,0.0,0.0,0.0,0.0,0.0,0.0,0.0,0.0,0.0,1.969,0.0,0.0,0.0,0.0,0.0,0.0,0.0,0.0,0.0,0.0,0.0,0.0,0.0,0.0,1.6846,1.6039,1.6805,1.7192,0.0,0.0,1.633,1.6005,1.4307,1.312,0.0,0.0,0.0,0.0,0.0,0.0,0.0,0.0,0.0,0.0,0.0,0.0,0.0,0.0,0.0,0.0,0.0,0.0,0.0,0.0,0.0,0.0,0.0,0.0,0.0,0.0,0.0,0.0,0.0,0.0,0.0,0.0,0.0,0.0,0.0,0.0,0.0,0.0,0.0,0.0,0.0,0.0,0.0,0.0,0.0,0.0,0.0,0.0,0.0,0.0,0.0,0.0,0.0,0.0,0.0,3.0501,3.2933,3.4596,3.5491,3.7019,3.7056,3.5416,3.1935,3.005,0.0,0.0,0.0,0.0,0.0,0.0,0.0,0.0,0.0,0.0,0.0,0.0,0.0,0.0,0.0,0.0,0.0,0.0,0.0,0.0,0.0,0.0,0.0,0.0,0.0,0.0,0.0,0.0,0.0,0.0,0.0,0.0,0.0,0.0,0.0,0.0,0.0,0.0,0.0,0.0,0.0,1.8738,1.7636,1.7548,1.771,0.0,0.0,1.5899,1.6718,1.5689,1.4242,1.2692,0.0,0.0,0.0,0.0,0.0,0.0,0.0,0.0,0.0,0.0,0.0,0.0,0.0,0.0,0.0,0.0,0.0,0.0,0.0,0.0,0.0,0.0,0.0,0.0,0.0,0.0,0.0,0.0,0.0,0.0,0.0,0.0,0.0,0.0,0.0,0.0,0.0,0.0,0.0,0.0,0.0,0.0,0.0,0.0,0.0,0.0,0.0,0.0,0.0,0.0,0.0,0.0,0.0,2.9761,3.2255,3.3627,3.5034,3.6506,3.7418,3.6907,3.4806,3.2244,3.0467,0.0,0.0,0.0,0.0,0.0,0.0,0.0,0.0,0.0,0.0,0.0,0.0,0.0,0.0,0.0,0.0,0.0,0.0,0.0,0.0,0.0,0.0,0.0,0.0,0.0,0.0,0.0,0.0,1.8672,1.8018,1.8076,0.0,0.0,0.0,0.0,0.0,0.0,0.0,0.0,0.0,0.0,1.8541,1.8005,1.8172,0.0,0.0,1.6716,1.6339,1.6212,1.5251,1.4202,1.3507,1.3598,0.0,0.0,0.0,0.0,0.0,0.0,0.0,0.0,0.0,0.0,0.0,0.0,0.0,0.0,0.0,0.0,0.0,0.0,0.0,0.0,0.0,0.0,0.0,0.0,0.0,0.0,0.0,0.0,0.0,0.0,0.0,0.0,0.0,0.0,0.0,0.0,0.0,0.0,0.0,0.0,0.0,0.0,0.0,0.0,0.0,0.0,0.0,0.0,0.0,0.0,0.0,0.0,3.0745,3.3295,3.4384,3.5765,3.7511,3.8112,3.7343,3.5067,3.2908,3.1017,0.0,0.0,0.0,0.0,0.0,0.0,0.0,0.0,0.0,0.0,0.0,0.0,0.0,0.0,0.0,0.0,0.0,0.0,0.0,0.0,0.0,0.0,0.0,0.0,0.0,0.0,0.0,0.0,1.9397,1.8703,1.8488,0.0,0.0,0.0,0.0,0.0,0.0,0.0,0.0,0.0,0.0,1.8774,1.8257,1.8408,1.8113,1.6831,1.6485,1.6285,1.5873,1.5044,1.4295,1.3881,0.0,0.0,0.0,0.0,0.0,0.0,0.0,0.0,0.0,0.0,0.0,0.0,0.0,0.0,0.0,0.0,0.0,0.0,0.0,0.0,0.0,0.0,0.0,0.0,0.0,0.0,0.0,0.0,0.0,0.0,0.0,0.0,0.0,0.0,0.0,0.0,0.0,0.0,0.0,0.0,0.0,0.0,0.0,0.0,0.0,0.0,0.0,0.0,0.0,0.0,0.0,0.0,0.0,0.0,3.3119,3.523,3.6996,3.8342,3.9127,3.8587,3.6646,3.4016,3.1825,3.021,0.0,0.0,0.0,0.0,0.0,0.0,0.0,0.0,0.0,0.0,0.0,0.0,0.0,0.0,0.0,0.0,0.0,0.0,0.0,0.0,0.0,0.0,0.0,0.0,0.0,0.0,2.1505,2.1134,2.0395,0.0,0.0,0.0,0.0,0.0,0.0,0.0,0.0,0.0,0.0,1.9722,1.9845,1.8461,1.8374,1.8159,1.7266,1.6077,1.5364,1.5765,1.5471,1.4763,0.0,0.0,0.0,0.0,0.0,0.0,0.0,0.0,0.0,0.0,0.0,0.0,0.0,0.0,0.0,0.0,0.0,0.0,0.0,0.0,0.0,0.0,0.0,0.0,0.0,0.0,0.0,0.0,0.0,0.0,0.0,0.0,0.0,0.0,0.0,0.0,0.0,0.0,0.0,0.0,2.8998,2.8998,0.0,0.0,0.0,0.0,0.0,0.0,0.0,0.0,0.0,0.0,0.0,0.0,3.1861,3.4851,3.5512,3.6895,3.909,3.9276,3.8726,3.7504,3.5356,3.268,2.9512,0.0,0.0,0.0,0.0,0.0,0.0,0.0,0.0,0.0,0.0,0.0,0.0,0.0,0.0,0.0,0.0,0.0,0.0,0.0,0.0,0.0,0.0,0.0,0.0,0.0,2.1337,0.0,0.0,0.0,0.0,0.0,0.0,0.0,0.0,0.0,0.0,0.0,1.9454,1.9084,1.9614,1.9448,1.774,1.8161,1.8024,0.0,0.0,0.0,0.0,0.0,0.0,0.0,0.0,0.0,0.0,0.0,0.0,0.0,0.0,1.6339,1.5177,1.4803,1.5034,1.6242,0.0,0.0,0.0,0.0,0.0,0.0,0.0,0.0,0.0,0.0,0.0,0.0,0.0,0.0,0.0,0.0,2.4252,0.0,0.0,0.0,0.0,0.0,0.0,0.0,0.0,2.8374,2.9182,3.021,3.0467,3.0467,0.0,3.1054,3.0907,0.0,0.0,0.0,0.0,0.0,0.0,0.0,0.0,3.2827,3.5281,3.6114,3.7427,3.9301,3.9212,3.8654,3.7765,3.545,3.2533,2.9085,2.7985,2.6944,0.0,0.0,0.0,0.0,0.0,0.0,0.0,0.0,0.0,0.0,0.0,0.0,0.0,0.0,0.0,0.0,0.0,0.0,0.0,0.0,0.0,0.0,0.0,2.2497,0.0,0.0,0.0,0.0,0.0,0.0,0.0,0.0,0.0,1.9772,1.9563,1.9555,1.9781,1.9502,1.8907,1.7714,0.0,0.0,0.0,0.0,0.0,0.0,0.0,1.476,1.508,1.3545,1.2484,1.3179,1.3795,1.4439,1.4861,0.0,0.0,1.5856,1.5471,1.5599,1.6423,1.6498,1.6508,1.6848,1.7028,1.6992,0.0,0.0,0.0,0.0,0.0,0.0,0.0,0.0,2.2535,2.3376,0.0,0.0,0.0,0.0,0.0,0.0,0.0,0.0,0.0,0.0,2.9622,3.032,3.0467,3.1237,3.1164,0.0,3.2706,3.2999,3.1458,2.9953,0.0,0.0,0.0,0.0,0.0,0.0,3.4274,3.4545,3.7024,3.8614,3.9192,3.9127,3.8619,3.747,3.4394,3.1641,2.9269,2.9085,2.8324,2.6808,2.7629,0.0,0.0,0.0,0.0,0.0,0.0,0.0,0.0,0.0,0.0,0.0,0.0,0.0,0.0,0.0,0.0,0.0,0.0,0.0,0.0,2.3879,0.0,0.0,0.0,0.0,0.0,0.0,0.0,0.0,0.0,0.0,2.1088,1.9987,1.9534,2.0708,0.0,0.0,0.0,0.0,1.6299,1.5562,1.5658,1.5979,1.6326,1.6072,1.5312,1.3876,0.0,0.0,1.2803,1.298,1.3661,1.4826,1.5421,1.5931,1.6937,1.6348,1.6059,1.6593,1.7194,1.7395,1.6901,1.6908,1.6948,2.3861,0.0,0.0,0.0,0.0,2.4645,2.5343,2.6251,2.6218,2.6488,2.6826,2.6082,0.0,0.0,0.0,0.0,0.0,0.0,3.0136,3.1274,3.2302,3.3073,3.3633,3.4504,3.4468,3.367,3.433,3.4137,3.3109,3.2669,3.2559,3.2706,0.0,0.0,0.0,0.0,3.4776,3.6546,3.8477,3.9771,4.0498,3.9976,3.8958,3.7514,3.5422,3.345,3.1616,3.0467,2.9148,2.7642,2.7812,0.0,0.0,0.0,0.0,0.0,0.0,0.0,0.0,0.0,0.0,0.0,0.0,0.0,0.0,0.0,0.0,0.0,0.0,0.0,2.4747,2.4642,2.4717,0.0,0.0,0.0,0.0,0.0,0.0,0.0,0.0,0.0,2.0305,1.9984,1.9734,0.0,0.0,1.7891,1.7075,1.6966,1.6603,1.5752,0.0,0.0,0.0,1.6259,1.5028,1.0932,1.1219,1.1526,1.0624,1.1579,1.2597,1.3045,1.5023,1.6672,1.6697,1.6586,1.6627,1.7235,1.8143,1.8557,1.7876,1.7983,1.8277,2.7122,2.5559,2.5819,2.6351,2.7016,2.7274,2.7721,2.8281,2.8281,2.8619,2.9127,2.8383,2.8082,2.8083,2.8623,0.0,0.0,0.0,3.2339,3.3623,3.4724,3.5862,3.6964,3.7808,3.7771,3.7,3.7264,3.6853,3.5752,3.5752,3.5752,3.5605,0.0,0.0,3.3807,3.4761,3.6009,3.7477,3.9386,4.0634,4.1075,4.0304,3.9276,3.7991,3.667,3.5055,3.3183,3.2025,3.0586,2.8882,2.8129,2.7739,0.0,0.0,0.0,0.0,0.0,0.0,0.0,0.0,0.0,0.0,0.0,2.6736,0.0,0.0,0.0,0.0,2.5375,2.5615,2.5615,2.5495,0.0,0.0,0.0,0.0,0.0,0.0,0.0,2.2749,2.1684,2.0594,1.9834,1.9295,1.8946,1.9024,1.8185,1.7389,1.6952,0.0,1.6392,1.6048,1.6259,1.6406,1.6313,1.5507,1.3642,0.9705,0.9967,1.039,0.9891,1.1079,1.2209,1.2449,1.4351,1.5976,1.5832,1.6759,1.7809,1.8076,1.8771,1.9145,1.8664,1.8945,1.9279,3.0758,3.0546,3.0087,3.0095,3.0359,3.041,3.0102,2.9533,2.957,3.0243,3.136,3.0683,3.0916,3.1842,3.2054,0.0,0.0,3.3366,3.4578,3.543,3.6964,3.8505,3.9974,4.0744,4.0708,3.9974,4.0744,4.0341,3.8909,3.8872,3.8872,3.8726,3.5789,3.4247,3.4321,3.6523,3.7728,3.7808,4.012,4.1295,4.1185,4.0487,3.968,3.8799,3.7955,3.6405,3.4137,3.3473,3.2295,3.0406,2.8654,2.7829,2.7978,0.0,0.0,0.0,0.0,0.0,0.0,0.0,0.0,0.0,0.0,0.0,0.0,0.0,0.0,0.0,2.5644,0.0,2.5764,2.6255,0.0,0.0,0.0,2.5448,2.3904,2.3424,2.2889,2.2,0.0,0.0,0.0,0.0,1.764,1.8434,1.7412,1.6847,1.7498,1.6644,1.6005,1.6313,1.6567,1.6794,1.6866,1.4676,1.2103,0.9889,0.9632,0.9774,0.9808,1.0891,1.1856,1.1856,1.3287,1.4361,1.4361,1.6669,1.8918,1.8604,1.9097,1.9439,1.9345,1.9599,1.988,3.3609,3.3568,3.4036,3.3559,3.2661,3.3222,3.3673,3.4023,3.4032,3.3931,3.366,3.2949,3.2509,3.2368,3.3027,3.397,3.5165,3.6156,3.7367,3.8726,3.9129,3.9863,4.0818,4.1038,4.1001,4.0855,4.1038,4.0928,4.0561,4.0524,4.023,3.9606,3.8799,3.8138,3.7588,3.8726,3.9606,4.023,4.1992,4.2616,4.2029,4.1846,4.1038,3.9643,3.8212,3.6927,3.5752,3.4091,3.2547,3.1182,3.0377,2.9834,2.957,2.96,0.0,0.0,0.0,0.0,0.0,0.0,0.0,0.0,0.0,2.9424,2.819,0.0,2.6901,0.0,2.5884,2.6004,2.7021,2.6696,0.0,0.0,2.5647,2.4773,2.4747,2.3233,2.2158,2.1929,2.1845,2.0495,1.7086,1.6383,1.6248,1.6448,1.64,1.6553,1.6826,1.6684,1.6607,1.686,1.6927,1.7048,1.7173,1.5167,1.2524,1.013,0.9686,0.9693,0.9802,1.0058,1.0422,1.0422,1.1736,1.2689,1.2808,1.4361,1.5891,1.6798,1.8445,1.988,1.9479,1.9933,2.0441,3.5515,3.5517,3.6662,3.6627,3.586,3.563,3.5919,3.6637,3.6637,3.64,3.596,3.5216,3.496,3.5119,3.558,3.6568,3.7924,3.8726,3.979,4.0928,4.0965,4.1405,4.2176,4.2176,4.2176,4.2176,4.2176,4.2176,4.2176,4.2176,4.1956,4.1515,4.1515,4.1258,4.0855,4.0561,4.0855,4.1662,4.2837,4.3277,4.2837,4.2139,4.1515,4.0928,3.8689,3.7294,3.6817,3.4635,3.308,3.2358,3.115,3.0475,3.0548,3.0277,3.0277,0.0,0.0,0.0,0.0,0.0,0.0,0.0,0.0,0.0,0.0,0.0,2.8586,0.0,0.0,0.0,2.7895,2.7494,2.6891,2.6077,2.5435,2.4725,2.3769,2.3036,2.238,2.1975,2.0751,1.8829,1.6195,1.5832,1.5832,1.5832,1.6086,1.6326,1.6486,1.6607,1.6807,1.7088,1.7208,1.7328,1.7555,1.4233,1.1143,1.006,0.97,0.9659,0.9795,0.9822,0.9822,0.9943,1.114,1.2217,1.2209,1.2217,1.3168,1.5451,1.5741,1.6013,1.7218,1.7815,1.803,3.6843,3.6907,3.831,3.8882,3.8809,3.7548,3.7436,3.8193,3.8193,3.8193,3.8159,3.7483,3.7757,3.8581,3.8766,3.9337,4.0267,4.1038,4.1846,4.258,4.2616,4.2983,4.3644,4.3754,4.3754,4.3644,4.3644,4.3644,4.3644,4.3534,4.3497,4.3497,4.3497,4.3497,4.3424,4.2103,4.1772,4.2433,4.324,4.3644,4.3608,4.2286,4.1772,4.1992,3.9203,3.7477,3.7147,3.4875,3.3594,3.3387,3.1455,3.059,3.1123,3.0658,3.0353,0.0,3.1642,0.0,0.0,0.0,0.0,0.0,0.0,0.0,0.0,3.0571,3.0104,3.0188,2.9834,2.9237,2.8368,2.8283,2.7262,2.4922,2.5197,2.4731,2.2539,2.2787,2.29,2.2114,1.9418,1.7115,1.6007,1.5832,1.5832,1.5845,1.6086,1.6299,1.6366,1.6607,1.6887,1.7257,1.7408,1.7555,1.7028,1.2733,0.9229,0.9571,0.9652,0.9652,0.9768,0.9808,0.9822,0.9943,1.114,1.2217,1.2209,1.1374,1.1968,1.5182,1.3536,1.2569,1.5136,1.5932,1.5115,3.8133,3.7674,3.8526,3.8884,3.8896,3.862,3.8925,3.9681,3.9681,3.9648,3.9648,3.9512,3.9709,4.0206,4.089,4.1381,4.1919,4.269,4.3461,4.4268,4.4268,4.4342,4.4488,4.5149,4.5112,4.4525,4.4488,4.4488,4.4452,4.3791,4.3497,4.3497,4.3497,4.3497,0.0,0.0,0.0,0.0,4.4048,4.4488,4.4452,4.4195,4.3167,4.1368,3.9496,0.0,3.554,3.4075,3.3104,3.2747,3.1916,0.0,0.0,0.0,0.0,0.0,0.0,0.0,0.0,0.0,0.0,0.0,3.2594,3.1819,3.0791,3.0081,2.9816,3.0163,2.9834,2.9237,2.8397,2.8127,2.7382,2.5845,2.4944,2.4269,2.3633,2.3102,2.267,2.2852,2.0058,1.7568,1.6048,1.5832,1.5832,1.5845,1.6086,1.6353,1.6593,1.686,1.7168,1.7448,1.7542,1.7582,1.7582,1.2507,0.8981,0.9123,0.9415,0.9598,0.9659,0.9754,0.9822,0.9943,1.1133,1.2209,1.2329,1.3636,1.4945,1.4955,1.4945,1.5688,1.8071,1.7901,1.7631,3.9303,0.0,3.9744,4.0019,0.0,0.0,4.0272,4.0629,4.0257,4.0087,4.0087,4.0087,4.0513,4.1202,4.1633,4.2171,4.291,4.3718,4.4305,4.4709,4.5112,4.5296,4.5296,4.57,4.57,4.5296,4.5296,4.5296,4.5259,4.4892,4.4672,4.4672,4.4672,4.4672,4.4672,4.4672,4.4305,4.3497,4.3901,4.4121,4.4085,4.3718,4.2947,4.1699,0.0,0.0,0.0,0.0,0.0,0.0,0.0,0.0,0.0,0.0,0.0,3.2855,3.34,3.3816,3.3897,3.3671,3.3624,3.4006,3.3392,3.2413,3.1134,3.0689,3.0642,3.0795,3.0303,2.9697,2.912,2.8283,2.7181,2.5636,2.4899,2.4233,2.337,2.3037,2.2891,2.2804,2.0604,1.8149,1.6089,1.5832,1.5832,1.5845,1.6086,1.642,1.6666,1.7007,1.7261,1.7528,1.7582,1.6499,1.3696,1.121,0.9001,0.9144,0.9347,0.9544,0.9693,0.9768,1.0065,1.0899,1.2337,1.3526,1.4589,1.6374,1.756,1.6973,1.6492,1.6256,1.6985,1.6589,1.6409,4.0503,4.0558,4.1102,4.1376,4.1407,4.1432,4.1365,4.1339,0.0,0.0,0.0,4.0257,4.0995,4.2157,4.22,4.2857,4.3975,4.4599,4.5002,4.5149,4.581,4.6104,4.6104,4.6287,4.625,4.6104,4.6104,4.6104,4.6104,4.5993,4.5883,4.5883,4.5883,4.5883,4.5883,4.5883,4.5223,4.3975,4.4048,4.4048,4.3901,4.3277,4.2727,4.2323,4.023,3.8982,3.8689,3.7025,3.6131,3.6043,3.5183,3.4653,3.4619,3.415,3.3904,3.3998,3.4626,3.4999,3.5081,3.4426,3.4202,3.459,3.39,3.3006,3.1839,3.178,3.178,3.1721,3.107,3.0444,2.9997,2.8545,2.6866,2.5202,2.4748,2.3993,2.278,2.2891,2.3125,2.2862,2.0979,1.8503,1.6197,1.5832,1.5832,1.5872,1.6139,1.6526,1.6751,1.7078,1.7328,1.7528,1.7582,1.5956,1.1973,0.9485,0.9259,0.9774,0.9896,0.9938,1.0144,1.0386,1.1133,1.2337,1.3885,1.5311,1.6727,1.7806,1.8997,1.9359,1.7689,1.5902,1.4837,1.449,1.455,4.2011,4.1977,4.2108,4.2125,4.2151,4.2143,4.2131,4.2016,4.0663,4.0426,4.1035,4.1035,4.2063,4.3793,4.3793,4.4438,4.5553,4.5663,4.6104,0.0,4.6874,4.6948,4.6985,4.7645,4.7609,4.6985,4.6948,4.6948,4.6874,4.625,4.5883,4.592,4.5883,4.592,4.5883,4.5883,4.5773,4.559,4.625,4.6287,4.559,4.548,4.4378,4.2396,4.1332,4.012,3.8762,3.8407,3.7781,3.6741,3.653,3.6043,3.5238,3.5444,3.5774,3.6299,3.6737,3.7124,3.7347,3.6688,3.572,3.4597,3.3879,3.3245,3.2676,3.3006,3.3066,3.2646,3.209,3.1496,3.0632,2.8602,2.6625,2.5224,2.4119,2.3206,2.265,2.2891,2.3144,2.3057,2.0978,1.8536,1.6305,1.5832,1.5832,1.5899,1.6286,1.6834,1.7301,1.7515,1.7528,1.7569,1.7582,1.7252,1.5636,1.1973,1.0398,1.116,1.1481,1.1471,1.1587,1.2631,1.3636,1.4242,1.5429,1.6609,1.7091,1.7079,1.7923,1.8648,1.7325,1.5773,1.448,1.3646,1.3426,4.2895,4.2895,4.2881,4.2881,4.2929,4.2879,4.2901,4.2794,4.1745,4.1474,4.1779,4.1779,4.2649,4.4067,4.4112,4.4755,4.592,4.6361,4.6764,4.7094,4.7572,4.8012,4.8416,4.8379,4.86,4.904,4.8673,4.8673,4.904,4.8746,4.8563,4.8563,4.8563,4.8563,4.8526,4.8122,4.7865,4.7902,4.6948,4.6287,4.592,4.548,4.4525,4.2983,4.2176,4.1222,4.0047,4.001,3.9597,3.8757,3.8686,3.8402,3.7721,3.7486,3.7554,3.7806,3.7729,3.7543,3.7253,3.6497,3.5577,3.4577,3.454,3.4502,3.4322,3.3784,3.3514,3.3483,3.2263,3.1338,3.1171,2.8543,2.6542,2.5881,2.454,2.3432,2.2945,2.3008,2.3144,2.2882,2.0995,1.8551,1.6116,1.5832,1.5832,1.5885,1.6308,1.6919,1.7502,1.7582,1.7582,1.7582,1.7582,1.7582,1.7477,1.5636,1.394,1.3902,1.3276,1.3126,1.3296,1.4272,1.4935,1.5784,1.6609,1.7325,1.7923,1.756,1.7208,1.6503,1.6149,1.4599,1.2689,1.1495,1.1856,4.4079,4.3888,4.3934,4.3833,4.3707,4.3673,4.3775,4.3876,4.3301,4.3166,4.3234,4.2794,4.3407,4.4845,4.489,4.5695,4.6983,4.7645,4.7939,4.8012,4.8563,4.9224,4.9738,4.9187,4.9554,5.0618,5.0141,5.0215,5.0729,5.0802,5.0802,5.0802,5.0802,5.0802,5.0802,5.0178,4.9774,4.9481,4.7902,4.6728,4.6177,4.5553,4.4892,4.4048,4.3277,4.2543,4.1956,4.1772,4.1348,4.078,4.0745,4.049,3.9878,3.935,3.9112,3.9019,3.8615,3.7936,3.7,3.6216,3.5462,3.4775,3.519,3.5489,3.5429,3.4562,3.4083,3.4193,3.27,3.1638,3.1361,2.8473,2.6364,2.6273,2.4679,2.3446,2.3016,2.3066,2.3144,2.2882,2.096,1.8613,1.6494,1.5832,1.5858,1.6019,1.6341,1.6883,1.7408,1.7528,1.7582,1.7582,1.7582,1.7582,1.7595,1.7623,1.713,1.6304,1.5285,1.4844,1.5109,1.5365,1.6138,1.7325,1.756,1.7806,1.8532,1.7443,1.6138,1.5074,1.4123,1.2689,1.0664,1.0058,1.0179,4.6075,4.55,4.5467,4.5128,4.4485,4.4451,4.4823,4.5365,4.5399,4.5771,4.5998,4.4215,4.4872,4.7143,4.731,4.8362,5.0138,5.0398,5.0362,5.0362,5.0545,5.0618,5.0692,5.0582,5.0655,5.0839,5.0765,5.0765,5.0949,5.0912,5.0839,5.0802,5.0802,5.0875,5.0839,5.0729,5.0325,4.9627,5.0105,4.926,4.7168,4.6911,4.6507,4.57,4.4892,4.4452,4.4232,4.3681,4.291,4.2182,4.2109,4.1615,4.0659,4.0411,4.0289,3.9997,3.9867,3.9254,3.7826,3.6958,3.6105,3.5529,3.5429,3.5489,3.5489,3.537,3.531,3.5115,3.41,3.3058,3.2313,2.8597,2.6143,2.5878,2.4137,2.2624,2.2656,2.291,2.3144,2.3057,2.0979,1.8596,1.6386,1.5832,1.5939,1.6152,1.6507,1.6803,1.7208,1.7448,1.7582,1.7582,1.7582,1.7582,1.7635,1.8063,1.8031,1.7754,1.7104,1.663,1.6795,1.7683,1.901,1.8519,1.8997,1.8648,1.7325,1.602,1.4955,1.4361,1.2689,1.0301,0.9822,0.9822,0.9937,4.6616,4.637,4.6351,4.5908,4.523,4.4778,4.4756,4.506,4.55,4.6124,4.6653,4.6172,4.6865,4.8374,4.8758,4.9647,5.0762,5.0802,5.0802,5.0802,5.0802,5.1059,5.1426,5.1022,5.1279,5.2123,5.1756,5.1756,5.216,5.2234,5.2234,5.2234,5.2234,5.2234,5.2197,5.1756,5.1316,5.1022,5.0875,5.0068,4.871,4.8086,4.7425,4.6617,4.5847,4.5186,4.4745,4.4378,4.3828,4.3094,4.302,4.2667,4.1877,4.1517,4.1104,4.0542,3.9387,3.8502,3.7822,3.6662,3.5846,3.5489,3.5489,3.5489,3.5489,3.5489,3.5489,3.5359,3.4341,3.3353,3.2423,2.9276,2.6898,2.6169,2.4766,2.3604,2.2891,2.294,2.3144,2.2969,2.0962,1.858,1.6466,1.5832,1.5952,1.6233,1.6494,1.6786,1.7114,1.7395,1.7555,1.7582,1.7582,1.7582,1.7609,1.7756,1.809,1.8313,1.8125,1.7779,1.8288,1.8777,1.9372,1.9372,1.9372,1.8765,1.7325,1.5784,1.4599,1.3885,1.2097,0.9822,0.9822,0.9822,0.9822,4.7259,4.7081,4.6873,4.6488,4.6,4.5422,4.5196,4.5297,4.5974,4.6669,4.7384,4.8293,4.9116,4.9684,5.0027,5.0591,5.1385,5.1463,5.1463,5.1463,5.1463,5.1793,5.2234,5.1756,5.205,5.2968,5.2601,5.2637,5.3151,5.3225,5.3225,5.3225,5.3225,5.3225,5.3151,5.2601,5.2197,5.1977,5.161,5.0986,4.9994,4.9334,4.8489,4.7498,4.6654,4.5847,4.5076,4.4819,4.4342,4.3534,4.3497,4.325,4.2693,4.2103,4.1429,4.0638,3.8875,3.7822,3.7764,3.6383,3.5489,3.5489,3.5489,3.5489,3.5489,3.5489,3.5359,3.5001,3.4002,3.3045,3.2451,2.9758,2.7552,2.6422,2.5182,2.3967,2.3083,2.2689,2.2553,2.2755,2.0584,1.8211,1.6386,1.5832,1.5912,1.6112,1.6473,1.6767,1.7034,1.7328,1.7582,1.7582,1.7582,1.7582,1.7582,1.7622,1.7943,1.841,1.8526,1.8712,1.9252,1.9345,1.9372,1.9372,1.9372,1.8415,1.6503,1.5074,1.3885,1.3048,1.1374,0.9822,0.9822,0.9822,0.9822,4.8511,4.78,4.709,4.6811,4.6718,4.665,4.665,4.6583,4.7428,4.8138,4.8861,5.0242,5.1301,5.1813,5.1266,5.1718,5.2926,5.2968,5.2968,5.2968,5.3004,5.3078,5.3151,5.3115,5.3115,5.3188,5.3115,5.3151,5.3261,5.3261,5.3225,5.3225,5.3261,5.3225,5.3188,5.3115,5.2747,5.2197,5.2637,5.2307,5.0949,5.0692,4.9848,4.8379,4.7498,4.6691,4.5883,4.5112,4.4342,4.3534,4.3497,4.325,4.2693,4.2139,4.1286,4.017,3.8635,3.7822,3.7648,3.6383,3.5489,3.5489,3.5489,3.5489,3.5489,3.5489,3.5133,3.4177,3.3185,3.2478,3.2253,2.963,2.7152,2.5949,2.4427,2.3392,2.2605,2.1614,2.1658,2.2045,1.9861,1.7404,1.6008,1.5832,1.5832,1.5979,1.6353,1.6727,1.682,1.7235,1.7528,1.7582,1.7582,1.7582,1.7582,1.7582,1.7862,1.833,1.8704,1.8971,1.9199,1.9372,1.9372,1.9372,1.9372,1.8286,1.5795,1.4004,1.2689,1.1736,1.0778,0.9822,0.9822,0.9822,0.9822,4.8883,4.8545,4.7827,4.753,4.745,4.7005,4.6794,4.6912,4.8025,4.898,4.9749,5.1087,5.2112,5.2813,5.2521,5.2688,5.3146,5.3225,5.3225,5.3225,5.3225,5.3225,5.3225,5.3225,5.3225,5.3225,5.3225,5.3482,5.3959,5.3959,5.3959,5.3959,5.3959,5.3739,5.3298,5.3225,5.3041,5.2821,5.3078,5.2674,5.1683,5.1573,5.0765,4.9187,4.8306,4.7498,4.6728,4.592,4.5112,4.4305,4.3791,4.325,4.2693,4.1768,4.0874,4.0104,3.8668,3.7822,3.7648,3.6383,3.5489,3.5489,3.5489,3.5489,3.5489,3.5489,3.5067,3.3905,3.1974,3.1119,3.1288,2.9935,2.8017,2.6166,2.5245,2.419,2.276,2.1435,2.0781,2.039,1.8211,1.6292,1.6008,1.5832,1.5832,1.5885,1.6339,1.6647,1.6794,1.7208,1.7582,1.7582,1.7582,1.7582,1.7582,1.7582,1.7769,1.8237,1.8624,1.8905,1.9158,1.9332,1.9372,1.9372,1.9372,1.8169,1.5677,1.2697,1.1495,1.0778,0.9822,0.9822,0.9822,0.9822,0.9822,4.9018,4.8917,4.847,4.8274,4.8192,4.7747,4.7368,4.7319,4.8425,4.9353,5.013,5.1272,5.2289,5.3176,5.3482,5.3592,5.3555,5.3335,5.3225,5.3225,5.3225,5.3225,5.3261,5.3482,5.3592,5.3628,5.3885,5.4289,5.473,5.4766,5.4766,5.4803,5.4546,5.4142,5.3628,5.3371,5.3225,5.3225,5.3225,5.2931,5.2417,5.2123,5.1499,5.0398,4.9297,4.8196,4.713,4.6581,4.5773,4.4819,4.4158,4.3433,4.2458,4.1603,4.0827,4.002,3.8668,3.7822,3.7648,3.6383,3.5489,3.5489,3.5489,3.5489,3.5489,3.5489,3.4839,3.3394,3.1341,3.0139,3.0367,2.9961,2.846,2.6119,2.5284,2.4248,2.232,2.0814,1.9428,1.8378,1.6936,1.5913,1.5832,1.5832,1.5832,1.5832,1.6326,1.6673,1.678,1.7194,1.7582,1.7582,1.7582,1.7582,1.7582,1.7582,1.7822,1.8263,1.8477,1.8784,1.8951,1.9123,1.9216,1.9345,1.8648,1.7455,1.5192,1.1976,1.0543,0.9943,0.9822,0.9822,0.9822,0.9822,0.9822,4.9018,4.9018,4.8984,4.8917,4.8917,4.8849,4.8545,4.8105,4.8795,4.9561,5.0236,5.0957,5.2185,5.32,5.3995,5.4363,5.4289,5.3775,5.3482,5.3445,5.3408,5.3408,5.3482,5.4106,5.4399,5.4436,5.5133,5.55,5.5611,5.5574,5.5611,5.5464,5.4883,5.4564,5.4369,5.3676,5.323,5.323,5.323,5.3188,5.3115,5.2454,5.2013,5.1683,5.0362,4.8857,4.7277,4.7131,4.6361,4.5076,4.4709,4.3721,4.2169,4.1768,4.1241,4.007,3.8668,3.7879,3.7648,3.6383,3.5489,3.5489,3.5489,3.5489,3.5489,3.5489,3.4773,3.2904,3.1071,2.9856,2.9781,2.9353,2.8022,2.5647,2.4551,2.3253,2.157,1.953,1.7648,1.6607,1.6021,1.5832,1.5832,1.5832,1.5832,1.5925,1.6326,1.67,1.6754,1.7208,1.7542,1.7582,1.7582,1.7582,1.7582,1.7622,1.7956,1.8263,1.837,1.8459,1.8438,1.8518,1.8096,1.8121,1.7196,1.602,1.4599,1.1615,1.0422,0.9822,0.9822,0.9822,0.9822,0.9822,0.9822,4.9018,4.9018,4.9018,4.9018,4.9018,4.9018,4.8849,4.8802,4.9907,5.0576,5.0957,5.204,5.3097,5.3873,5.4326,5.473,5.517,5.495,5.484,5.484,5.4803,5.4803,5.4876,5.5097,5.5244,5.5244,5.5464,5.5904,5.6345,5.6418,5.6418,5.6316,5.5886,5.5347,5.4791,5.4012,5.3643,5.3565,5.3318,5.3225,5.3188,5.2968,5.2564,5.194,5.0949,4.9884,4.8857,4.7719,4.6911,4.6324,4.5296,4.3831,4.224,4.181,4.1286,4.012,3.8668,3.7822,3.7648,3.6415,3.5489,3.5489,3.5489,3.5489,3.5489,3.5489,3.4639,3.2735,3.0921,2.9779,2.9628,2.89,2.7729,2.6311,2.4952,2.3514,2.2048,2.031,1.8823,1.7609,1.6574,1.5927,1.5832,1.5832,1.5832,1.5872,1.6326,1.6673,1.678,1.7181,1.7569,1.7582,1.7582,1.7582,1.7582,1.7582,1.7756,1.7901,1.7939,1.7806,1.7779,1.7375,1.7068,1.6484,1.5675,1.4687,1.3159,1.1736,1.0301,0.9822,0.9822,0.9822,0.9822,0.9822,0.9822,4.9018,4.9018,4.9018,4.9161,4.9325,4.9365,4.955,4.9861,5.0716,5.1241,5.1679,5.2707,5.3632,5.4393,5.5023,5.5574,5.6051,5.6308,5.6492,5.6308,5.5757,5.5611,5.5647,5.5941,5.6235,5.6455,5.6492,5.6748,5.7226,5.7226,5.7316,5.7396,5.6651,5.607,5.5584,5.4429,5.3795,5.3758,5.3404,5.3225,5.3225,5.3225,5.2968,5.238,5.1389,5.0582,4.9958,4.8453,4.7425,4.6911,4.5553,4.3939,4.2441,4.1945,4.1286,4.012,3.8778,3.7822,3.7648,3.6383,3.5489,3.5489,3.5489,3.5489,3.5489,3.5489,3.4677,3.2737,3.0944,2.9779,2.9654,2.9001,2.8052,2.7236,2.5182,2.3416,2.199,2.0977,1.9273,1.7827,1.6386,1.5913,1.5832,1.5832,1.5832,1.5899,1.6233,1.6553,1.666,1.7048,1.7288,1.7462,1.7528,1.7542,1.7582,1.7582,1.7582,1.7423,1.7365,1.7076,1.6806,1.5965,1.5432,1.494,1.4269,1.367,1.2277,1.1004,0.9822,0.9822,0.9822,0.9822,0.9822,0.9822,0.9822,4.9086,4.9052,4.9018,4.9462,5.0084,5.0066,5.0364,5.1069,5.1189,5.1579,5.227,5.3049,5.3918,5.4789,5.6014,5.6638,5.6969,5.7483,5.774,5.7409,5.6602,5.5978,5.6088,5.6602,5.7152,5.7703,5.7813,5.7886,5.785,5.785,5.8238,5.833,5.7188,5.6519,5.6425,5.4943,5.4089,5.3941,5.3563,5.3359,5.3314,5.3272,5.323,5.3041,5.1646,5.0765,5.0472,4.9077,4.7865,4.7058,4.5663,4.4304,4.3102,4.2235,4.1286,4.0154,3.8668,3.7994,3.7472,3.6383,3.5489,3.5489,3.5489,3.5489,3.5489,3.5424,3.4684,3.2737,3.1088,2.9934,2.9756,2.9202,2.8575,2.7631,2.5245,2.2785,2.0716,2.121,2.0303,1.7612,1.6292,1.5832,1.5832,1.5832,1.5832,1.5885,1.6112,1.6286,1.6433,1.6754,1.7048,1.7208,1.7301,1.7488,1.7515,1.7275,1.7107,1.6004,1.6006,1.5958,1.5188,1.4239,1.3399,1.2896,1.2876,1.2276,1.1527,1.0371,0.9808,0.9822,0.9822,0.9822,0.9822,0.9822,0.9822,4.9767,4.9767,4.9193,5.0043,5.1416,5.0544,5.0809,5.1915,5.1893,5.2366,5.3038,5.3781,5.4883,5.6161,5.6565,5.7116,5.7593,5.785,5.7997,5.7923,5.7629,5.7373,5.7373,5.7519,5.774,5.796,5.8006,5.7997,5.7997,5.8051,5.8326,5.8639,5.7978,5.7465,5.7248,5.6223,5.5397,5.4806,5.4355,5.3943,5.3644,5.3606,5.3484,5.3041,5.1646,5.0839,5.0655,4.9187,4.7939,4.7131,4.6177,4.4776,4.323,4.2271,4.1321,4.012,3.8723,3.7822,3.7531,3.6383,3.5554,3.5489,3.5489,3.5489,3.5489,3.5489,3.4514,3.2933,3.1683,3.0797,2.9986,2.9277,2.8226,2.6529,2.4788,2.2972,2.1846,2.1646,2.1513,2.0962,1.801,1.6372,1.5832,1.5832,1.5832,1.5872,1.6046,1.6246,1.6313,1.6513,1.682,1.6874,1.7007,1.7275,1.7355,1.7074,1.6266,1.4702,1.4385,1.4622,1.3467,1.2006,1.1077,1.0273,1.0996,1.0783,1.0509,0.9847,0.9768,0.9822,0.9822,0.9822,0.9822,0.9822,0.9822,5.0608,5.0544,5.0135,5.1047,5.2593,5.1838,5.2263,5.3484,5.3614,5.3799,5.4401,5.5066,5.5904,5.6785,5.7152,5.7556,5.796,5.7997,5.7997,5.7997,5.7923,5.7923,5.796,5.796,5.7997,5.8006,5.8231,5.8282,5.8332,5.8466,5.8835,5.9098,5.8694,5.8213,5.7825,5.6866,5.5973,5.5178,5.4701,5.4355,5.4118,5.3869,5.3683,5.3148,5.1772,5.0582,4.9738,4.8783,4.8086,4.7535,4.68,4.5503,4.3693,4.2739,4.1635,4.0222,3.8668,3.7822,3.7531,3.6352,3.5554,3.5489,3.5489,3.5489,3.5489,3.5489,3.4677,3.2849,3.2538,3.1563,3.0139,2.9277,2.8076,2.65,2.4889,2.3689,2.2615,2.2103,2.2369,2.1945,1.9844,1.6842,1.6008,1.5832,1.5832,1.5845,1.5939,1.6032,1.6099,1.6353,1.6526,1.6567,1.6633,1.686,1.7021,1.6834,1.5469,1.3784,1.2625,1.294,1.19,1.0342,0.9853,0.9405,0.9497,0.9537,0.9605,0.9693,0.9781,0.9822,0.9822,0.9822,0.9822,0.9822,0.9822,5.1319,5.1319,5.1251,5.2123,5.3493,5.3471,5.4073,5.5493,5.5456,5.5493,5.5786,5.6455,5.6748,5.6969,5.7593,5.796,5.7997,5.7997,5.7997,5.8042,5.8051,5.8105,5.8186,5.8186,5.8186,5.8194,5.8549,5.8716,5.8835,5.9139,5.9592,5.9703,5.9244,5.8704,5.8155,5.7213,5.6167,5.5351,5.4971,5.4701,5.4516,5.4187,5.3869,5.346,5.1775,5.0031,4.893,4.8306,4.8233,4.8159,4.7425,4.5976,4.4357,4.3472,4.203,4.0322,3.8799,3.7822,3.7589,3.6445,3.5489,3.5489,3.5489,3.5489,3.5489,3.5489,3.4751,3.3111,3.3322,3.2407,3.0768,2.963,2.8575,2.7212,2.589,2.4569,2.3583,2.2594,2.2246,2.2727,2.0854,1.8395,1.6749,1.5832,1.5832,1.5832,1.5899,1.5912,1.5965,1.6099,1.6206,1.6233,1.6313,1.6406,1.6513,1.6567,1.4676,1.2899,1.1502,1.1,1.0351,0.9418,0.9245,0.9123,0.9259,0.9408,0.9537,0.9639,0.9774,0.9822,0.9822,0.9822,0.9822,0.9822,0.9822,5.2063,5.2029,5.1454,5.277,5.4768,5.3976,5.4592,5.6455,5.5868,5.6051,5.6492,5.6785,5.7189,5.774,5.7886,5.7997,5.7997,5.7997,5.7997,5.8051,5.8418,5.8508,5.8549,5.8549,5.8549,5.8673,5.9028,5.9212,5.9319,5.9424,5.9625,5.9998,5.9807,5.9305,5.8327,5.7866,5.7075,5.5861,5.5446,5.5212,5.4905,5.4579,5.4115,5.3609,5.1856,5.0071,4.871,4.8306,4.8012,4.7352,4.658,4.5694,4.4669,4.3095,4.1745,4.0577,3.8929,3.7822,3.7531,3.6477,3.5489,3.5519,3.5489,3.5489,3.5489,3.5489,3.4942,3.3955,3.3779,3.3325,3.2064,3.0765,2.9678,2.8464,2.6514,2.4871,2.432,2.3084,2.25,2.232,2.0404,1.7855,1.6103,1.5832,1.5832,1.5832,1.5832,1.5832,1.5872,1.5925,1.5965,1.6019,1.5647,1.5641,1.5303,1.4862,1.3029,1.1754,1.0482,0.9801,0.9147,0.894,0.8981,0.9035,0.911,0.9259,0.9435,0.9666,0.9815,0.9815,0.9815,0.9822,0.9822,0.9822,0.9822,5.2875,5.2841,5.2806,5.3936,5.5461,5.5243,5.5935,5.7107,5.6932,5.6969,5.7299,5.7373,5.7593,5.7997,5.7997,5.7997,5.7997,5.7997,5.8142,5.8289,5.8632,5.8796,5.9103,5.9212,5.9284,5.9139,5.9492,5.969,5.9792,5.9946,6.0255,6.0353,6.0085,5.9229,5.8335,5.7934,5.6934,5.5972,5.5703,5.5577,5.5375,5.496,5.4188,5.3269,5.1825,5.0378,4.9116,4.8086,4.7792,4.7315,4.6324,4.5186,4.4505,4.3144,4.1983,4.078,3.932,3.8133,3.7648,3.6784,3.591,3.5584,3.5489,3.5489,3.5489,3.5489,3.4971,3.4409,3.4312,3.4312,3.3296,3.1685,3.0591,2.9191,2.7083,2.5307,2.4588,2.2915,2.2044,2.1975,1.9571,1.739,1.6103,1.5832,1.5832,1.5832,1.5832,1.5832,1.5832,1.5872,1.5858,1.5681,1.5178,1.4712,1.4063,1.3017,1.107,1.0166,0.9472,0.9216,0.903,0.8927,0.894,0.9008,0.9083,0.9178,0.9354,0.9598,0.9754,0.9741,0.9741,0.9788,0.9822,0.9822,0.9822,5.3518,5.3551,5.4296,5.507,5.5766,5.649,5.7208,5.7886,5.7997,5.7813,5.796,5.7997,5.7923,5.7997,5.7997,5.7997,5.7997,5.8006,5.8194,5.8591,5.8796,5.9102,5.9492,5.9855,5.9977,5.9658,6.0006,6.0189,6.0311,6.0533,6.0531,6.0488,6.0104,5.9142,5.8204,5.7588,5.6819,5.5857,5.5703,5.5703,5.5577,5.5199,5.4216,5.2557,5.1821,5.0674,4.9381,4.8311,4.7684,4.7942,4.6285,4.4967,4.4011,4.3355,4.2475,4.115,3.9784,3.8821,3.8019,3.7144,3.629,3.5683,3.5554,3.5489,3.5489,3.5489,3.5133,3.4905,3.4839,3.5067,3.4245,3.2538,3.1039,2.9581,2.7403,2.5577,2.4429,2.224,2.1342,2.148,1.9662,1.7576,1.6386,1.5832,1.5832,1.5832,1.5832,1.5832,1.5832,1.5737,1.5724,1.5439,1.4949,1.3884,1.3232,1.1502,0.9461,0.9122,0.8682,0.8811,0.8872,0.892,0.894,0.9001,0.9076,0.9178,0.9245,0.9374,0.9503,0.9578,0.9707,0.9795,0.9822,0.9822,0.9822,5.3518,5.3551,5.4296,5.5035,5.5766,5.6576,5.7317,5.7923,5.7997,5.7997,5.7997,5.7997,5.7997,5.7997,5.7997,5.7997,5.7997,5.8051,5.8326,5.8756,5.9065,5.9526,6.0015,6.0365,6.0572,6.0622,6.0622,6.0622,6.0647,6.0757,6.0512,6.005,6.0204,5.9473,5.8165,5.7588,5.7126,5.6049,5.5742,5.5703,5.5599,5.5274,5.4135,5.2211,5.1731,5.0735,4.9514,4.8776,4.8166,4.7252,4.6589,4.5467,4.4391,4.3719,4.2804,4.1639,4.0391,3.9339,3.8603,3.744,3.6722,3.6352,3.5879,3.5554,3.5489,3.5489,3.5359,3.5359,3.5294,3.5359,3.5198,3.3463,3.2013,3.0288,2.7728,2.5192,2.3928,2.1888,2.0024,2.0642,1.9274,1.784,1.6655,1.5832,1.5832,1.5832,1.5832,1.5832,1.5832,1.5724,1.5534,1.5235,1.4746,1.3488,1.2339,1.0199,0.8348,0.8568,0.8445,0.8689,0.8771,0.8879,0.894,0.8988,0.9089,0.9211,0.9252,0.9273,0.9422,0.9625,0.9727,0.9815,0.9822,0.9822,0.9822,5.3717,5.4145,5.4836,5.5626,5.6349,5.7122,5.7657,5.796,5.7997,5.7997,5.7997,5.7997,5.7997,5.7997,5.7997,5.7997,5.8006,5.8282,5.8632,5.9103,5.9526,6.0006,6.043,6.0734,6.0757,6.0781,6.0781,6.0781,6.0781,6.0781,6.0512,6.0281,6.0242,5.9435,5.8396,5.778,5.7242,5.6357,5.5934,5.5703,5.5703,5.547,5.4344,5.311,5.2107,5.1254,5.0022,4.8858,4.8581,4.8013,4.6619,4.5706,4.5058,4.4257,4.3245,4.1949,4.0897,3.9901,3.909,3.8101,3.7526,3.6661,3.6228,3.591,3.5619,3.5489,3.5489,3.5489,3.5489,3.5489,3.5424,3.4109,3.2704,3.0802,2.7918,2.5657,2.3941,2.161,2.0708,2.0044,1.8403,1.7101,1.6386,1.5832,1.5832,1.5832,1.5818,1.5724,1.5629,1.514,1.4758,1.4172,1.3488,1.2134,1.0974,0.941,0.8038,0.8119,0.8255,0.8499,0.8669,0.8771,0.8866,0.894,0.9069,0.9232,0.932,0.9367,0.9523,0.9659,0.9741,0.9808,0.9815,0.9822,0.9822,5.3946,5.4676,5.5391,5.6174,5.6933,5.7679,5.796,5.7997,5.7997,5.7997,5.7997,5.7997,5.7997,5.7997,5.7997,5.7997,5.8042,5.8461,5.8913,5.9354,5.9855,6.0338,6.0671,6.0781,6.0781,6.0781,6.0781,6.0781,6.0781,6.0781,6.0704,6.0281,5.9742,5.9204,5.8627,5.7588,5.7049,5.6549,5.6126,5.5703,5.5703,5.5665,5.4994,5.3709,5.2921,5.1901,5.044,4.9201,4.8753,4.8188,4.6898,4.5445,4.5761,4.4856,4.3517,4.2195,4.1429,4.0474,3.9664,3.8854,3.8157,3.7084,3.6753,3.6228,3.5718,3.5489,3.5489,3.5489,3.5489,3.537,3.5155,3.4309,3.2815,3.0746,2.8164,2.5718,2.4047,2.233,2.1113,1.9889,1.7761,1.6515,1.5776,1.5697,1.5684,1.5334,1.5321,1.4949,1.4758,1.3884,1.3392,1.2813,1.1843,1.0476,0.9509,0.8825,0.8038,0.8065,0.8194,0.8384,0.8533,0.8662,0.8764,0.8872,0.9096,0.9252,0.9347,0.9476,0.9639,0.9747,0.9781,0.9802,0.9815,0.9822,0.9822,5.3946,5.4668,5.5378,5.6146,5.6964,5.7726,5.7997,5.7997,5.7997,5.7997,5.7997,5.7997,5.7997,5.7997,5.7997,5.7997,5.815,5.8549,5.9065,5.9492,5.9946,6.0391,6.0757,6.0781,6.0781,6.0781,6.0781,6.0781,6.0781,6.0781,6.0435,5.9935,5.9627,5.8934,5.8011,5.7319,5.6588,5.6011,5.578,5.5665,5.5626,5.5588,5.4549,5.3274,5.2526,5.1776,5.0329,4.9186,4.8762,4.812,4.6997,4.5756,4.4949,4.4362,4.3586,4.2736,4.2021,4.1385,4.0556,3.9716,3.8745,3.7758,3.7144,3.6352,3.5718,3.5489,3.5489,3.5489,3.5459,3.513,3.4584,3.3791,3.2188,3.0105,2.7582,2.542,2.3631,2.1915,2.0899,2.032,1.8549,1.6683,1.5452,1.5404,1.5442,1.5081,1.476,1.4469,1.3872,1.2909,1.1745,1.1063,1.0867,0.96,0.8916,0.8137,0.8038,0.8038,0.8133,0.8269,0.8411,0.8547,0.8669,0.8811,0.9049,0.9239,0.932,0.9476,0.9713,0.9788,0.9774,0.9788,0.9815,0.9822,0.9822,5.4852,5.5907,5.6227,5.6797,5.7498,5.7904,5.7997,5.7997,5.7997,5.7997,5.7997,5.7997,5.7997,5.7997,5.7997,5.8186,5.8461,5.8874,5.9354,5.9792,6.0217,6.0597,6.0757,6.0781,6.0781,6.0781,6.0781,6.0781,6.0781,6.0742,6.0512,6.0242,5.9704,5.9281,5.8088,5.7396,5.6896,5.6395,5.5972,5.5472,5.5126,5.4895,5.4161,5.2341,5.2242,5.1283,5.0057,4.9405,4.8757,4.8145,4.7222,4.6418,4.5382,4.4561,4.3812,4.3213,4.2619,4.1895,4.0932,4.0363,3.951,3.869,3.793,3.7263,3.6006,3.5524,3.5135,3.4382,3.4711,3.4562,3.3958,3.3118,3.154,2.9487,2.6901,2.4967,2.3139,2.1424,2.0139,1.9788,1.9199,1.7147,1.5359,1.5061,1.5074,1.5047,1.4409,1.3661,1.2918,1.194,1.0574,0.9114,0.9114,0.8916,0.8528,0.8038,0.8038,0.8038,0.8038,0.8174,0.8296,0.8425,0.856,0.875,0.8988,0.915,0.9259,0.9483,0.9727,0.9754,0.9741,0.9774,0.9802,0.9822,0.9849,5.5984,5.7138,5.6973,5.7349,5.795,5.7997,5.7997,5.7997,5.7997,5.7997,5.7997,5.7997,5.7997,5.7997,5.8006,5.8238,5.8713,5.9213,5.9625,6.0132,6.0508,6.0757,6.0781,6.0781,6.0781,6.0781,6.0781,6.0781,6.0704,6.0589,6.0473,6.0704,5.955,5.9319,5.8934,5.7627,5.6472,5.6395,5.5934,5.5318,5.4741,5.4549,5.351,5.2451,5.1741,5.1125,4.9702,4.9394,4.8971,4.7798,4.7375,4.6546,4.5569,4.4745,4.4125,4.359,4.3105,4.2501,4.1647,4.0978,4.028,3.9476,3.8635,3.7616,3.6352,3.5879,3.5518,3.4546,3.4637,3.4332,3.3302,3.239,3.0797,2.8748,2.6279,2.4482,2.2603,2.0928,2.0019,2.0023,1.9036,1.6993,1.5526,1.4819,1.4621,1.4799,1.4142,1.3051,1.1854,1.0715,0.9797,0.8329,0.8329,0.8428,0.8237,0.8038,0.8038,0.8038,0.8038,0.8072,0.8187,0.8323,0.8452,0.8676,0.8906,0.9008,0.9089,0.9415,0.9713,0.9673,0.9652,0.9741,0.9781,0.9808,0.9842,5.7166,5.7894,5.7209,5.7349,5.7997,5.7997,5.7997,5.7997,5.7997,5.7997,5.7997,5.7997,5.7997,5.8006,5.8097,5.8289,5.8756,5.9176,5.969,6.0161,6.0572,6.0757,6.0781,6.0781,6.0781,6.0781,6.0781,6.0781,6.0666,6.0242,6.0358,6.0473,5.9127,5.905,5.8627,5.7434,5.6203,5.6049,5.5742,5.5318,5.4703,5.428,5.3549,5.2279,5.1779,5.1125,4.9548,4.9394,4.8817,4.7394,4.6932,4.6551,4.5582,4.4903,4.4383,4.3875,4.3594,4.3032,4.2465,4.1603,4.0617,3.9699,3.8734,3.7962,3.7322,3.7381,3.6785,3.5466,3.5053,3.4149,3.2826,3.1306,2.9789,2.781,2.5576,2.3566,2.1838,2.0401,1.9703,2.0081,1.8934,1.6861,1.5183,1.4337,1.4376,1.4586,1.3032,1.1952,1.0227,0.9186,0.878,0.8131,0.8038,0.8137,0.8038,0.8038,0.8038,0.8038,0.8038,0.8038,0.8072,0.8214,0.8377,0.8533,0.8737,0.8825,0.896,0.9279,0.9503,0.953,0.9571,0.9646,0.9754,0.9808,0.9836,5.7351,5.795,5.7704,5.7717,5.7997,5.7997,5.7997,5.7997,5.7997,5.7997,5.7997,5.7997,5.7997,5.8051,5.8332,5.8713,5.9139,5.9592,6.0074,6.0456,6.0734,6.0781,6.0781,6.0781,6.0781,6.0781,6.0781,6.0781,6.0704,6.0281,6.0473,6.0127,5.8627,5.8665,5.828,5.7511,5.6395,5.578,5.5626,5.5318,5.4587,5.3857,5.3126,5.2049,5.1279,5.0625,4.9586,4.9433,4.8663,4.774,4.674,4.6167,4.5753,4.5185,4.4599,4.4117,4.3881,4.3594,4.3178,4.2386,4.1603,4.0426,3.932,3.858,3.857,3.7945,3.686,3.5768,3.4967,3.3877,3.216,3.0251,2.8363,2.6634,2.4719,2.2573,2.1171,1.9836,1.9187,1.9422,1.8388,1.6768,1.5158,1.3709,1.4055,1.4282,1.2484,1.0798,0.9362,0.816,0.8048,0.8024,0.8038,0.8038,0.8038,0.8038,0.8038,0.8038,0.8038,0.8038,0.8052,0.8174,0.8336,0.8465,0.8594,0.8743,0.8933,0.9171,0.9306,0.9361,0.9449,0.9551,0.9666,0.9788,0.9842,5.7498,5.7997,5.7997,5.7997,5.7997,5.7997,5.7997,5.7997,5.7997,5.7997,5.7997,5.7997,5.8097,5.8282,5.8545,5.9065,5.9526,5.9946,6.0338,6.0622,6.0781,6.0781,6.0781,6.0781,6.0781,6.0781,6.0781,6.0781,6.0781,6.0589,6.0435,5.9742,5.8511,5.8396,5.8742,5.7896,5.6588,5.5895,5.5626,5.5088,5.4203,5.3549,5.2587,5.1702,5.0971,5.0317,4.9779,4.9586,4.9202,4.8163,4.7183,4.657,4.6125,4.5605,4.4814,4.4428,4.4087,4.3912,4.3557,4.2995,4.2262,4.1171,4.0231,3.9968,3.9733,3.8531,3.7406,3.6288,3.4993,3.3496,3.1862,2.9776,2.8017,2.6448,2.3293,2.1149,2.0621,1.9588,1.9063,1.8776,1.7533,1.6461,1.4632,1.324,1.3348,1.3395,1.2126,1.0644,0.9545,0.8557,0.7902,0.7977,0.8038,0.8038,0.8038,0.8038,0.8038,0.8038,0.8038,0.8038,0.8079,0.818,0.8262,0.837,0.8513,0.8682,0.8852,0.9028,0.9137,0.9218,0.9381,0.9591,0.9557,0.9686,0.9829,5.795,5.7997,5.7997,5.7997,5.7997,5.7997,5.7997,5.7997,5.7997,5.8042,5.8051,5.8088,5.8326,5.8632,5.8835,5.9319,5.9885,6.0132,6.043,6.0734,6.0781,6.0781,6.0781,6.0781,6.0781,6.0781,6.0781,6.0819,6.0819,6.0458,6.0127,5.9447,5.841,5.7846,5.9149,5.7857,5.6588,5.5818,5.5742,5.4857,5.3895,5.3356,5.2395,5.1433,5.0818,5.0279,4.9971,5.0125,4.974,4.874,4.8202,4.7587,4.6935,4.5952,4.5246,4.4966,4.4401,4.4087,4.3906,4.314,4.2501,4.1853,4.0989,4.0839,4.0747,3.9692,3.8118,3.6812,3.5811,3.4111,3.2029,2.9719,2.8051,2.5836,2.2677,2.0683,2.0183,1.9277,1.8645,1.8259,1.7329,1.607,1.4154,1.2789,1.2781,1.2361,1.1478,1.049,0.9595,0.8649,0.7918,0.7963,0.8038,0.8038,0.8038,0.8038,0.8038,0.8038,0.8038,0.8038,0.8038,0.8085,0.8174,0.8275,0.8397,0.8554,0.8703,0.8852,0.8974,0.913,0.949,0.9666,0.9598,0.9605,0.9774,5.7997,5.7997,5.7997,5.7997,5.7997,5.7997,5.7997,5.7997,5.8006,5.8186,5.8418,5.8461,5.8716,5.9102,5.9458,5.9792,6.0074,6.0508,6.0734,6.0757,6.0781,6.0781,6.0781,6.0781,6.0781,6.0781,6.0819,6.0858,6.0935,6.0512,6.0249,5.9641,5.8192,5.7425,5.7426,5.6973,5.6835,5.6165,5.5818,5.528,5.4262,5.3472,5.2587,5.1433,5.0933,5.051,5.0202,5.0587,5.024,4.9586,4.9279,4.8471,4.7663,4.6647,4.5878,4.5371,4.4713,4.4482,4.4087,4.3456,4.2995,4.2462,4.1895,4.1429,4.1091,3.9708,3.8403,3.711,3.59,3.4023,3.1784,2.9696,2.7794,2.557,2.299,2.125,2.0183,1.8885,1.8037,1.7831,1.7179,1.5981,1.4347,1.2652,1.2305,1.1688,1.073,1.0612,0.9949,0.8699,0.7733,0.7929,0.8038,0.8038,0.8038,0.8038,0.8038,0.8038,0.8038,0.8038,0.8038,0.8038,0.8113,0.8228,0.8316,0.8418,0.8615,0.8791,0.8886,0.9083,0.9354,0.9551,0.9517,0.9591,0.9781,5.7997,5.7997,5.7997,5.7997,5.7997,5.7997,5.7997,5.8042,5.8186,5.8418,5.8673,5.8874,5.9176,5.9625,5.9916,6.0283,6.0338,6.0622,6.0781,6.0781,6.0781,6.0781,6.0781,6.0781,6.0781,6.0819,6.0858,6.0935,6.0973,6.0781,6.0094,5.8983,5.7881,5.7053,5.6704,5.6747,5.6691,5.6106,5.5758,5.5016,5.4111,5.3241,5.2356,5.151,5.101,5.0664,5.0664,5.0702,5.0702,5.0471,4.9933,4.9048,4.8202,4.7337,4.6436,4.5629,4.5115,4.4825,4.429,4.3881,4.349,4.3211,4.2508,4.1807,4.111,3.9852,3.8239,3.6842,3.5559,3.3853,3.1855,2.978,2.7977,2.58,2.3533,2.1782,2.0719,1.9573,1.8549,1.8192,1.7724,1.6422,1.4715,1.3064,1.1784,1.0964,1.0078,1.0066,0.9962,0.8682,0.757,0.7647,0.7912,0.8038,0.8038,0.8038,0.8038,0.8038,0.8038,0.8038,0.8038,0.8045,0.8113,0.8174,0.8262,0.8384,0.8581,0.8737,0.8832,0.892,0.9069,0.9239,0.9361,0.9544,0.9734,5.7997,5.7997,5.7997,5.7997,5.7997,5.7997,5.796,5.8051,5.8503,5.8713,5.8796,5.9284,5.9696,6.0036,6.0161,6.0365,6.0647,6.0757,6.0781,6.0781,6.0781,6.0781,6.0781,6.0781,6.0819,6.0858,6.0896,6.0896,6.092,6.0132,5.9134,5.818,5.7264,5.6729,5.6563,5.6475,5.6397,5.6163,5.553,5.4699,5.38,5.2897,5.2107,5.1471,5.1164,5.1048,5.101,5.0933,5.0818,5.0529,5.0067,4.9182,4.8335,4.7545,4.6642,4.584,4.5301,4.4919,4.4612,4.4233,4.3937,4.3684,4.3141,4.2193,4.1199,4.0223,3.8684,3.6962,3.5577,3.3856,3.2015,3.0448,2.8884,2.6493,2.4026,2.2724,2.1791,2.0741,1.9681,1.9127,1.8846,1.7511,1.5193,1.3343,1.1447,1.0466,0.9596,0.8828,0.8609,0.8015,0.7158,0.726,0.7602,0.7925,0.8038,0.8038,0.8038,0.8038,0.8038,0.8038,0.8038,0.8038,0.8072,0.8126,0.8208,0.8316,0.8411,0.8581,0.8771,0.8852,0.8886,0.9076,0.9252,0.9442,0.9605,5.7997,5.7997,5.7997,5.7997,5.7997,5.7997,5.815,5.8466,5.8673,5.9028,5.9728,5.9855,6.0161,6.0559,6.0584,6.071,6.0757,6.0781,6.0781,6.0781,6.0781,6.0781,6.0781,6.0781,6.0858,6.092,6.0958,6.0811,6.0228,5.9375,5.8594,5.7867,5.6992,5.668,5.6562,5.6523,5.6484,5.6211,5.5508,5.4648,5.3906,5.3243,5.2464,5.2011,5.2087,5.1972,5.1587,5.1548,5.1356,5.0741,5.0645,5.001,4.9086,4.8297,4.7373,4.5799,4.5321,4.5011,4.4872,4.4373,4.4028,4.4004,4.349,4.2734,4.1795,4.0633,3.9186,3.738,3.5916,3.4499,3.2754,3.1102,2.9103,2.6673,2.449,2.3204,2.2372,2.1642,2.0618,1.9944,1.9656,1.7743,1.5417,1.3171,1.1338,1.0153,0.9055,0.8005,0.7562,0.7126,0.702,0.712,0.7479,0.7918,0.8038,0.8038,0.8038,0.8038,0.8038,0.8038,0.8038,0.8038,0.8038,0.8079,0.816,0.816,0.8147,0.8343,0.856,0.8642,0.8696,0.892,0.9137,0.9083,0.8889,5.7997,5.7997,5.7997,5.7997,5.8042,5.8194,5.8586,5.8913,5.899,5.9424,6.0074,6.0311,6.0572,6.0734,6.0757,6.0781,6.0781,6.0781,6.0781,6.0781,6.0781,6.0781,6.0781,6.0819,6.0858,6.0943,6.0959,6.0829,5.9916,5.8711,5.7851,5.7305,5.6758,5.668,5.6601,5.6601,5.6601,5.625,5.5703,5.4961,5.4375,5.3828,5.321,5.2955,5.3205,5.2779,5.2241,5.2241,5.1972,5.1318,5.1299,5.0683,4.9356,4.8105,4.7027,4.5607,4.5457,4.5323,4.5201,4.4638,4.4346,4.4125,4.3754,4.2794,4.1928,4.0922,3.919,3.7478,3.6539,3.5411,3.3573,3.1635,2.9126,2.662,2.5135,2.3618,2.2958,2.2327,2.1626,2.0892,1.953,1.7658,1.5458,1.3216,1.1141,0.9635,0.8122,0.6635,0.6624,0.691,0.7057,0.7253,0.7647,0.8038,0.8038,0.8038,0.8038,0.8038,0.8038,0.8038,0.8038,0.8038,0.8038,0.8065,0.8113,0.8099,0.8079,0.8153,0.8309,0.8397,0.8513,0.8689,0.8575,0.8225,0.791,5.7997,5.7997,5.7997,5.8015,5.8113,5.8471,5.899,5.9424,5.9458,5.976,6.0227,6.0622,6.0757,6.0781,6.0781,6.0781,6.0781,6.0781,6.0781,6.0781,6.0781,6.0781,6.0819,6.0819,6.0781,6.0941,6.0847,6.0455,5.9646,5.8437,5.7226,5.664,5.664,5.6601,5.6601,5.6601,5.6601,5.6445,5.5976,5.5351,5.4922,5.4375,5.3844,5.3739,5.3648,5.3358,5.2838,5.2741,5.2895,5.2279,5.1761,5.1106,4.9144,4.7394,4.624,4.5663,4.555,4.555,4.5323,4.4858,4.4612,4.429,4.3875,4.2713,4.1779,4.1232,3.966,3.8043,3.7029,3.5789,3.4069,3.265,3.0509,2.7931,2.5952,2.449,2.3509,2.2936,2.2342,2.1509,2.0183,1.8267,1.5983,1.3675,1.1192,0.9418,0.7651,0.5996,0.6028,0.6762,0.6913,0.7208,0.7641,0.7925,0.8038,0.8038,0.8038,0.8038,0.8038,0.8038,0.8038,0.8038,0.8038,0.8058,0.8079,0.8065,0.8065,0.8119,0.8167,0.8235,0.835,0.8465,0.8126,0.7476,0.6734,5.7997,5.7997,5.7997,5.819,5.8502,5.8684,5.9176,5.9916,5.9916,6.0189,6.0597,6.0734,6.0781,6.0781,6.0781,6.0781,6.0781,6.0781,6.0781,6.0742,6.0742,6.0704,6.0742,6.0666,6.0612,6.0381,6.019,5.9765,5.8711,5.7617,5.6914,5.664,5.6601,5.6601,5.6601,5.6601,5.6601,5.6562,5.6367,5.582,5.5312,5.5078,5.475,5.4851,5.485,5.4663,5.4265,5.4049,5.3318,5.2395,5.2125,5.0798,4.8682,4.7278,4.6317,4.5778,4.5586,4.5586,4.5438,4.5055,4.4751,4.4438,4.3849,4.259,4.1735,4.1332,4.0361,3.8787,3.7397,3.6113,3.4704,3.34,3.177,2.9154,2.6659,2.5384,2.4105,2.3501,2.2936,2.1957,2.0831,1.8849,1.6551,1.4078,1.1589,0.9544,0.7724,0.6512,0.6602,0.6936,0.6679,0.7007,0.7654,0.7912,0.7925,0.8038,0.8038,0.8038,0.8038,0.8038,0.8038,0.8038,0.8038,0.8038,0.8045,0.8038,0.8038,0.8052,0.8092,0.814,0.7808,0.7723,0.7217,0.6542,0.5695,5.7997,5.7997,5.7997,5.8285,5.8648,5.8911,5.9446,6.0036,6.0311,6.0533,6.0757,6.0781,6.0781,6.0781,6.0781,6.0781,6.0781,6.0781,6.0781,6.0742,6.0473,6.0512,6.0473,6.0265,6.0094,5.9824,5.9269,5.8594,5.7773,5.7109,5.664,5.6601,5.6601,5.6601,5.6601,5.6601,5.6601,5.6601,5.6601,5.6289,5.582,5.5742,5.5742,5.5898,5.5859,5.5664,5.5326,5.4972,5.4241,5.2721,5.1759,5.0317,4.8451,4.7027,4.6201,4.5778,4.5586,4.5586,4.5438,4.518,4.4825,4.4599,4.4346,4.3312,4.2119,4.1576,4.0377,3.8915,3.8441,3.7277,3.526,3.3775,3.1546,2.9014,2.7047,2.5465,2.4226,2.3271,2.3044,2.2678,2.1273,1.9465,1.7166,1.4741,1.2204,0.9729,0.7957,0.7094,0.7133,0.7183,0.6853,0.6951,0.7561,0.7865,0.7932,0.8038,0.8038,0.8038,0.8038,0.8038,0.8038,0.8038,0.8038,0.8038,0.8038,0.8038,0.8038,0.8038,0.8038,0.8079,0.744,0.6907,0.6198,0.5465,0.4405,5.7886,5.7997,5.8033,5.8401,5.8823,5.9311,5.9756,6.0217,6.0622,6.0781,6.0781,6.0781,6.0781,6.0781,6.0781,6.0781,6.0781,6.0781,6.0781,6.0358,5.9896,5.9858,5.9665,5.9342,5.9297,5.8954,5.8348,5.8008,5.7539,5.6953,5.6601,5.6601,5.6601,5.6601,5.6601,5.6601,5.6601,5.6601,5.6601,5.6601,5.6562,5.6601,5.6523,5.6484,5.6406,5.6015,5.5707,5.5344,5.5017,5.3282,5.1198,4.9428,4.8094,4.675,4.618,4.568,4.5586,4.5586,4.5494,4.5263,4.5115,4.4966,4.4776,4.3954,4.2707,4.1534,4.0314,3.9338,3.8891,3.7571,3.5613,3.3911,3.159,2.9091,2.728,2.5602,2.4372,2.3245,2.315,2.3115,2.1854,2.0051,1.7726,1.5303,1.2809,1.0284,0.8783,0.8023,0.7416,0.7332,0.7204,0.7289,0.767,0.7959,0.7977,0.8018,0.8011,0.8038,0.8038,0.8038,0.8038,0.8038,0.8038,0.8038,0.8038,0.7939,0.8038,0.8038,0.8038,0.7733,0.6971,0.6134,0.5348,0.4393,0.3067,5.7409,5.8033,5.841,5.8825,5.9317,5.9741,6.0237,6.0622,6.0695,6.0781,6.0666,6.0742,6.0781,6.0781,6.0781,6.0742,6.0589,6.0627,6.0204,5.9742,5.9358,5.9204,5.9027,5.8781,5.8503,5.8047,5.75,5.7031,5.7109,5.6797,5.6601,5.6601,5.6601,5.6601,5.6601,5.6601,5.6601,5.6601,5.6601,5.6601,5.6601,5.6601,5.6601,5.6562,5.6445,5.6328,5.6046,5.5449,5.4691,5.3127,5.0814,4.8798,4.7522,4.6563,4.5982,4.5757,4.568,4.5642,4.5514,4.5341,4.526,4.5159,4.4767,4.3932,4.2784,4.1791,4.054,3.9138,3.8293,3.6739,3.5039,3.4197,3.2276,2.947,2.725,2.5793,2.4425,2.3754,2.3305,2.3245,2.2774,2.0669,1.8302,1.5809,1.3245,1.1039,0.9311,0.8569,0.8655,0.8175,0.7555,0.7721,0.7978,0.7882,0.795,0.7963,0.797,0.8011,0.8038,0.8038,0.8038,0.8038,0.8038,0.8038,0.7939,0.7939,0.7939,0.7739,0.7129,0.6731,0.6126,0.5381,0.449,0.3422,0.2077]},{"header":{"parameterUnit":"m.s-1","parameterCategory":1,"la1":31.0,"la2":29.5877,"lo1":-88.7671,"lo2":-86.6584,"dx":0.0162,"dy":0.0185,"nx":115,"ny":88,"refTime":"2023-02-05T06:00:00:Z","depth":0,"parameterNumber":3,"parameterNumberName":"V-component_of_WINDS"},"data":[0.0,0.0,0.0,0.0,0.0,0.0,0.0,0.0,0.0,0.0,0.0,0.0,0.0,0.0,0.0,0.0,0.0,0.0,0.0,0.0,0.0,0.0,0.0,0.0,0.0,0.0,0.0,0.0,0.0,0.0,0.0,0.0,0.0,0.0,0.0,0.0,0.0,0.0,0.0,0.0,0.0,0.0,0.0,0.0,0.0,0.0,0.0,0.0,0.0,0.0,0.0,0.0,0.0,0.0,0.0,0.0,0.0,0.0,0.0,0.0,0.0,0.0,0.0,0.0,0.0,0.0,0.0,0.0,0.0,0.0,0.0,0.0,0.0,0.0,0.0,0.0,0.0,0.0,0.0,0.0,0.0,0.0,0.0,0.0,0.0,0.0,0.0,0.0,0.0,0.0,0.0,0.0,0.0,0.0,0.0,0.0,0.0,0.0,0.0,0.0,0.0,0.0,0.0,0.0,0.0,0.0,0.0,0.0,0.0,0.0,0.0,0.0,0.0,0.0,0.0,0.0,0.0,0.0,0.0,0.0,0.0,0.0,0.0,0.0,0.0,0.0,0.0,0.0,0.0,0.0,0.0,0.0,0.0,0.0,0.0,0.0,0.0,0.0,0.0,0.0,0.0,0.0,0.0,0.0,0.0,0.0,0.0,0.0,0.0,0.0,0.0,0.0,0.0,0.0,0.0,0.0,0.0,0.0,0.0,0.0,0.0,0.0,0.0,0.0,0.0,0.0,0.0,0.0,0.0,0.0,0.0,0.0,0.0,0.0,0.0,0.0,0.0,0.0,0.0,0.0,0.0,0.0,0.0,0.0,0.0,0.0,0.0,0.0,0.0,0.0,0.0,0.0,0.0,0.0,0.0,0.0,0.0,0.0,0.0,0.0,0.0,0.0,0.0,0.0,0.0,0.0,0.0,0.0,0.0,0.0,0.0,0.0,0.0,0.0,0.0,0.0,0.0,0.0,0.0,0.0,0.0,0.0,0.0,0.0,0.0,0.0,0.0,0.0,0.0,0.0,0.0,0.0,0.0,0.0,0.0,0.0,0.0,0.0,0.0,0.0,0.0,0.0,0.0,0.0,0.0,0.0,0.0,0.0,0.0,0.0,0.0,0.0,0.0,0.0,0.0,0.0,0.0,0.0,0.0,0.0,0.0,0.0,0.0,0.0,0.0,0.0,0.0,0.0,0.0,0.0,0.0,0.0,0.0,0.0,0.0,0.0,0.0,0.0,0.0,0.0,0.0,0.0,0.0,0.0,0.0,0.0,0.0,0.0,0.0,0.0,0.0,0.0,0.0,0.0,0.0,0.0,0.0,0.0,0.0,0.0,0.0,0.0,0.0,0.0,0.0,0.0,0.0,0.0,0.0,0.0,0.0,0.0,0.0,0.0,0.0,0.0,0.0,0.0,0.0,0.0,0.0,0.0,0.0,0.0,0.0,0.0,0.0,0.0,0.0,0.0,0.0,0.0,0.0,0.0,0.0,0.0,0.0,0.0,0.0,0.0,0.0,0.0,0.0,0.0,0.0,0.0,0.0,0.0,0.0,0.0,0.0,0.0,0.0,0.0,0.0,0.0,0.0,0.0,0.0,0.0,0.0,0.0,0.0,0.0,0.0,0.0,0.0,0.0,0.0,0.0,0.0,0.0,0.0,0.0,0.0,0.0,0.0,0.0,0.0,0.0,0.0,0.0,0.0,0.0,0.0,0.0,0.0,0.0,0.0,0.0,0.0,0.0,0.0,0.0,0.0,0.0,0.0,0.0,0.0,0.0,0.0,0.0,0.0,0.0,0.0,0.0,0.0,0.0,0.0,0.0,0.0,0.0,0.0,0.0,0.0,0.0,0.0,0.0,0.0,0.0,0.0,0.0,0.0,0.0,0.0,0.0,0.0,0.0,0.0,0.0,0.0,0.0,0.0,0.0,0.0,0.0,0.0,0.0,0.0,0.0,0.0,0.0,0.0,0.0,0.0,0.0,0.0,0.0,0.0,0.0,0.0,0.0,0.0,0.0,0.0,0.0,0.0,0.0,0.0,0.0,0.0,0.0,0.0,0.0,0.0,0.0,0.0,0.0,0.0,0.0,0.0,0.0,0.0,0.0,0.0,0.0,0.0,0.0,0.0,0.0,0.0,0.0,0.0,0.0,0.0,0.0,0.0,0.0,0.0,0.0,0.0,0.0,0.0,0.0,0.0,0.0,0.0,0.0,0.0,0.0,0.0,0.0,0.0,0.0,0.0,0.0,0.0,0.0,0.0,0.0,0.0,0.0,0.0,0.0,0.0,0.0,0.0,0.0,0.0,0.0,0.0,0.0,0.0,0.0,0.0,0.0,0.0,0.0,0.0,0.0,0.0,0.0,0.0,0.0,0.0,0.0,0.0,0.0,0.0,0.0,0.0,0.0,0.0,0.0,0.0,0.0,0.0,0.0,0.0,0.0,0.0,0.0,0.0,0.0,0.0,0.0,0.0,0.0,0.0,0.0,0.0,0.0,0.0,0.0,0.0,0.0,0.0,0.0,0.0,0.0,0.0,0.0,0.0,0.0,0.0,0.0,0.0,0.0,0.0,0.0,0.0,0.0,0.0,0.0,0.0,0.0,0.0,0.0,0.0,0.0,0.0,0.0,0.0,0.0,0.0,0.0,0.0,0.0,0.0,0.0,0.0,0.0,0.0,0.0,0.0,0.0,0.0,0.0,0.0,0.0,0.0,0.0,0.0,0.0,0.0,0.0,0.0,0.0,0.0,0.0,0.0,0.0,0.0,0.0,0.0,0.0,0.0,0.0,0.0,0.0,0.0,0.0,0.0,0.0,0.0,0.0,0.0,0.0,0.0,0.0,0.0,0.0,0.0,0.0,0.0,0.0,0.0,0.0,0.0,0.0,0.0,0.0,0.0,0.0,0.0,0.0,0.0,0.0,0.0,0.0,0.0,0.0,0.0,0.0,0.0,0.0,0.0,0.0,0.0,0.0,0.0,0.0,0.0,0.0,0.0,0.0,0.0,0.0,0.0,0.0,0.0,0.0,0.0,0.0,0.0,0.0,0.0,0.0,0.0,0.0,0.0,0.0,0.0,0.0,0.0,0.0,0.0,0.0,0.0,0.0,0.0,0.0,0.0,0.0,0.0,0.0,0.0,0.0,0.0,0.0,0.0,0.0,0.0,0.0,0.0,0.0,0.0,0.0,0.0,0.0,0.0,0.0,0.0,0.0,0.0,0.0,0.0,0.0,0.0,0.0,0.0,0.0,0.0,0.0,0.0,0.0,0.0,0.0,0.0,0.0,0.0,0.0,0.0,0.0,0.0,0.0,0.0,0.0,0.0,0.0,0.0,0.0,0.0,0.0,0.0,0.0,0.0,0.0,0.0,0.0,0.0,0.0,0.0,0.0,0.0,0.0,0.0,0.0,0.0,0.0,0.0,0.0,0.0,0.0,0.0,0.0,0.0,0.0,0.0,0.0,0.0,0.0,0.0,0.0,0.0,0.0,0.0,0.0,0.0,0.0,0.0,0.0,0.0,0.0,0.0,0.0,0.0,0.0,0.0,0.0,0.0,0.0,0.0,0.0,0.0,0.0,0.0,0.0,0.0,0.0,0.0,0.0,0.0,0.0,0.0,0.0,0.0,0.0,0.0,0.0,0.0,0.0,0.0,0.0,0.0,0.0,0.0,0.0,0.0,0.0,0.0,0.0,0.0,0.0,0.0,0.0,0.0,0.0,0.0,0.0,0.0,0.0,0.0,0.0,0.0,0.0,0.0,0.0,0.0,0.0,0.0,0.0,0.0,0.0,0.0,0.0,0.0,0.0,0.0,0.0,0.0,0.0,0.0,0.0,0.0,0.0,0.0,0.0,0.0,0.0,0.0,0.0,0.0,0.0,0.0,0.0,0.0,0.0,0.0,0.0,0.0,0.0,0.0,0.0,0.0,0.0,0.0,0.0,0.0,0.0,0.0,0.0,0.0,0.0,0.0,0.0,0.0,0.0,0.0,0.0,0.0,0.0,0.0,0.0,0.0,0.0,0.0,0.0,0.0,0.0,0.0,0.0,0.0,0.0,0.0,0.0,0.0,0.0,0.0,0.0,0.0,0.0,0.0,0.0,0.0,0.0,0.0,0.0,0.0,0.0,0.0,0.0,0.0,0.0,0.0,0.0,0.0,0.0,0.0,0.0,0.0,0.0,0.0,0.0,0.0,0.0,0.0,0.0,0.0,0.0,0.0,0.0,0.0,0.0,0.0,0.0,0.0,0.0,0.0,0.0,0.0,0.0,0.0,0.0,0.0,0.0,0.4329,0.0,0.0,0.0,0.0,0.0,0.0,0.0,0.0,0.0,0.0,0.0,0.0,0.0,0.0,0.0,0.0,0.0,0.0,0.0,0.0,0.0,0.0,0.0,0.0,0.0,0.0,0.0,0.0,0.0,0.0,0.0,0.0,0.0,0.0,0.0,0.0,0.0,0.0,0.0,0.0,0.0,0.0,0.0,0.0,0.0,0.0,0.0,0.0,0.0,0.0,0.0,0.0,0.0,0.0,0.0,0.0,0.0,0.0,0.0,0.0,0.0,0.0,0.0,0.0,0.0,0.0,0.0,0.0,0.0,0.0,0.0,0.0,0.0,0.0,0.0,0.0,0.0,0.0,0.0,0.0,0.0,0.0,0.0,0.0,0.0,0.0,0.0,0.0,0.0,0.0,0.0,0.0,0.0,0.0,0.0,0.0,0.0,0.0,0.0,0.0,0.0,0.0,0.0,0.0,0.0,0.0,0.0,0.0,0.0,0.0,0.5412,0.5608,0.5354,0.5252,0.5395,0.0,0.0,0.0,0.0,0.0,0.0,0.0,0.0,0.0,0.0,0.0,0.0,0.0,0.0,0.0,0.0,0.0,0.0,0.0,0.0,0.0,0.0,0.0,0.0,0.0,0.0,0.0,0.0,0.0,0.0,0.0,0.0,0.0,0.0,0.0,0.0,0.0,0.0,0.0,0.0,0.0,0.0,0.0,0.0,0.0,0.0,0.0,0.0,0.0,0.0,0.0,0.0,0.0,0.0,0.0,0.0,0.0,0.0,0.0,0.0,0.0,0.0,0.0,0.0,0.0,0.0,0.0,0.0,0.0,0.0,0.0,0.0,0.0,0.0,0.0,0.0,0.0,0.0,0.0,0.0,0.0,0.0,0.0,0.0,0.0,0.0,0.0,0.0,0.0,0.0,0.0,0.0,0.0,0.0,0.0,0.0,0.0,0.0,0.0,0.0,0.0,0.0,0.0,0.0,0.0,0.0,0.0,0.0,0.0,0.0,0.0,0.0,0.5852,0.6021,0.6465,0.0,0.0,0.0,0.0,0.0,0.0,0.0,0.0,0.0,0.0,0.0,0.0,0.0,0.0,0.0,0.0,0.0,0.0,0.0,0.0,0.0,0.0,0.0,0.0,0.0,0.0,0.0,0.0,0.0,0.0,0.0,0.0,0.0,0.0,0.0,0.0,0.0,0.0,0.0,0.0,0.0,0.0,0.0,0.0,0.0,0.0,0.0,0.0,0.0,0.0,0.0,0.0,0.0,0.0,0.0,0.0,0.0,0.0,0.0,0.0,0.0,0.0,0.0,0.0,0.0,0.0,0.0,0.0,0.0,0.0,0.0,0.0,0.0,0.0,0.0,0.0,0.0,0.0,0.0,0.0,0.0,0.0,0.0,0.0,0.0,0.0,0.0,0.0,0.0,0.0,0.0,0.0,0.0,0.0,0.0,0.0,0.0,0.0,0.0,0.0,0.0,0.0,0.0,0.0,0.0,0.0,0.0,0.0,0.0,0.0,0.6613,0.6894,0.7121,0.0,0.7352,0.0,0.0,0.0,0.0,0.0,0.0,0.0,0.0,0.0,0.0,0.0,0.0,0.0,0.0,0.0,0.0,0.0,0.0,0.0,0.0,0.0,0.0,0.0,0.0,0.0,0.0,0.0,0.0,0.0,0.0,0.0,0.0,0.0,0.0,0.0,0.0,0.0,0.0,0.0,0.0,0.0,0.0,0.0,0.0,0.0,0.0,0.0,0.0,0.0,0.0,0.0,0.0,0.0,0.0,0.0,0.0,0.0,0.0,0.0,0.0,0.0,0.0,0.0,0.0,0.0,0.0,0.0,0.0,0.0,0.0,0.0,0.0,0.0,0.0,0.0,0.0,0.0,0.0,0.0,0.0,0.0,0.0,0.0,0.0,0.0,0.0,0.0,0.0,0.0,0.0,0.0,0.0,0.0,0.0,0.0,0.0,0.0,0.0,0.0,0.0,0.0,0.0,0.0,0.0,0.0,0.0,0.0,0.0,0.0,0.0,0.6734,0.6972,0.7308,0.7419,0.0,0.0,0.0,0.0,0.0,0.0,0.0,0.0,0.0,0.0,0.0,0.0,0.0,0.0,0.0,0.0,0.0,0.0,0.0,0.0,0.0,0.0,0.0,0.0,0.0,0.0,0.0,0.0,0.0,0.0,0.0,0.0,0.0,0.0,0.0,0.0,0.0,0.0,0.0,0.0,0.0,0.0,0.0,0.0,0.0,0.0,0.0,0.0,0.0,0.0,0.0,0.0,0.0,0.0,0.0,0.0,0.0,0.0,0.0,0.0,0.0,0.0,0.0,0.0,0.0,0.0,0.0,0.0,0.0,0.0,0.0,0.0,0.0,0.0,0.0,0.0,0.0,0.0,0.0,0.0,0.0,0.0,0.0,0.0,0.0,0.0,0.0,0.0,0.0,0.0,0.0,0.0,0.0,0.0,0.0,0.0,0.0,0.0,0.0,0.0,0.0,0.0,0.0,0.0,0.0,0.0,0.0,0.0,0.0,0.0,0.6814,0.6974,0.7255,0.7321,0.7281,0.7148,0.0,0.0,0.0,0.0,0.0,0.0,0.0,0.0,0.0,0.0,0.0,0.0,0.0,0.0,0.0,0.0,0.0,0.0,0.0,0.0,0.0,0.0,0.0,0.0,0.0,0.0,0.0,0.0,0.0,0.0,0.0,0.0,0.0,0.0,0.0,0.0,0.0,0.0,0.0,0.0,0.0,0.0,0.0,0.0,0.0,0.0,0.0,0.0,0.0,0.0,0.0,0.0,0.0,0.0,0.0,0.0,0.0,0.0,0.0,0.0,0.0,0.0,0.0,0.0,0.0,0.0,0.0,0.0,0.0,0.0,0.0,0.0,0.0,0.0,0.0,0.0,0.0,0.0,0.0,0.0,0.0,0.0,0.0,0.0,0.0,0.0,0.0,0.0,0.0,0.0,0.0,0.0,0.0,0.0,0.0,0.0,0.0,0.0,0.0,0.0,0.0,0.0,0.0,0.0,0.0,0.0,0.0,0.0,0.7776,0.7562,0.7575,0.7809,0.7291,0.7174,0.0,0.0,0.0,0.0,0.0,0.0,0.0,0.0,0.0,0.0,0.0,0.0,0.0,0.0,0.0,0.0,0.0,0.0,0.0,0.0,0.0,0.0,0.0,0.0,0.0,0.0,0.0,0.0,0.0,0.0,0.0,0.0,0.0,0.0,0.0,0.0,0.0,0.0,0.0,0.0,0.0,0.0,0.0,0.0,0.0,0.0,0.0,0.0,0.0,0.0,0.0,0.0,0.0,0.0,0.0,0.0,0.0,0.0,0.0,0.0,0.0,0.0,0.0,0.0,0.0,0.0,0.0,0.0,0.0,0.0,0.0,0.0,0.0,0.0,0.0,0.0,0.0,0.0,0.0,0.0,0.0,0.0,0.0,0.0,0.0,0.0,0.0,0.0,0.0,0.0,0.0,0.0,0.0,0.0,0.0,0.0,0.0,0.0,0.0,0.0,0.0,0.0,0.0,0.0,0.0,0.0,0.0,0.0,0.0,0.7291,0.7415,0.7661,0.7862,0.7522,0.7538,0.0,0.0,0.0,0.0,0.0,0.0,0.0,0.0,0.0,0.0,0.0,0.0,0.0,0.0,0.0,0.0,0.0,0.0,0.0,0.0,0.0,0.0,0.0,0.0,0.0,0.0,0.0,0.0,0.0,0.0,0.0,0.0,0.0,0.0,0.0,0.0,0.0,0.0,0.0,0.0,0.0,0.0,0.0,0.0,0.0,0.0,0.0,0.0,0.0,0.0,0.0,0.0,0.0,0.0,0.0,0.0,0.0,0.0,0.0,0.0,0.0,0.0,0.0,0.0,0.0,0.0,0.0,0.0,0.0,0.0,0.0,0.0,0.0,0.0,0.0,0.0,0.0,0.0,0.0,0.0,0.0,0.0,0.0,0.0,0.0,0.0,0.0,0.0,0.0,0.0,0.0,0.0,0.0,0.0,0.0,0.0,0.0,0.0,0.0,0.0,0.0,0.0,0.0,0.0,0.0,0.0,0.0,0.0,0.0,0.7174,0.0,0.7869,0.7776,0.7669,0.7792,0.0,0.0,0.0,0.0,0.0,0.0,0.0,0.0,0.0,0.0,0.0,0.0,0.0,0.0,0.0,0.0,0.0,0.0,0.0,0.0,0.0,0.0,0.0,0.0,0.0,0.0,0.0,0.0,0.0,0.0,0.0,0.0,0.0,0.0,0.0,0.0,0.0,0.0,0.0,0.0,0.0,0.0,0.0,0.0,0.0,0.0,0.0,0.0,0.0,0.0,0.0,0.0,0.0,0.0,0.0,0.0,0.0,0.0,0.0,0.0,0.0,0.0,0.0,0.0,0.0,0.0,0.0,0.0,0.0,0.0,0.0,0.0,0.0,0.0,0.0,0.0,0.0,0.0,0.0,0.0,0.0,0.0,0.0,0.0,0.0,0.0,0.0,0.0,0.0,0.0,0.0,0.0,0.0,0.0,0.0,0.0,0.0,0.0,0.0,0.0,0.0,0.0,0.0,0.0,0.0,0.0,0.0,0.0,0.7145,0.7527,0.8297,0.8323,0.758,0.7762,0.7916,0.0,0.0,0.0,0.0,0.0,0.0,0.0,0.0,0.0,0.0,0.0,0.0,0.0,0.0,0.0,0.0,0.0,0.0,0.0,0.0,0.0,0.0,0.0,0.0,0.0,0.0,0.0,0.0,0.0,0.0,0.0,0.0,0.0,0.0,0.0,0.0,0.0,0.0,0.0,0.0,0.0,0.0,0.0,0.0,0.0,0.0,0.0,0.0,0.0,0.0,0.0,0.0,0.0,0.0,0.0,0.0,0.0,0.0,0.0,0.0,0.0,0.0,0.0,0.0,0.0,0.0,0.0,0.0,0.0,0.0,0.0,0.0,0.0,0.0,0.0,0.0,0.0,0.0,0.0,0.0,0.0,0.0,0.0,0.0,0.0,0.0,0.0,0.0,0.0,0.0,0.0,0.0,0.0,0.0,0.0,0.0,0.0,0.0,0.0,0.0,0.0,0.0,0.0,0.0,0.0,0.0,0.0,0.0,0.0,0.7742,0.7856,0.8136,0.8631,0.7789,0.8042,0.0,0.0,0.0,0.0,0.0,0.0,0.0,0.0,0.0,0.0,0.0,0.0,0.0,0.0,0.0,0.0,0.0,0.0,0.0,0.0,0.0,0.0,0.0,0.0,0.0,0.0,0.0,0.0,0.0,0.0,0.0,0.0,0.0,0.0,0.0,0.0,0.0,0.0,0.0,0.0,0.0,0.0,0.0,0.0,0.0,0.0,0.0,0.0,0.0,0.0,0.0,0.0,0.0,0.0,0.0,0.0,0.0,0.0,0.0,0.0,0.0,0.0,0.0,0.0,0.0,0.0,0.0,0.0,0.0,0.0,0.0,0.0,0.0,0.0,0.0,0.0,0.0,0.0,0.0,0.0,0.0,0.0,0.0,0.0,0.0,0.0,0.0,0.0,0.0,0.0,0.0,0.0,0.0,0.0,0.0,0.0,0.0,0.0,0.0,0.0,0.0,0.0,0.0,0.0,0.0,0.0,0.0,0.0,0.0,0.7896,0.796,0.8163,0.8564,0.7896,0.8211,0.9643,0.0,0.0,0.0,0.0,0.0,0.0,0.0,0.0,0.0,0.0,0.0,0.0,0.0,0.0,0.0,0.0,0.0,0.0,0.0,0.0,0.0,0.0,0.0,0.0,0.0,0.0,0.0,0.0,0.0,0.0,0.0,0.0,0.0,0.0,0.0,0.0,0.0,0.0,0.0,0.0,0.0,0.0,0.0,0.0,0.0,0.0,0.0,0.0,0.0,0.0,0.0,0.0,0.0,0.0,0.0,0.0,0.0,0.0,0.0,0.0,0.0,0.0,0.0,0.0,0.0,0.0,0.0,0.0,0.0,0.0,0.0,0.0,0.0,0.0,0.0,0.0,0.0,0.0,0.0,0.0,0.0,0.0,0.0,0.0,0.0,0.0,0.0,0.0,0.0,0.0,0.0,0.0,0.0,0.0,0.0,0.0,0.0,0.0,0.0,0.0,0.0,0.0,0.0,0.0,0.0,0.0,0.0,0.0,0.7836,0.8526,0.8497,0.7742,0.8172,0.8414,0.0,0.0,0.0,0.0,0.0,0.0,0.0,0.0,0.0,0.0,0.0,0.0,0.0,0.0,0.0,0.0,0.0,0.0,0.0,0.0,0.0,0.0,0.0,0.0,0.0,0.0,0.0,0.0,0.0,0.0,0.0,0.0,0.0,0.0,0.0,0.0,0.0,0.0,0.0,0.0,0.0,0.0,0.0,0.0,0.0,0.0,0.0,0.0,0.0,0.0,0.0,0.0,0.0,0.0,0.0,0.0,0.0,0.0,0.0,0.0,0.0,0.0,0.0,0.0,0.0,0.0,0.0,0.0,0.0,0.0,0.0,0.0,0.0,0.0,0.0,0.0,0.0,0.0,0.0,0.0,0.0,0.0,0.0,0.0,0.0,0.0,0.0,0.0,0.0,0.0,0.0,0.0,0.0,0.0,0.0,0.0,0.0,0.0,0.0,0.0,0.0,0.0,0.0,0.0,0.0,0.0,0.0,0.0,0.0,0.7511,0.8965,0.9659,0.9419,0.8738,0.8853,0.0,0.0,0.0,0.0,0.0,0.0,0.0,0.0,0.0,0.0,0.0,0.0,0.0,0.0,0.0,0.0,0.0,0.0,0.0,0.0,0.0,0.0,0.0,0.0,0.0,0.0,0.0,0.0,0.0,0.0,0.0,0.0,0.0,0.0,0.0,0.0,0.0,0.0,0.0,0.0,0.0,0.0,0.0,0.0,0.0,0.0,0.0,0.0,0.0,0.0,0.0,0.0,0.0,0.0,0.0,0.0,0.0,0.0,0.0,0.0,0.0,0.0,0.0,0.0,0.0,0.0,0.0,0.0,0.0,0.0,0.0,0.0,0.0,0.0,0.0,0.0,0.0,0.0,0.0,0.0,0.0,0.0,0.0,0.0,0.0,0.0,0.0,0.0,0.0,0.0,0.0,0.0,0.0,0.0,0.0,0.0,0.0,0.0,0.0,0.0,0.0,0.0,0.0,0.0,0.0,0.0,0.0,0.0,0.7855,0.813,0.9678,1.0488,1.0488,0.9713,0.9521,0.0,0.0,0.0,0.0,0.0,0.0,0.0,0.0,0.0,0.0,0.0,0.0,0.0,0.0,0.0,0.0,0.0,0.0,0.0,0.0,0.0,0.0,0.0,0.0,0.0,0.0,0.0,0.0,0.0,0.0,0.0,0.0,0.0,0.0,0.0,0.0,0.0,0.0,0.0,0.0,0.0,0.0,0.0,0.0,0.0,0.0,0.0,0.0,0.0,0.0,0.0,0.0,0.0,0.0,0.0,0.0,0.0,0.0,0.0,0.0,0.0,0.0,0.0,0.0,0.0,0.0,0.0,0.0,0.0,0.0,0.0,0.0,0.0,0.0,0.0,0.0,0.0,0.0,0.0,0.0,0.0,0.0,0.0,0.0,0.0,0.0,0.0,0.0,0.0,0.0,0.0,0.0,0.0,0.0,0.0,0.0,0.0,0.0,0.0,0.0,0.0,0.0,0.0,0.0,0.0,0.0,0.0,0.0,0.8872,0.9346,1.0497,1.1062,1.0982,1.0688,1.0214,0.0,0.0,0.0,0.0,0.0,0.0,0.0,0.0,0.0,0.0,0.0,0.0,0.0,0.0,0.0,0.0,0.0,0.0,0.0,0.0,0.0,0.0,0.0,0.0,0.0,0.0,0.0,0.0,0.0,0.0,0.0,0.0,0.0,0.0,0.0,0.0,0.0,0.0,0.0,0.0,0.0,0.0,0.0,0.0,0.0,0.0,0.0,0.0,0.0,0.0,0.0,0.0,0.0,0.0,0.0,0.0,0.0,0.0,0.0,0.0,0.0,0.0,0.0,0.0,0.0,0.0,0.0,0.0,0.0,0.0,0.0,0.0,0.0,0.0,0.0,0.0,0.0,0.0,0.0,0.0,0.0,0.0,0.0,0.0,0.0,0.0,0.0,0.0,0.0,0.0,0.0,0.0,0.0,0.0,0.0,0.0,0.0,0.0,0.0,0.0,0.0,0.0,0.0,0.0,0.0,0.0,0.0,0.0,0.8957,0.9617,1.0979,1.1463,1.0995,1.0488,1.02,0.0,0.0,0.0,0.0,0.0,0.0,0.0,0.0,0.0,0.0,0.0,0.0,0.0,0.0,0.0,0.0,0.0,0.0,0.0,0.0,0.0,0.0,0.0,0.0,0.0,0.0,0.0,0.0,0.0,0.0,0.0,0.0,0.0,0.0,0.0,0.0,0.0,0.0,0.0,0.0,0.0,0.0,0.0,0.0,0.0,0.0,0.0,0.0,1.9726,0.0,0.0,0.0,0.0,0.0,0.0,0.0,0.0,0.0,0.0,0.0,0.0,0.0,0.0,0.0,0.0,0.0,0.0,0.0,0.0,0.0,0.0,0.0,0.0,0.0,0.0,0.0,0.0,0.0,0.0,0.0,0.0,0.0,0.0,0.0,0.0,0.0,0.0,0.0,0.0,0.0,0.0,0.0,0.0,0.0,0.0,0.0,0.0,0.0,0.0,0.0,0.0,0.0,0.0,0.0,0.0,0.0,0.0,0.0,0.9665,1.029,1.0912,1.1282,1.1396,1.0238,0.9834,0.0,0.0,0.0,0.0,0.0,0.0,0.0,0.0,0.0,0.0,0.0,0.0,0.0,0.0,0.0,0.0,0.0,0.0,0.0,0.0,0.0,0.0,0.0,0.0,0.0,0.0,0.0,0.0,0.0,0.0,0.0,0.0,0.0,0.0,0.0,0.0,0.0,0.0,0.0,0.0,0.0,0.0,0.0,0.0,0.0,0.0,0.0,0.0,0.0,0.0,0.0,0.0,0.0,0.0,0.0,0.0,0.0,0.0,0.0,0.0,0.0,0.0,0.0,0.0,0.0,0.0,0.0,0.0,0.0,0.0,0.0,0.0,0.0,0.0,0.0,0.0,0.0,0.0,0.0,0.0,0.0,0.0,0.0,0.0,0.0,0.0,0.0,0.0,0.0,0.0,0.0,0.0,0.0,0.0,0.0,0.0,0.0,0.0,0.0,0.0,0.0,0.0,0.0,0.0,0.0,0.0,0.0,0.9543,1.0425,1.0836,1.0796,1.1031,1.1637,1.0171,0.958,1.0231,0.0,0.0,0.0,0.0,0.0,0.0,0.0,0.0,0.0,0.0,0.0,0.0,0.0,0.0,0.0,0.0,0.0,0.0,0.0,0.0,0.0,0.0,0.0,0.0,0.0,0.0,0.0,0.0,0.0,0.0,0.0,0.0,0.0,0.0,0.0,0.0,0.0,0.0,1.7847,2.0319,0.0,0.0,0.0,0.0,0.0,0.0,0.0,0.0,2.3549,0.0,0.0,0.0,0.0,0.0,0.0,0.0,0.0,0.0,0.0,0.0,0.0,0.0,0.0,0.0,0.0,0.0,0.0,0.0,0.0,0.0,0.0,0.0,0.0,0.0,0.0,0.0,0.0,0.0,0.0,0.0,0.0,0.0,0.0,0.0,0.0,0.0,0.0,0.0,0.0,0.0,0.0,0.0,0.0,0.0,0.0,0.0,0.0,0.0,0.0,0.0,0.0,0.0,0.0,0.0,0.0,0.886,0.9929,1.0483,1.0479,1.1458,1.1595,1.0695,1.0628,1.0494,1.0159,0.0,0.0,0.0,0.0,0.0,0.0,0.0,0.0,0.0,0.0,0.0,0.0,0.0,0.0,0.0,0.0,0.0,0.0,0.0,0.0,0.0,0.0,0.0,0.0,0.0,0.0,0.0,0.0,0.0,0.0,0.0,0.0,0.0,0.0,0.0,0.0,0.0,0.0,0.0,2.1889,2.3187,0.0,0.0,0.0,0.0,0.0,0.0,0.0,0.0,2.5316,0.0,0.0,0.0,0.0,0.0,0.0,0.0,0.0,0.0,0.0,0.0,0.0,0.0,0.0,0.0,0.0,0.0,0.0,0.0,0.0,0.0,0.0,0.0,0.0,0.0,0.0,0.0,0.0,0.0,0.0,0.0,0.0,0.0,0.0,0.0,0.0,0.0,0.0,0.0,0.0,0.0,0.0,0.0,0.0,0.0,0.0,0.0,0.0,0.0,0.0,0.0,0.0,0.0,0.0,0.0,0.8967,1.0225,1.0994,1.1326,1.1091,1.1163,1.1539,0.992,0.9376,0.0,0.0,0.0,0.0,0.0,0.0,0.0,0.0,0.0,0.0,0.0,0.0,0.0,0.0,0.0,0.0,0.0,0.0,0.0,0.0,0.0,0.0,0.0,0.0,0.0,0.0,0.0,0.0,0.0,0.0,0.0,0.0,0.0,0.0,0.0,0.0,0.0,0.0,0.0,0.0,2.2435,2.3737,2.2468,0.0,0.0,0.0,0.0,0.0,0.0,2.4601,2.7801,0.0,0.0,0.0,0.0,0.0,0.0,0.0,0.0,0.0,0.0,0.0,0.0,0.0,0.0,0.0,0.0,0.0,0.0,0.0,0.0,0.0,0.0,0.0,0.0,0.0,0.0,0.0,0.0,0.0,0.0,0.0,0.0,0.0,0.0,0.0,0.0,0.0,0.0,0.0,0.0,0.0,0.0,0.0,0.0,0.0,0.0,0.0,0.0,0.0,0.0,0.0,0.0,0.0,0.0,0.0,0.8877,1.0379,1.1461,1.1896,1.09,1.1004,1.2322,0.9479,0.8713,0.0,0.0,0.0,0.0,0.0,0.0,0.0,0.0,0.0,0.0,0.0,0.0,0.0,0.0,0.0,0.0,0.0,0.0,0.0,0.0,0.0,0.0,0.0,0.0,0.0,0.0,0.0,0.0,0.0,0.0,0.0,0.0,0.0,0.0,0.0,0.0,0.0,0.0,0.0,0.0,0.0,2.4264,2.2618,2.4078,0.0,0.0,0.0,0.0,2.1697,2.7137,0.0,0.0,0.0,0.0,0.0,0.0,0.0,0.0,0.0,0.0,0.0,0.0,0.0,0.0,0.0,0.0,0.0,0.0,0.0,0.0,0.0,0.0,0.0,0.0,0.0,0.0,0.0,0.0,0.0,0.0,0.0,0.0,0.0,0.0,0.0,0.0,0.0,0.0,0.0,0.0,0.0,0.0,0.0,0.0,0.0,0.0,0.0,0.0,0.0,0.0,0.0,0.0,0.0,0.0,0.0,0.0,0.857,1.0635,1.1501,1.1081,1.198,1.1993,1.1055,1.0698,1.0574,0.0,0.0,0.0,0.0,0.0,0.0,0.0,0.0,0.0,0.0,0.0,0.0,0.0,0.0,0.0,0.0,0.0,0.0,0.0,0.0,0.0,0.0,0.0,0.0,0.0,0.0,0.0,0.0,0.0,0.0,0.0,0.0,0.0,0.0,0.0,0.0,0.0,0.0,0.0,0.0,0.0,2.511,2.2959,2.4844,2.6219,0.0,0.0,0.0,2.4099,3.0553,0.0,0.0,0.0,0.0,0.0,0.0,0.0,0.0,0.0,0.0,0.0,0.0,0.0,0.0,0.0,0.0,0.0,0.0,0.0,0.0,0.0,0.0,0.0,0.0,0.0,0.0,0.0,0.0,0.0,0.0,0.0,0.0,0.0,0.0,0.0,0.0,0.0,0.0,0.0,0.0,0.0,0.0,0.0,0.0,0.0,0.0,0.0,0.0,0.0,0.0,0.0,0.0,0.0,0.0,0.0,0.881,0.9271,1.1006,1.1933,1.1916,1.2144,1.1991,1.1626,1.038,0.9933,0.0,0.0,0.0,0.0,0.0,0.0,0.0,0.0,0.0,0.0,0.0,0.0,0.0,0.0,0.0,0.0,0.0,0.0,0.0,0.0,0.0,0.0,0.0,0.0,0.0,0.0,0.0,0.0,0.0,0.0,0.0,0.0,0.0,0.0,0.0,0.0,0.0,0.0,0.0,0.0,0.0,0.0,2.5046,2.7061,0.0,0.0,0.0,2.7844,3.0169,0.0,0.0,0.0,0.0,0.0,0.0,0.0,0.0,0.0,0.0,0.0,0.0,0.0,0.0,0.0,0.0,0.0,0.0,0.0,0.0,0.0,0.0,0.0,0.0,0.0,0.0,0.0,0.0,0.0,0.0,0.0,0.0,0.0,0.0,0.0,0.0,0.0,0.0,0.0,0.0,0.0,0.0,0.0,0.0,0.0,0.0,0.0,0.0,0.0,0.0,0.0,0.0,0.0,0.0,0.0,0.0,0.0,0.9898,1.0994,1.1857,1.2337,1.1976,1.1824,1.1951,1.0171,0.0,0.0,0.0,0.0,0.0,0.0,0.0,0.0,0.0,0.0,0.0,0.0,0.0,0.0,0.0,0.0,0.0,0.0,0.0,0.0,0.0,0.0,0.0,0.0,0.0,0.0,0.0,1.6522,0.0,0.0,0.0,0.0,0.0,0.0,0.0,0.0,0.0,0.0,0.0,0.0,0.0,0.0,2.6829,2.7093,2.9403,3.1336,0.0,0.0,3.1706,3.5119,3.5634,3.6046,0.0,0.0,0.0,0.0,0.0,0.0,0.0,0.0,0.0,0.0,0.0,0.0,0.0,0.0,0.0,0.0,0.0,0.0,0.0,0.0,0.0,0.0,0.0,0.0,0.0,0.0,0.0,0.0,0.0,0.0,0.0,0.0,0.0,0.0,0.0,0.0,0.0,0.0,0.0,0.0,0.0,0.0,0.0,0.0,0.0,0.0,0.0,0.0,0.0,0.0,0.0,0.0,0.0,0.0,0.0,0.991,1.0384,1.0825,1.1105,1.1583,1.1595,1.1082,1.0918,1.0863,0.0,0.0,0.0,0.0,0.0,0.0,0.0,0.0,0.0,0.0,0.0,0.0,0.0,0.0,0.0,0.0,0.0,0.0,0.0,0.0,0.0,0.0,0.0,0.0,0.0,0.0,0.0,0.0,0.0,0.0,0.0,0.0,0.0,0.0,0.0,0.0,0.0,0.0,0.0,0.0,0.0,2.8445,2.8224,3.1496,3.4202,0.0,0.0,3.5295,3.6897,3.9077,3.9129,3.4871,0.0,0.0,0.0,0.0,0.0,0.0,0.0,0.0,0.0,0.0,0.0,0.0,0.0,0.0,0.0,0.0,0.0,0.0,0.0,0.0,0.0,0.0,0.0,0.0,0.0,0.0,0.0,0.0,0.0,0.0,0.0,0.0,0.0,0.0,0.0,0.0,0.0,0.0,0.0,0.0,0.0,0.0,0.0,0.0,0.0,0.0,0.0,0.0,0.0,0.0,0.0,0.0,0.0,1.003,0.9249,1.0121,1.0461,1.0296,1.1351,1.1548,1.0808,1.1102,1.1089,0.0,0.0,0.0,0.0,0.0,0.0,0.0,0.0,0.0,0.0,0.0,0.0,0.0,0.0,0.0,0.0,0.0,0.0,0.0,0.0,0.0,0.0,0.0,0.0,0.0,0.0,0.0,0.0,1.6447,1.6876,1.7997,0.0,0.0,0.0,0.0,0.0,0.0,0.0,0.0,0.0,0.0,2.9962,3.2315,3.4357,0.0,0.0,3.7326,3.7578,4.0635,4.0255,3.9019,3.711,3.6369,0.0,0.0,0.0,0.0,0.0,0.0,0.0,0.0,0.0,0.0,0.0,0.0,0.0,0.0,0.0,0.0,0.0,0.0,0.0,0.0,0.0,0.0,0.0,0.0,0.0,0.0,0.0,0.0,0.0,0.0,0.0,0.0,0.0,0.0,0.0,0.0,0.0,0.0,0.0,0.0,0.0,0.0,0.0,0.0,0.0,0.0,0.0,0.0,0.0,0.0,0.0,0.0,0.9916,0.9155,0.9616,0.9751,0.9876,1.0929,1.1328,1.0889,1.1331,1.1289,0.0,0.0,0.0,0.0,0.0,0.0,0.0,0.0,0.0,0.0,0.0,0.0,0.0,0.0,0.0,0.0,0.0,0.0,0.0,0.0,0.0,0.0,0.0,0.0,0.0,0.0,0.0,0.0,1.7161,1.7517,1.8248,0.0,0.0,0.0,0.0,0.0,0.0,0.0,0.0,0.0,0.0,3.1556,3.4886,3.6521,3.8188,4.0383,3.9554,3.9805,4.3025,4.1332,3.9276,3.8138,0.0,0.0,0.0,0.0,0.0,0.0,0.0,0.0,0.0,0.0,0.0,0.0,0.0,0.0,0.0,0.0,0.0,0.0,0.0,0.0,0.0,0.0,0.0,0.0,0.0,0.0,0.0,0.0,0.0,0.0,0.0,0.0,0.0,0.0,0.0,0.0,0.0,0.0,0.0,0.0,0.0,0.0,0.0,0.0,0.0,0.0,0.0,0.0,0.0,0.0,0.0,0.0,0.0,0.0,1.0047,0.8702,0.8711,1.0095,1.0484,1.0974,1.1467,1.1713,1.1583,1.0995,0.0,0.0,0.0,0.0,0.0,0.0,0.0,0.0,0.0,0.0,0.0,0.0,0.0,0.0,0.0,0.0,0.0,0.0,0.0,0.0,0.0,0.0,0.0,0.0,0.0,0.0,1.8125,1.8616,1.8853,0.0,0.0,0.0,0.0,0.0,0.0,0.0,0.0,0.0,0.0,3.0369,3.3192,3.5088,3.7672,3.9846,4.1175,4.1611,4.2213,4.3314,4.2506,4.0561,0.0,0.0,0.0,0.0,0.0,0.0,0.0,0.0,0.0,0.0,0.0,0.0,0.0,0.0,0.0,0.0,0.0,0.0,0.0,0.0,0.0,0.0,0.0,0.0,0.0,0.0,0.0,0.0,0.0,0.0,0.0,0.0,0.0,0.0,0.0,0.0,0.0,0.0,0.0,0.0,1.0555,1.0555,0.0,0.0,0.0,0.0,0.0,0.0,0.0,0.0,0.0,0.0,0.0,0.0,1.0275,0.9829,0.9932,1.0059,1.0474,1.1262,1.1747,1.1735,1.2261,1.1975,1.0742,0.0,0.0,0.0,0.0,0.0,0.0,0.0,0.0,0.0,0.0,0.0,0.0,0.0,0.0,0.0,0.0,0.0,0.0,0.0,0.0,0.0,0.0,0.0,0.0,0.0,1.8143,0.0,0.0,0.0,0.0,0.0,0.0,0.0,0.0,0.0,0.0,0.0,2.7913,2.9246,3.2007,3.4551,3.6373,3.8726,4.0721,0.0,0.0,0.0,0.0,0.0,0.0,0.0,0.0,0.0,0.0,0.0,0.0,0.0,0.0,4.4892,4.1699,4.0671,4.0211,3.9949,0.0,0.0,0.0,0.0,0.0,0.0,0.0,0.0,0.0,0.0,0.0,0.0,0.0,0.0,0.0,0.0,1.3931,0.0,0.0,0.0,0.0,0.0,0.0,0.0,0.0,1.0327,1.0621,1.0995,1.1089,1.1089,0.0,1.1303,1.1249,0.0,0.0,0.0,0.0,0.0,0.0,0.0,0.0,1.0587,1.0033,1.0526,1.0909,1.1177,1.1895,1.2373,1.2453,1.2466,1.1921,1.0658,1.0255,1.0682,0.0,0.0,0.0,0.0,0.0,0.0,0.0,0.0,0.0,0.0,0.0,0.0,0.0,0.0,0.0,0.0,0.0,0.0,0.0,0.0,0.0,0.0,0.0,1.913,0.0,0.0,0.0,0.0,0.0,0.0,0.0,0.0,0.0,2.7976,2.8597,2.9685,3.1351,3.344,3.5559,3.7771,0.0,0.0,0.0,0.0,0.0,0.0,0.0,4.1392,4.4424,4.5365,4.579,4.596,4.7327,4.8359,4.8231,0.0,0.0,4.3862,4.2506,4.2001,4.2232,4.3834,4.4747,4.3324,4.3505,4.398,0.0,0.0,0.0,0.0,0.0,0.0,0.0,0.0,1.3077,1.3496,0.0,0.0,0.0,0.0,0.0,0.0,0.0,0.0,0.0,0.0,1.0782,1.1035,1.1089,1.1369,1.1343,0.0,1.1904,1.2011,1.145,1.0902,0.0,0.0,0.0,0.0,0.0,0.0,1.0807,1.0726,1.0616,1.1164,1.2357,1.2431,1.2734,1.3546,1.2518,1.1516,1.0725,1.0658,1.1229,1.2572,1.2374,0.0,0.0,0.0,0.0,0.0,0.0,0.0,0.0,0.0,0.0,0.0,0.0,0.0,0.0,0.0,0.0,0.0,0.0,0.0,0.0,2.0037,0.0,0.0,0.0,0.0,0.0,0.0,0.0,0.0,0.0,0.0,2.9293,3.0054,3.1414,3.3627,0.0,0.0,0.0,0.0,4.0853,4.2182,4.302,4.3901,4.4856,4.4158,4.4469,4.7222,0.0,0.0,4.9504,4.9741,4.9679,4.9262,4.9284,4.867,4.75,4.5222,4.4121,4.559,4.7241,4.7792,4.6434,4.614,4.625,1.9322,0.0,0.0,0.0,0.0,1.4881,1.4854,1.5156,1.5213,1.5293,1.5488,1.5059,0.0,0.0,0.0,0.0,0.0,0.0,1.0969,1.1383,1.1757,1.2037,1.2325,1.2559,1.2545,1.2338,1.258,1.2425,1.2051,1.1891,1.185,1.1904,0.0,0.0,0.0,0.0,1.2144,1.2763,1.3155,1.3597,1.4242,1.396,1.3796,1.3654,1.2893,1.2257,1.1585,1.1089,1.1482,1.2816,1.2821,0.0,0.0,0.0,0.0,0.0,0.0,0.0,0.0,0.0,0.0,0.0,0.0,0.0,0.0,0.0,0.0,0.0,0.0,0.0,2.0765,2.0769,2.074,0.0,0.0,0.0,0.0,0.0,0.0,0.0,0.0,0.0,3.3462,3.3927,3.4703,0.0,0.0,3.8809,3.9983,4.0708,4.1615,4.2986,0.0,0.0,0.0,4.4672,4.6252,4.931,5.0087,5.0939,5.2809,5.3328,5.3498,5.331,5.2827,5.2084,5.1009,4.7831,4.5993,4.7352,4.9848,5.0986,4.9114,4.9407,5.0215,2.2061,1.9436,1.6687,1.5833,1.6394,1.6796,1.6739,1.6328,1.6328,1.6523,1.6816,1.6387,1.5969,1.5487,1.3576,0.0,0.0,0.0,1.177,1.2238,1.2639,1.3053,1.3454,1.3761,1.3748,1.3467,1.3655,1.3414,1.3013,1.3013,1.3013,1.2959,0.0,0.0,1.2305,1.2652,1.3106,1.3641,1.4335,1.479,1.495,1.4669,1.4295,1.3828,1.3347,1.2759,1.2078,1.2054,1.2513,1.3391,1.3342,1.4134,0.0,0.0,0.0,0.0,0.0,0.0,0.0,0.0,0.0,0.0,0.0,1.8547,0.0,0.0,0.0,0.0,2.1292,2.1493,2.1493,2.1393,0.0,0.0,0.0,0.0,0.0,0.0,0.0,2.772,3.0259,3.3606,3.75,3.7868,3.8,3.8789,3.9447,4.0231,4.1178,0.0,4.2704,4.3793,4.4672,4.5076,4.4819,4.5682,4.7575,5.1118,5.25,5.3453,5.4699,5.5068,5.5069,5.5015,5.451,5.3933,5.3447,5.0824,4.893,4.9664,5.1573,5.2601,5.1279,5.205,5.2968,2.5019,2.3652,2.0009,1.8172,1.7883,1.9003,1.8537,1.7051,1.6986,1.7461,1.8105,1.7715,1.7225,1.6576,1.4439,0.0,0.0,1.2144,1.2585,1.2983,1.3454,1.4015,1.4549,1.483,1.4816,1.4549,1.483,1.4683,1.4162,1.4148,1.4148,1.4095,1.3026,1.2465,1.2492,1.3293,1.3639,1.3761,1.4603,1.503,1.499,1.4736,1.4442,1.4122,1.3814,1.316,1.2425,1.3185,1.3792,1.4098,1.4053,1.4641,1.6072,0.0,0.0,0.0,0.0,0.0,0.0,0.0,0.0,0.0,0.0,0.0,0.0,0.0,0.0,0.0,2.1518,0.0,2.1619,2.2128,0.0,0.0,0.0,2.717,2.8487,2.9981,3.1074,3.1566,0.0,0.0,0.0,0.0,4.1058,4.0922,4.0773,4.1179,4.277,4.336,4.3975,4.4819,4.5516,4.614,4.6654,4.7266,4.8996,5.2713,5.4626,5.5434,5.5626,5.5384,5.5186,5.5186,5.4819,5.4547,5.4547,5.3682,5.3056,5.2173,5.2826,5.3408,5.3151,5.3849,5.462,2.614,2.5874,2.5648,2.3717,2.0707,2.1063,2.0635,1.9742,1.9648,1.959,1.9434,1.9023,1.7651,1.5525,1.5225,1.4245,1.2799,1.316,1.3601,1.4095,1.4242,1.4509,1.4856,1.4937,1.4923,1.487,1.4937,1.4897,1.4763,1.475,1.4643,1.4416,1.4122,1.3881,1.3681,1.4095,1.4416,1.4643,1.5284,1.5511,1.5297,1.5231,1.4937,1.4429,1.3908,1.344,1.3013,1.3429,1.3899,1.4375,1.5063,1.5946,1.6986,1.709,0.0,0.0,0.0,0.0,0.0,0.0,0.0,0.0,0.0,2.0222,1.9739,0.0,2.2573,0.0,2.1719,2.182,2.2673,2.3412,0.0,0.0,2.7144,2.9134,3.0021,3.2273,3.3161,3.1758,3.4622,3.8343,4.2557,4.2959,4.2885,4.285,4.3286,4.398,4.5004,4.5224,4.5626,4.6324,4.6507,4.6838,4.7831,4.9608,5.1668,5.4655,5.4934,5.4972,5.5588,5.5621,5.5554,5.5554,5.5212,5.496,5.4933,5.4547,5.4081,5.3683,5.4337,5.462,5.3518,5.4766,5.6161,2.7252,2.7377,2.8387,2.6611,2.2955,2.259,2.1903,2.1152,2.1152,2.1016,2.0762,2.0332,1.8785,1.647,1.6591,1.5522,1.3897,1.4095,1.4482,1.4897,1.491,1.507,1.5351,1.5351,1.5351,1.5351,1.5351,1.5351,1.5351,1.5351,1.5271,1.511,1.511,1.5017,1.487,1.4763,1.487,1.5164,1.5591,1.5752,1.5591,1.5337,1.511,1.4897,1.4082,1.3574,1.34,1.417,1.4728,1.5089,1.6043,1.6893,1.7637,1.748,1.748,0.0,0.0,0.0,0.0,0.0,0.0,0.0,0.0,0.0,0.0,0.0,2.3045,0.0,0.0,0.0,2.4356,2.4865,2.563,2.7003,2.9131,3.0945,3.2269,3.4313,3.53,3.4493,3.6865,3.9923,4.303,4.3497,4.3497,4.3497,4.4195,4.4856,4.5296,4.5626,4.6177,4.6948,4.7278,4.7609,4.8233,5.0047,5.2422,5.4946,5.5011,5.478,5.5549,5.5703,5.5703,5.5682,5.5375,5.5107,5.5069,5.5107,5.4848,5.433,5.4897,5.5388,5.5025,5.5655,5.6325,2.7763,2.7938,2.8607,2.7352,2.4724,2.3576,2.2717,2.2051,2.2051,2.2051,2.2031,2.1641,2.0182,1.8196,1.8077,1.6799,1.4656,1.4937,1.5231,1.5498,1.5511,1.5645,1.5885,1.5925,1.5925,1.5885,1.5885,1.5885,1.5885,1.5845,1.5832,1.5832,1.5832,1.5832,1.5805,1.5324,1.5204,1.5444,1.5738,1.5885,1.5872,1.5391,1.5204,1.5284,1.4269,1.3641,1.352,1.4714,1.5487,1.5746,1.6725,1.7484,1.7969,1.7523,1.7348,0.0,1.8085,0.0,0.0,0.0,0.0,0.0,0.0,0.0,0.0,2.2518,2.352,2.5219,2.5034,2.5192,2.5994,2.6259,2.7262,2.957,3.1116,3.2819,3.4874,3.629,3.737,3.8111,3.9161,4.0815,4.31,4.3497,4.3497,4.3534,4.4195,4.4782,4.4966,4.5626,4.6397,4.7094,4.7829,4.8233,4.8421,4.9683,5.1682,5.428,5.4741,5.4741,5.5395,5.5626,5.5703,5.5682,5.5375,5.5107,5.5069,5.5287,5.5122,5.4284,5.4798,5.5549,5.5998,5.6021,5.5923,2.5964,2.6625,2.5019,2.4534,2.466,2.3551,2.3043,2.291,2.291,2.2891,2.2891,2.2812,2.1336,1.8962,1.9067,1.7779,1.5257,1.5538,1.5818,1.6112,1.6112,1.6139,1.6192,1.6433,1.642,1.6206,1.6192,1.6192,1.6179,1.5939,1.5832,1.5832,1.5832,1.5832,0.0,0.0,0.0,0.0,1.6032,1.6192,1.6179,1.6086,1.5712,1.5057,1.4376,0.0,1.3024,1.3681,1.448,1.527,1.6262,0.0,0.0,0.0,0.0,0.0,0.0,0.0,0.0,0.0,0.0,0.0,2.1882,2.2592,2.3203,2.3928,2.4688,2.531,2.5034,2.5192,2.6021,2.7162,2.8729,3.0938,3.2952,3.4984,3.7096,3.807,3.8873,3.958,4.0674,4.1895,4.321,4.3497,4.3497,4.3534,4.4195,4.4929,4.559,4.6324,4.7168,4.7939,4.8196,4.8306,4.8306,4.97,5.0933,5.1741,5.3395,5.4434,5.478,5.5318,5.5703,5.5682,5.5336,5.5069,5.5042,5.4693,5.435,5.4387,5.435,5.4262,5.401,5.5094,5.5919,2.5402,0.0,2.3881,2.3573,0.0,0.0,2.3604,2.3457,2.3242,2.3144,2.3144,2.3144,2.1655,1.9322,1.9414,1.8118,1.5618,1.5912,1.6126,1.6273,1.642,1.6486,1.6486,1.6633,1.6633,1.6486,1.6486,1.6486,1.6473,1.6339,1.6259,1.6259,1.6259,1.6259,1.6259,1.6259,1.6126,1.5832,1.5979,1.6059,1.6046,1.5912,1.5631,1.5177,0.0,0.0,0.0,0.0,0.0,0.0,0.0,0.0,0.0,0.0,0.0,1.8874,1.8705,1.8841,1.957,2.0032,2.101,2.2722,2.4484,2.5324,2.4988,2.5411,2.5711,2.5954,2.611,2.6739,2.7877,2.8781,3.0454,3.3259,3.4587,3.6097,3.8136,3.911,3.9648,4.0102,4.1101,4.2243,4.332,4.3497,4.3497,4.3534,4.4195,4.5112,4.6103,4.6728,4.7425,4.8159,4.8306,4.8604,4.9386,5.0049,5.1048,5.1856,5.301,5.4126,5.4972,5.5395,5.566,5.5423,5.508,5.476,5.4446,5.3977,5.3644,5.3833,5.3941,5.4013,5.387,5.4688,5.5394,2.5186,2.5098,2.373,2.3409,2.3906,2.4405,2.4366,2.3867,0.0,0.0,0.0,2.3242,2.1913,1.977,1.9678,1.8302,1.6005,1.6233,1.638,1.6433,1.6673,1.678,1.678,1.6847,1.6834,1.678,1.678,1.678,1.678,1.674,1.67,1.67,1.67,1.67,1.67,1.67,1.646,1.6005,1.6032,1.6032,1.5979,1.5752,1.5551,1.5404,1.4643,1.4188,1.4082,1.4398,1.5151,1.6521,1.697,1.7943,1.9487,1.9125,1.9084,1.9629,1.979,2.0004,2.0254,2.12,2.2638,2.4559,2.6845,2.7695,2.6716,2.6785,2.6785,2.6735,2.7488,2.8638,2.9997,3.0477,3.2018,3.5331,3.5841,3.6771,3.8672,3.9648,4.0054,4.0204,4.1174,4.2302,4.3321,4.3497,4.3497,4.3608,4.4342,4.5406,4.6654,4.7242,4.7609,4.8159,4.8306,4.8744,4.9872,5.0563,5.1201,5.2099,5.2752,5.3618,5.4732,5.5362,5.5336,5.508,5.4671,5.4288,5.3869,5.3604,5.3277,5.3188,5.3643,5.4118,5.442,5.4554,5.478,2.45,2.448,2.3461,2.3591,2.4336,2.5197,2.5065,2.4258,2.3477,2.334,2.3691,2.3691,2.2483,2.0421,2.0421,1.8977,1.658,1.662,1.678,0.0,1.7061,1.7088,1.7101,1.7341,1.7328,1.7101,1.7088,1.7088,1.7061,1.6834,1.67,1.6714,1.67,1.6714,1.67,1.67,1.666,1.6593,1.6834,1.6847,1.6593,1.6553,1.6152,1.5431,1.5044,1.4603,1.4108,1.4169,1.4503,1.5313,1.5412,1.6426,1.8344,1.7768,1.8326,2.0642,2.0259,2.0367,2.1562,2.2592,2.4093,2.6071,2.7434,2.7896,2.754,2.7695,2.7745,2.7515,2.8516,2.9629,3.0632,3.1488,3.3026,3.5363,3.6267,3.7318,3.8839,3.9648,4.0087,4.0138,4.1394,4.2629,4.3322,4.3497,4.3497,4.3681,4.4745,4.625,4.7535,4.8122,4.8159,4.8269,4.8306,4.8383,4.8847,4.9872,5.0543,5.034,5.1789,5.2831,5.3366,5.4172,5.4693,5.4579,5.4255,5.3905,5.3796,5.3758,5.3565,5.34,5.372,5.4115,5.4516,5.4731,5.4866,2.4766,2.4766,2.4633,2.4633,2.4785,2.5258,2.5145,2.4707,2.4102,2.3945,2.4121,2.4121,2.2796,2.0666,2.057,1.9228,1.6714,1.6874,1.7021,1.7257,1.7315,1.7475,1.7622,1.7609,1.7689,1.7849,1.7716,1.7716,1.7849,1.7742,1.7675,1.7675,1.7675,1.7675,1.7662,1.7515,1.7422,1.7435,1.7088,1.6847,1.6714,1.6553,1.6206,1.5645,1.5351,1.5003,1.4576,1.4563,1.5002,1.5856,1.5926,1.6598,1.8093,1.8486,1.9135,2.042,2.0806,2.1457,2.2717,2.4618,2.6325,2.7751,2.8599,2.895,2.88,2.8348,2.8122,2.822,2.9434,3.0528,3.1308,3.2691,3.4434,3.6621,3.7253,3.8051,3.9345,3.9851,4.0087,4.0238,4.1429,4.2665,4.3393,4.3497,4.3497,4.3644,4.5111,4.6801,4.8086,4.8306,4.8306,4.8306,4.8306,4.8306,4.8344,4.8847,4.9845,5.099,5.1802,5.2646,5.3328,5.4207,5.4312,5.4153,5.3905,5.372,5.3565,5.3644,5.3758,5.3979,5.4086,5.4484,5.496,5.5262,5.5186,2.5449,2.5467,2.5622,2.5563,2.5234,2.5215,2.5273,2.5332,2.5,2.4922,2.4961,2.4707,2.3202,2.1031,2.0933,1.9514,1.7333,1.7341,1.7448,1.7475,1.7675,1.7916,1.8103,1.7903,1.8036,1.8424,1.825,1.8277,1.8464,1.849,1.849,1.849,1.849,1.849,1.849,1.8263,1.8116,1.8009,1.7435,1.7007,1.6807,1.658,1.6339,1.6032,1.5752,1.5484,1.5271,1.5204,1.5562,1.627,1.6359,1.6979,1.8278,1.9299,2.0036,2.0638,2.1625,2.2794,2.4143,2.6313,2.8082,2.905,2.9528,2.9779,2.9729,2.9001,2.8599,2.9074,3.0228,3.1227,3.2053,3.3933,3.5791,3.7348,3.8002,3.8638,3.9665,3.9952,4.0087,4.0238,4.1359,4.2553,4.3251,4.3497,4.3571,4.4011,4.5515,4.7022,4.7829,4.8159,4.8306,4.8306,4.8306,4.8306,4.8343,4.8748,4.975,5.1709,5.2019,5.2634,5.3574,5.4029,5.4048,5.372,5.3644,5.3604,5.344,5.3683,5.4048,5.4355,5.4609,5.496,5.5508,5.5621,5.5599,2.6602,2.6269,2.5855,2.5662,2.5684,2.5664,2.5879,2.6191,2.6211,2.6426,2.6423,2.5527,2.3859,2.2109,2.1936,2.0529,1.8373,1.8343,1.833,1.833,1.8397,1.8424,1.845,1.841,1.8437,1.8504,1.8477,1.8477,1.8544,1.8531,1.8504,1.849,1.849,1.8517,1.8504,1.8464,1.8317,1.8063,1.8237,1.7929,1.7168,1.7074,1.6927,1.6633,1.6339,1.6179,1.6099,1.5899,1.5618,1.5562,1.5535,1.6603,1.8637,1.9167,2.0307,2.2514,2.2901,2.3937,2.5997,2.7348,2.8591,2.9549,2.9729,2.9779,2.9779,2.9679,2.9628,2.9859,3.0839,3.1784,3.2596,3.4846,3.6483,3.6958,3.8071,3.8989,3.9242,3.9681,4.0087,4.0138,4.1174,4.2262,4.325,4.3497,4.3791,4.4378,4.5662,4.6801,4.7278,4.7939,4.8306,4.8306,4.8306,4.8306,4.8453,4.9627,5.022,5.0485,5.1491,5.2344,5.2865,5.3234,5.3314,5.3404,5.3277,5.34,5.372,5.4083,5.4387,5.4547,5.496,5.5577,5.5703,5.5703,5.5643,2.6914,2.6637,2.5958,2.571,2.572,2.5723,2.584,2.6016,2.6269,2.5963,2.533,2.5069,2.4008,2.2429,2.1581,2.0185,1.8601,1.849,1.849,1.849,1.849,1.8584,1.8718,1.8571,1.8664,1.8971,1.8838,1.8838,1.8985,1.9011,1.9011,1.9011,1.9011,1.9011,1.8998,1.8838,1.8677,1.8571,1.8517,1.8223,1.7729,1.7502,1.7261,1.6967,1.6687,1.6446,1.6286,1.6152,1.5952,1.5685,1.5658,1.6378,1.8208,1.892,2.0159,2.2013,2.4018,2.5484,2.6483,2.8131,2.9287,2.9779,2.9779,2.9779,2.9779,2.9779,2.9779,2.9934,3.0921,3.1928,3.2707,3.5045,3.6853,3.7374,3.8318,3.909,3.9648,3.9935,4.0087,4.0188,4.1139,4.2226,4.3178,4.3497,4.3828,4.4599,4.5626,4.6434,4.7021,4.7792,4.8233,4.8306,4.8306,4.8306,4.8379,4.8783,4.9701,5.0659,5.1182,5.1634,5.2739,5.3023,5.3225,5.3225,5.3225,5.3359,5.372,5.4153,5.4484,5.4671,5.5134,5.5703,5.5703,5.5703,5.5703,2.7285,2.7046,2.6385,2.6034,2.6025,2.6092,2.6094,2.6152,2.6543,2.5869,2.4535,2.4474,2.3691,2.2381,2.1106,1.9928,1.883,1.8731,1.8731,1.8731,1.8731,1.8851,1.9011,1.8838,1.8945,1.9279,1.9145,1.9158,1.9345,1.9372,1.9372,1.9372,1.9372,1.9372,1.9345,1.9145,1.8998,1.8918,1.8784,1.8557,1.8196,1.7956,1.7649,1.7288,1.6981,1.6687,1.6406,1.6313,1.6139,1.5845,1.5832,1.6386,1.7684,1.8856,2.0206,2.1836,2.4766,2.6483,2.6565,2.8554,2.9779,2.9779,2.9779,2.9779,2.9779,2.9779,2.9934,3.0292,3.1294,3.2191,3.2735,3.4842,3.6562,3.7387,3.8046,3.8731,3.9581,3.9898,4.0065,4.022,4.1286,4.2386,4.325,4.3497,4.3718,4.4268,4.5259,4.6067,4.6801,4.7609,4.8306,4.8306,4.8306,4.8306,4.8306,4.8416,4.9297,5.0582,5.1246,5.1761,5.2894,5.3151,5.3225,5.3225,5.3225,5.3481,5.3979,5.4355,5.4671,5.4876,5.5287,5.5703,5.5703,5.5703,5.5703,2.8008,2.7598,2.7187,2.689,2.6973,2.6934,2.6934,2.6894,2.7383,2.6683,2.5165,2.4234,2.2975,2.1594,2.0974,2.0372,1.9394,1.9279,1.9279,1.9279,1.9292,1.9319,1.9345,1.9332,1.9332,1.9359,1.9332,1.9345,1.9386,1.9386,1.9372,1.9372,1.9386,1.9372,1.9359,1.9332,1.9199,1.8998,1.9158,1.9038,1.8544,1.845,1.8143,1.7609,1.7288,1.6994,1.67,1.642,1.6139,1.5845,1.5832,1.6386,1.7684,1.8872,2.0584,2.2843,2.521,2.6483,2.673,2.8554,2.9779,2.9779,2.9779,2.9779,2.9779,2.9779,3.0139,3.1044,3.2046,3.2763,3.2821,3.454,3.6032,3.6717,3.6906,3.7617,3.8956,3.9603,3.989,4.0391,4.1639,4.2808,4.3391,4.3497,4.3497,4.3901,4.4929,4.5957,4.6214,4.7352,4.8159,4.8306,4.8306,4.8306,4.8306,4.8306,4.9077,5.0362,5.1389,5.2123,5.2747,5.3225,5.3225,5.3225,5.3225,5.3484,5.419,5.464,5.496,5.5212,5.5446,5.5703,5.5703,5.5703,5.5703,2.8223,2.8027,2.7474,2.7441,2.7811,2.7412,2.7153,2.6948,2.6484,2.5361,2.3996,2.2879,2.1586,2.0141,2.003,1.9699,1.9475,1.9372,1.9372,1.9372,1.9372,1.9372,1.9372,1.9372,1.9372,1.9372,1.9372,1.9466,1.9639,1.9639,1.9639,1.9639,1.9639,1.9559,1.9399,1.9372,1.9305,1.9225,1.9319,1.9172,1.8811,1.8771,1.8477,1.7903,1.7582,1.7288,1.7007,1.6714,1.642,1.6126,1.5939,1.6386,1.7684,1.9588,2.1391,2.3038,2.5231,2.6483,2.673,2.8554,2.9779,2.9779,2.9779,2.9779,2.9779,2.9779,3.0216,3.1341,3.3255,3.4109,3.3848,3.4741,3.5861,3.6515,3.6731,3.7249,3.8639,3.9478,4.0134,4.1121,4.2386,4.3286,4.3391,4.3497,4.3497,4.3644,4.4892,4.5736,4.614,4.7278,4.8306,4.8306,4.8306,4.8306,4.8306,4.8306,4.882,5.0105,5.1169,5.194,5.2637,5.3115,5.3225,5.3225,5.3225,5.3524,5.4225,5.4998,5.5262,5.5446,5.5703,5.5703,5.5703,5.5703,5.5703,2.8301,2.8242,2.7843,2.7871,2.8246,2.7845,2.7486,2.7182,2.6567,2.5147,2.3376,2.256,2.1259,1.9618,1.9466,1.9506,1.9492,1.9412,1.9372,1.9372,1.9372,1.9372,1.9386,1.9466,1.9506,1.9519,1.9613,1.976,1.992,1.9933,1.9933,1.9947,1.9853,1.9706,1.9519,1.9426,1.9372,1.9372,1.9372,1.9265,1.9078,1.8971,1.8744,1.8343,1.7943,1.7542,1.7271,1.6954,1.666,1.6313,1.6072,1.6672,1.8241,1.9844,2.148,2.3105,2.5231,2.6483,2.673,2.8554,2.9779,2.9779,2.9779,2.9779,2.9779,2.9779,3.0419,3.1829,3.3905,3.5133,3.478,3.4925,3.546,3.6115,3.5943,3.6462,3.8082,3.9146,4.0503,4.2016,4.2995,4.3426,4.3497,4.3497,4.3497,4.3497,4.4856,4.581,4.6104,4.7241,4.8306,4.8306,4.8306,4.8306,4.8306,4.8306,4.8967,5.0178,5.0765,5.161,5.2422,5.2899,5.3157,5.3151,5.34,5.372,5.4322,5.516,5.5531,5.5682,5.5703,5.5703,5.5703,5.5703,5.5703,2.8301,2.8301,2.8281,2.8242,2.8242,2.8203,2.8027,2.7773,2.7748,2.5937,2.3426,2.3357,2.1616,1.9891,1.9653,1.9786,1.976,1.9573,1.9466,1.9452,1.9439,1.9439,1.9466,1.9693,1.98,1.9813,2.0067,2.0201,2.0241,2.0227,2.0241,2.0187,1.984,1.9456,1.9654,1.9272,1.9243,1.9243,1.9243,1.9359,1.9332,1.9092,1.8931,1.8811,1.833,1.7782,1.7324,1.7154,1.6874,1.6406,1.6273,1.7332,1.8996,1.9588,2.0674,2.3018,2.5231,2.64,2.673,2.8554,2.9779,2.9779,2.9779,2.9779,2.9779,2.9779,3.0495,3.2335,3.4206,3.5424,3.5335,3.4827,3.4759,3.53,3.4739,3.4966,3.6619,3.8537,4.0587,4.2705,4.3428,4.3497,4.3497,4.3497,4.3497,4.3754,4.4856,4.5883,4.603,4.7278,4.8196,4.8306,4.8306,4.8306,4.8306,4.8416,4.9334,5.0178,5.0472,5.1063,5.2066,5.2659,5.2929,5.3003,5.3721,5.4083,5.4484,5.5237,5.5554,5.5703,5.5703,5.5703,5.5703,5.5703,5.5703,2.8301,2.8301,2.8301,2.8301,2.8301,2.8301,2.8203,2.7893,2.6118,2.4531,2.3357,2.1556,2.0382,1.9875,1.9773,1.992,2.008,2.0,1.996,1.996,1.9947,1.9947,1.9973,2.0054,2.0107,2.0107,2.0187,2.0347,2.0508,2.0535,2.0535,2.0358,1.9107,1.8385,1.82,1.7941,1.7689,1.7923,1.8881,1.9372,1.9359,1.9279,1.9132,1.8905,1.8544,1.8156,1.7782,1.7368,1.7074,1.686,1.6486,1.7266,1.9028,1.9497,2.0584,2.2931,2.5231,2.6483,2.673,2.845,2.9779,2.9779,2.9779,2.9779,2.9779,2.9779,3.0646,3.2451,3.4341,3.5489,3.531,3.4442,3.4243,3.4758,3.4501,3.4697,3.6334,3.9015,4.1304,4.2513,4.3178,4.3463,4.3497,4.3497,4.3497,4.3608,4.4856,4.581,4.6104,4.7205,4.8269,4.8306,4.8306,4.8306,4.8306,4.8306,4.8783,4.952,4.9963,5.0632,5.1634,5.2307,5.2531,5.3086,5.3778,5.4339,5.481,5.5212,5.5577,5.5703,5.5703,5.5703,5.5703,5.5703,5.5703,2.8301,2.8301,2.8301,2.7814,2.7201,2.6803,2.6624,2.6372,2.4599,2.3487,2.2605,2.1161,2.0186,1.9932,2.0027,2.0227,2.0401,2.0494,2.0561,2.0494,2.0294,2.0241,2.0254,2.0361,2.0468,2.0548,2.0561,2.0655,2.0828,2.0828,2.0579,1.9763,1.8544,1.741,1.6729,1.6901,1.6962,1.7208,1.8519,1.9372,1.9372,1.9372,1.9279,1.9065,1.8704,1.841,1.8183,1.7635,1.7261,1.7074,1.658,1.7419,1.9342,1.9671,2.0584,2.2931,2.5062,2.6483,2.673,2.8554,2.9779,2.9779,2.9779,2.9779,2.9779,2.9779,3.0545,3.2171,3.4216,3.5489,3.534,3.4562,3.403,3.4088,3.4187,3.5045,3.6597,3.8837,4.1096,4.2253,4.325,4.3426,4.3497,4.3497,4.3497,4.3681,4.4599,4.548,4.5773,4.6838,4.7498,4.7976,4.8159,4.8196,4.8306,4.8306,4.8306,4.8862,4.9379,5.0306,5.1343,5.1815,5.2098,5.2973,5.3723,5.4322,5.4814,5.5322,5.5703,5.5703,5.5703,5.5703,5.5703,5.5703,5.5703,2.834,2.832,2.8301,2.7276,2.5519,2.4149,2.3888,2.395,2.3599,2.283,2.1919,2.1568,2.0968,2.0213,2.0388,2.0615,2.0735,2.0922,2.1015,2.0895,2.0601,2.0374,2.0414,2.0601,2.0802,2.1002,2.1042,2.1069,2.1056,2.1056,2.0195,1.8812,1.7894,1.6876,1.5648,1.6144,1.6408,1.6492,1.8052,1.8765,1.901,1.9127,1.9243,1.9305,1.8798,1.8477,1.837,1.7862,1.7422,1.7128,1.662,1.7452,1.9303,1.9695,2.0584,2.295,2.5231,2.6235,2.6976,2.8554,2.9779,2.9779,2.9779,2.9779,2.9779,2.9856,3.0417,3.1891,3.3926,3.5359,3.5305,3.4801,3.4205,3.3668,3.3654,3.5086,3.7957,3.8265,3.9633,4.2258,4.3286,4.3497,4.3497,4.3497,4.3497,4.3644,4.4268,4.4745,4.5149,4.603,4.6838,4.7278,4.7535,4.8049,4.8122,4.7462,4.7647,4.8892,4.9262,4.9852,5.0867,5.1343,5.1811,5.2703,5.3632,5.4253,5.4817,5.5285,5.5626,5.5703,5.5703,5.5703,5.5703,5.5703,5.5703,2.8878,2.8878,2.8545,2.7597,2.5916,2.2371,2.1961,2.3796,2.2699,2.2093,2.1698,2.0779,2.052,2.0441,2.0588,2.0788,2.0962,2.1056,2.1109,2.1082,2.0975,2.0882,2.0882,2.0935,2.1015,2.1096,2.0969,2.1109,2.1109,2.0843,1.9941,1.8489,1.6899,1.5398,1.3876,1.3628,1.3555,1.3665,1.5074,1.6621,1.756,1.7677,1.8286,1.9305,1.8798,1.8504,1.8437,1.7903,1.7448,1.7154,1.6807,1.7638,1.9587,1.9711,2.0602,2.2931,2.5147,2.6483,2.6894,2.8554,2.9702,2.9779,2.9779,2.9779,2.9779,2.9779,3.067,3.2082,3.3533,3.4505,3.5109,3.4891,3.4241,3.3652,3.3653,3.4871,3.7273,3.8065,3.8811,4.07,4.2429,4.3213,4.3497,4.3497,4.3497,4.3608,4.4085,4.4635,4.4819,4.5369,4.6214,4.6361,4.6728,4.7462,4.7682,4.6911,4.7239,4.8851,4.9352,4.9364,5.0258,5.0988,5.1558,5.2242,5.3451,5.4211,5.4703,5.5143,5.5395,5.5703,5.5703,5.5703,5.5703,5.5703,5.5703,2.9219,2.9329,2.8945,2.7716,2.5652,2.1737,2.1115,2.2154,2.1525,2.1057,2.1019,2.0588,2.0347,2.0668,2.0802,2.0949,2.1096,2.1109,2.1109,2.1109,2.1082,2.1082,2.1096,2.1096,2.1109,2.0969,2.0335,2.0068,1.9801,1.9279,1.7988,1.6389,1.5179,1.3707,1.2028,1.2217,1.2281,1.2612,1.3765,1.5074,1.5902,1.6727,1.7443,1.83,1.8333,1.841,1.8103,1.7756,1.7502,1.7301,1.715,1.7924,1.9797,1.9816,2.0759,2.2989,2.5231,2.6483,2.6894,2.853,2.9702,2.9779,2.9779,2.9779,2.9779,2.9779,3.0545,3.2,3.2538,3.3699,3.4978,3.4891,3.4364,3.4072,3.4257,3.5286,3.7269,3.7711,3.855,4.0001,4.1603,4.3032,4.3391,4.3497,4.3497,4.3534,4.3791,4.4048,4.4232,4.4929,4.5406,4.5516,4.57,4.6324,4.6764,4.625,4.7259,4.8875,4.9711,4.9589,5.005,5.0833,5.1289,5.2008,5.3182,5.4087,5.4472,5.4972,5.5472,5.5703,5.5703,5.5703,5.5703,5.5703,5.5703,2.9629,2.9629,2.959,2.786,2.4944,2.2285,2.0892,2.0335,2.0322,2.0335,2.0443,2.0548,2.0655,2.0735,2.0962,2.1096,2.1109,2.1109,2.1109,2.0982,2.0843,2.0576,2.0462,2.0462,2.0462,2.0322,1.9024,1.8372,1.7988,1.6818,1.5135,1.4196,1.3406,1.2211,1.1173,1.151,1.1939,1.2018,1.2817,1.3765,1.448,1.5666,1.6727,1.737,1.8207,1.821,1.7809,1.7582,1.7555,1.7528,1.7261,1.811,1.9749,1.9811,2.0841,2.2813,2.4957,2.6483,2.6812,2.8474,2.9779,2.9779,2.9779,2.9779,2.9779,2.9779,3.0342,3.1559,3.1621,3.2834,3.4321,3.454,3.4205,3.4057,3.483,3.5916,3.6664,3.7418,3.8531,3.9966,4.115,4.2306,4.3069,4.3497,4.3497,4.3497,4.3681,4.3718,4.3864,4.4232,4.4525,4.4599,4.4819,4.5076,4.5369,4.5516,4.7266,4.8994,4.9822,5.0135,5.0313,5.0814,5.1124,5.1741,5.251,5.3356,5.4087,5.4664,5.5434,5.5703,5.5703,5.5703,5.5703,5.5703,5.5703,3.0059,3.0039,2.9707,2.8058,2.5539,2.2496,2.0956,2.0548,2.0334,2.0401,2.0561,2.0668,2.0815,2.1015,2.1069,2.1109,2.1109,2.1109,2.1109,2.0843,1.9546,1.9152,1.9024,1.9024,1.9024,1.864,1.7345,1.656,1.6172,1.5784,1.5005,1.3439,1.2849,1.22,1.0679,1.0594,1.0578,1.0479,1.0778,1.1736,1.2928,1.4242,1.5773,1.6903,1.7855,1.8101,1.7729,1.7582,1.7475,1.7235,1.7069,1.754,1.8731,1.9413,2.036,2.2031,2.4681,2.6483,2.6894,2.8371,2.9779,2.9804,2.9779,2.9779,2.9779,2.9779,3.0241,3.1114,3.1362,3.1901,3.3059,3.3427,3.3252,3.3327,3.4554,3.5851,3.6226,3.7486,3.8971,4.0061,4.1375,4.258,4.3356,4.3497,4.3497,4.3497,4.3497,4.3497,4.3608,4.3754,4.3864,4.4011,4.4186,4.4478,4.4761,4.5403,4.7382,4.896,4.9847,5.0423,5.0586,5.0702,5.0933,5.1241,5.1664,5.251,5.351,5.4818,5.5665,5.5665,5.5665,5.5703,5.5703,5.5703,5.5703,3.0527,3.0508,3.0334,2.8527,2.5715,2.2601,2.1052,2.0926,2.0722,2.0735,2.0855,2.0882,2.0962,2.1109,2.1109,2.1109,2.1109,2.1109,2.0589,1.9928,1.8768,1.8116,1.7087,1.656,1.6302,1.6818,1.5524,1.4744,1.4493,1.384,1.2808,1.2142,1.2088,1.1379,1.0417,1.0215,1.0039,0.9869,0.9822,1.0301,1.114,1.2689,1.4646,1.6286,1.7215,1.7347,1.7755,1.7502,1.7395,1.7221,1.686,1.7119,1.8208,1.9209,2.0137,2.1569,2.3978,2.5964,2.673,2.7971,2.9209,2.9727,2.9779,2.9779,2.9779,2.9779,3.0266,3.0846,3.0895,3.0895,3.1874,3.3099,3.2949,3.2849,3.4509,3.5975,3.6282,3.8137,3.9768,4.0474,4.1732,4.2772,4.3356,4.3497,4.3497,4.3497,4.3497,4.3497,4.3497,4.3608,4.3571,4.3676,4.3771,4.3971,4.4265,4.5397,4.7476,4.8876,4.989,5.0335,5.0567,5.0625,5.0702,5.1087,5.151,5.2049,5.3049,5.4434,5.5318,5.5241,5.5241,5.5511,5.5703,5.5703,5.5703,3.0898,3.0918,3.0876,2.8974,2.5708,2.2537,2.1105,2.1069,2.1109,2.1042,2.1096,2.1109,2.1082,2.1109,2.1109,2.1109,2.1109,2.0969,2.0322,1.8896,1.8116,1.6947,1.5524,1.4232,1.3709,1.4874,1.3578,1.2931,1.2545,1.163,1.1219,1.0802,1.0733,1.0561,1.0263,1.0154,1.0019,0.9849,0.9822,0.9822,1.0301,1.1607,1.3769,1.5943,1.6339,1.6587,1.7124,1.6989,1.6769,1.686,1.639,1.6701,1.7448,1.8627,1.9919,2.0854,2.3201,2.4851,2.613,2.736,2.8609,2.9546,2.9702,2.9779,2.9779,2.9779,3.0139,3.0343,3.0419,3.0216,3.097,3.2538,3.2851,3.2709,3.4605,3.6023,3.6388,3.8715,3.9928,4.0827,4.169,4.2696,4.325,4.3497,4.3497,4.3497,4.3497,4.3497,4.3497,4.3532,4.3495,4.3597,4.3726,4.4035,4.4317,4.4878,4.7026,4.8048,4.924,4.9971,5.0317,5.0587,5.0702,5.1048,5.1471,5.2049,5.2433,5.3164,5.3895,5.4318,5.5049,5.5549,5.5703,5.5703,5.5703,3.0898,3.0918,3.0876,2.8955,2.5708,2.2428,2.1146,2.1082,2.1109,2.1109,2.1109,2.1109,2.1109,2.1109,2.1109,2.1109,2.1109,2.0843,1.9941,1.8244,1.7076,1.5394,1.3718,1.2281,1.1637,1.1372,1.1372,1.1372,1.124,1.085,1.067,1.0588,1.0616,1.0487,1.0256,1.0154,1.0073,0.9883,0.9829,0.9822,1.0179,1.1246,1.3122,1.5465,1.5569,1.5754,1.5731,1.5731,1.5071,1.3773,1.4355,1.4664,1.5177,1.6021,1.7621,1.9861,2.2045,2.3872,2.5189,2.6953,2.7924,2.853,2.9184,2.9702,2.9779,2.9779,2.9934,2.9934,3.0011,2.9934,3.0062,3.1756,3.2013,3.2056,3.3487,3.5482,3.5643,3.7158,3.9512,4.0513,4.1569,4.2544,4.3105,4.3497,4.3497,4.3497,4.3497,4.3497,4.3497,4.3495,4.3563,4.3627,4.3754,4.4117,4.4493,4.5071,4.6165,4.68,4.7894,4.9279,4.974,5.0356,5.0702,5.0971,5.1548,5.2241,5.2472,5.2587,5.3433,5.4587,5.5164,5.5665,5.5703,5.5703,5.5703,3.0392,2.9705,3.0553,2.8496,2.4794,2.2213,2.1128,2.1096,2.1109,2.1109,2.1109,2.1109,2.1109,2.1109,2.1109,2.1109,2.0969,2.0068,1.8768,1.7087,1.5394,1.3578,1.2157,1.0982,1.085,1.0717,1.0717,1.0717,1.0717,1.0717,1.067,1.0629,1.0622,1.048,1.0297,1.0188,1.0093,0.9937,0.9863,0.9822,0.9822,1.0657,1.2048,1.3365,1.3962,1.3973,1.4462,1.4125,1.3816,1.309,1.271,1.3214,1.3883,1.4594,1.5954,1.9007,2.1176,2.2921,2.4426,2.5942,2.6767,2.8004,2.8688,2.9209,2.9624,2.9779,2.9779,2.9779,2.9779,2.9779,2.9856,3.1119,3.1307,3.1344,3.3124,3.4516,3.5162,3.6505,3.8139,3.9984,4.1578,4.2594,4.325,4.3497,4.3497,4.3497,4.3461,4.3495,4.3529,4.366,4.3791,4.3943,4.4117,4.4508,4.4849,4.5243,4.5586,4.6047,4.6817,4.8202,4.9163,4.974,5.0279,5.0702,5.1433,5.2356,5.2856,5.3126,5.401,5.478,5.5241,5.5626,5.5665,5.5703,5.5703,2.9903,2.8462,2.9452,2.7398,2.3728,2.1853,2.1096,2.1109,2.1109,2.1109,2.1109,2.1109,2.1109,2.1109,2.1109,2.1109,2.0982,1.9419,1.7731,1.6043,1.4232,1.2413,1.1108,1.0717,1.0717,1.0717,1.0717,1.0717,1.0717,1.0717,1.0704,1.0629,1.0534,1.0439,1.0337,1.0154,1.0059,0.9971,0.9897,0.9822,0.9822,0.9815,1.0441,1.1661,1.1611,1.2221,1.2927,1.2724,1.2269,1.1791,1.1476,1.1647,1.3446,1.3607,1.5197,1.8456,2.0206,2.1975,2.3481,2.4872,2.5859,2.7441,2.7947,2.8688,2.9443,2.9779,2.9779,2.9779,2.9779,2.9679,2.963,3.0488,3.0735,3.1015,3.2399,3.4129,3.4663,3.5563,3.6569,3.8617,4.1092,4.2196,4.2477,4.3422,4.3385,4.3302,4.3266,4.3726,4.3791,4.4035,4.4146,4.4318,4.4587,4.4928,4.5222,4.54,4.5586,4.574,4.6471,4.7548,4.8394,4.9125,4.9702,5.0317,5.1587,5.2472,5.301,5.3741,5.4664,5.528,5.5472,5.5588,5.5665,5.5703,5.5703,2.9903,2.8307,2.7159,2.5439,2.345,2.1727,2.1109,2.1109,2.1109,2.1109,2.1109,2.1109,2.1109,2.1109,2.1109,2.1109,2.0449,1.9024,1.7216,1.5524,1.384,1.215,1.085,1.0717,1.0717,1.0717,1.0717,1.0717,1.0717,1.0717,1.0656,1.0568,1.0514,1.0392,1.0229,1.0107,0.9978,0.9876,0.9836,0.9815,0.9808,0.9802,1.048,1.1081,1.1405,1.136,1.1388,1.113,1.0699,0.9572,0.9989,1.0879,1.2149,1.3352,1.5114,1.7375,1.9039,2.0296,2.1906,2.3394,2.5041,2.6438,2.736,2.853,2.9443,2.9779,2.9779,2.9779,2.9754,2.9478,2.9277,2.9895,3.0147,3.0769,3.187,3.3129,3.3906,3.4901,3.5836,3.6659,3.8889,4.0275,4.1055,4.2323,4.3306,4.3185,4.3171,4.3558,4.3998,4.429,4.4612,4.4787,4.4834,4.5163,4.5342,4.5568,4.5586,4.5586,4.6124,4.6894,4.7702,4.8471,4.9163,4.9971,5.1318,5.2395,5.2856,5.3741,5.5088,5.5511,5.5434,5.5511,5.5665,5.5703,5.5703,2.7949,2.5774,2.5921,2.4549,2.2215,2.1362,2.1109,2.1109,2.1109,2.1109,2.1109,2.1109,2.1109,2.1109,2.1109,2.0462,1.9419,1.7859,1.6043,1.4493,1.28,1.1505,1.085,1.0717,1.0717,1.0717,1.0717,1.0717,1.0717,1.0711,1.067,1.0622,1.0527,1.0453,1.0243,1.012,1.0032,0.9944,0.9869,0.9781,0.972,0.968,0.9794,1.0174,1.0273,1.0085,0.9843,0.9715,0.9367,0.8598,0.9072,1.0078,1.1737,1.3094,1.4447,1.6372,1.7762,1.9314,2.1194,2.2259,2.374,2.5126,2.6191,2.7197,2.9028,2.9677,2.9351,2.885,2.9126,2.9001,2.8747,2.93,2.9411,3.0007,3.122,3.2245,3.3201,3.4286,3.5237,3.5882,3.6686,3.8289,3.9753,4.0826,4.1985,4.2492,4.2754,4.3327,4.3962,4.4561,4.4905,4.5303,4.5303,4.5342,4.5457,4.5586,4.5586,4.5586,4.5586,4.6355,4.7048,4.7778,4.8548,4.9625,5.0971,5.1895,5.251,5.378,5.5164,5.5318,5.5241,5.5434,5.5588,5.5703,5.5857,2.5513,2.323,2.5217,2.4049,2.1235,2.1109,2.1109,2.1109,2.1109,2.1109,2.1109,2.1109,2.1109,2.1109,2.0969,2.0195,1.8512,1.67,1.5005,1.3193,1.1762,1.085,1.0717,1.0717,1.0717,1.0717,1.0717,1.0717,1.0704,1.0683,1.0663,1.0704,1.05,1.046,1.0392,1.0161,0.9958,0.9944,0.9863,0.9754,0.9652,0.9618,0.9435,0.9367,0.9123,0.9015,0.8764,0.871,0.8635,0.8536,0.846,0.947,1.1151,1.2304,1.3596,1.5222,1.6546,1.8041,1.9753,2.1105,2.2328,2.372,2.521,2.6707,2.853,2.9184,2.8762,2.7726,2.8174,2.8176,2.8192,2.8531,2.8718,2.9254,3.0364,3.1336,3.2431,3.3491,3.4675,3.5572,3.6374,3.7072,3.8427,3.9374,4.0446,4.1503,4.2267,4.3025,4.3856,4.463,4.512,4.5494,4.5494,4.5475,4.555,4.5586,4.5586,4.5586,4.5586,4.5778,4.6432,4.7201,4.7932,4.9202,5.051,5.1087,5.1548,5.3395,5.5088,5.4857,5.4741,5.5241,5.5472,5.5626,5.5818,2.2952,2.1502,2.4579,2.4049,2.1109,2.1109,2.1109,2.1109,2.1109,2.1109,2.1109,2.1109,2.1109,2.0969,2.0716,1.9928,1.8244,1.6689,1.4744,1.3062,1.1637,1.085,1.0717,1.0717,1.0717,1.0717,1.0717,1.0717,1.0697,1.0622,1.0643,1.0663,1.0426,1.0412,1.0337,1.0127,0.991,0.9883,0.9829,0.9754,0.9646,0.9571,0.9442,0.9218,0.913,0.9015,0.8737,0.871,0.8608,0.8357,0.8275,0.8838,1.0419,1.1404,1.2727,1.4256,1.533,1.6734,1.8025,1.9844,2.171,2.3268,2.4914,2.6213,2.7116,2.7035,2.6726,2.6605,2.7019,2.7285,2.7301,2.7575,2.8023,2.8424,2.9422,3.0711,3.1774,3.2807,3.3955,3.5135,3.5987,3.6574,3.7344,3.8345,3.9496,4.0625,4.1969,4.2735,4.3862,4.4651,4.517,4.553,4.5586,4.5568,4.5586,4.5586,4.5586,4.5586,4.5586,4.5586,4.5778,4.6586,4.7509,4.8394,4.9548,5.0048,5.0818,5.2626,5.3895,5.4049,5.428,5.4703,5.5318,5.5626,5.578,2.2591,2.1235,2.244,2.23,2.1109,2.1109,2.1109,2.1109,2.1109,2.1109,2.1109,2.1109,2.1109,2.0843,1.9801,1.8512,1.6818,1.5135,1.3456,1.2025,1.0982,1.0717,1.0717,1.0717,1.0717,1.0717,1.0717,1.0717,1.0704,1.0629,1.0663,1.0602,1.0337,1.0344,1.0276,1.0141,0.9944,0.9836,0.9808,0.9754,0.9625,0.9496,0.9367,0.9178,0.9042,0.8927,0.8743,0.8716,0.8581,0.8418,0.8241,0.8974,0.9829,1.0744,1.195,1.3488,1.4364,1.533,1.6466,1.8211,1.9844,2.2064,2.3978,2.5294,2.5167,2.5474,2.5333,2.5396,2.5639,2.6113,2.5581,2.6764,2.7872,2.7822,2.8562,3.0092,3.1094,3.2054,3.29,3.3982,3.495,3.5755,3.6594,3.7411,3.8615,3.9779,4.1156,4.2517,4.3576,4.4572,4.5068,4.5509,4.5586,4.5586,4.5586,4.5586,4.5586,4.5586,4.5586,4.5586,4.5663,4.6355,4.7278,4.8009,4.874,4.9586,5.0664,5.201,5.2779,5.3087,5.3587,5.4164,5.4818,5.5511,5.5818,2.2215,2.1109,2.1109,2.1109,2.1109,2.1109,2.1109,2.1109,2.1109,2.1109,2.1109,2.1109,2.0716,2.0068,1.9164,1.7076,1.5394,1.384,1.2413,1.1372,1.0717,1.0717,1.0717,1.0717,1.0717,1.0717,1.0717,1.0717,1.0717,1.0683,1.0656,1.0534,1.0317,1.0297,1.0358,1.0209,0.9978,0.9856,0.9808,0.9713,0.9557,0.9442,0.9273,0.9117,0.8988,0.8872,0.8777,0.8743,0.8676,0.8492,0.8426,0.8736,0.9384,1.0319,1.1277,1.2425,1.3584,1.4268,1.5317,1.6936,1.8596,2.0639,2.2416,2.296,2.3055,2.3844,2.3945,2.3229,2.405,2.4672,2.4119,2.5884,2.6938,2.6914,2.8637,3.0064,3.0429,3.1196,3.1884,3.2686,3.3502,3.4128,3.5544,3.6376,3.7956,3.918,4.0611,4.1912,4.3056,4.402,4.4816,4.524,4.5586,4.5586,4.5586,4.5586,4.5586,4.5586,4.5586,4.5586,4.5817,4.6394,4.6855,4.7471,4.8279,4.924,5.0202,5.1202,5.1818,5.2279,5.3203,5.4395,5.4203,5.4934,5.5742,2.1235,2.1109,2.1109,2.1109,2.1109,2.1109,2.1109,2.1109,2.1109,2.0982,2.0843,2.0856,1.9941,1.8768,1.7988,1.6172,1.4101,1.3193,1.2157,1.0982,1.0717,1.0717,1.0717,1.0717,1.0717,1.0717,1.0717,1.0724,1.0724,1.0524,1.0602,0.9948,0.9513,0.981,1.0297,1.0202,0.9978,0.9842,0.9829,0.9673,0.9503,0.9408,0.9239,0.9069,0.896,0.8866,0.8811,0.8838,0.8771,0.8594,0.8499,0.8605,0.8699,0.9453,1.0134,1.0485,1.2522,1.3584,1.416,1.6344,1.8041,1.9405,2.0998,2.1373,2.1212,2.1776,2.2566,2.201,2.2595,2.3334,2.4026,2.5048,2.5704,2.6638,2.8381,2.9675,3.0064,3.07,3.1496,3.1947,3.1751,3.2057,3.3754,3.5376,3.7119,3.8617,4.0027,4.1306,4.2404,4.3484,4.4338,4.5163,4.5586,4.5586,4.5586,4.5586,4.5586,4.5586,4.5586,4.5586,4.5586,4.5855,4.6355,4.6932,4.7625,4.8509,4.9356,5.0202,5.0894,5.1779,5.3818,5.4818,5.4434,5.4472,5.5434,2.1109,2.1109,2.1109,2.1109,2.1109,2.1109,2.1109,2.1109,2.0969,2.0462,1.9546,1.9419,1.8372,1.6947,1.5654,1.4493,1.3456,1.1762,1.0982,1.085,1.0717,1.0717,1.0717,1.0717,1.0717,1.0717,1.0724,1.0731,1.0744,1.067,0.887,0.7852,0.779,0.8198,0.9481,1.0046,1.0149,0.9903,0.9842,0.9747,0.9446,0.9429,0.9273,0.9069,0.8981,0.8906,0.8852,0.892,0.8859,0.8743,0.8689,0.8547,0.8404,0.8962,0.923,0.9747,1.1356,1.2231,1.3584,1.5602,1.6936,1.8133,1.9314,2.0206,2.0712,2.067,2.0959,2.1426,2.1784,2.2413,2.2776,2.4589,2.558,2.6134,2.752,2.8982,2.9782,3.0667,3.1399,3.1516,3.1476,3.2406,3.38,3.4761,3.625,3.7641,3.902,4.0306,4.144,4.2757,4.3855,4.497,4.5586,4.5586,4.5586,4.5586,4.5586,4.5586,4.5586,4.5586,4.5586,4.5586,4.6009,4.6663,4.7163,4.774,4.8856,4.9856,5.0394,5.151,5.3049,5.4164,5.3972,5.4395,5.5472,2.1109,2.1109,2.1109,2.1109,2.1109,2.1109,2.1109,2.0982,2.0462,1.9546,1.864,1.7859,1.6689,1.5005,1.397,1.2676,1.2413,1.1372,1.0717,1.0717,1.0717,1.0717,1.0717,1.0717,1.0717,1.0724,1.0731,1.0744,1.0751,1.0717,0.8847,0.646,0.5319,0.65,0.7717,0.7975,0.8094,0.776,0.7712,0.8468,0.8934,0.9388,0.9232,0.9083,0.8994,0.8933,0.8933,0.894,0.894,0.8899,0.8804,0.8648,0.8499,0.8453,0.8606,0.9076,1.0002,1.1072,1.2909,1.4364,1.5507,1.6156,1.7825,1.8943,1.9608,1.987,2.0439,2.0951,2.1366,2.1671,2.2201,2.4116,2.4971,2.5464,2.6953,2.8387,2.9316,3.014,3.0871,3.1038,3.1487,3.258,3.3641,3.4483,3.5477,3.6718,3.7942,3.9277,4.0713,4.2202,4.3487,4.4504,4.5449,4.5586,4.5586,4.5586,4.5586,4.5586,4.5586,4.5586,4.5586,4.5624,4.6009,4.6355,4.6855,4.7548,4.8663,4.9548,5.0087,5.0587,5.1433,5.2395,5.3087,5.4126,5.5203,2.1109,2.1109,2.1109,2.1109,2.1109,2.1109,2.1096,2.0843,1.9291,1.8512,1.8116,1.6302,1.4884,1.3447,1.3062,1.2281,1.124,1.085,1.0717,1.0717,1.0717,1.0717,1.0717,1.0717,1.0724,1.0731,1.0738,1.0738,1.0605,0.8585,0.6868,0.5474,0.4255,0.4589,0.47,0.4817,0.481,0.479,0.4858,0.5749,0.6725,0.8852,0.9071,0.9076,0.9022,0.9001,0.8994,0.8981,0.896,0.8796,0.8716,0.8562,0.8414,0.817,0.8119,0.8392,0.932,1.0681,1.1745,1.3102,1.4064,1.4829,1.6452,1.7154,1.7807,1.8649,1.9498,2.0173,2.0644,2.1155,2.1901,2.2944,2.3916,2.5141,2.6567,2.7689,2.8528,2.9348,3.0162,3.0609,3.1057,3.1918,3.2956,3.3873,3.4971,3.6498,3.7785,3.9014,4.0501,4.2215,4.3358,4.3975,4.4829,4.5526,4.5586,4.5586,4.5586,4.5586,4.5586,4.5586,4.5586,4.5586,4.5778,4.6086,4.6547,4.7163,4.7702,4.8663,4.974,5.0202,5.0394,5.1471,5.2472,5.3549,5.4472,2.1109,2.1109,2.1109,2.1109,2.1109,2.1109,2.0449,1.9279,1.864,1.7345,1.4754,1.4232,1.3062,1.1497,1.1365,1.1115,1.085,1.0717,1.0717,1.0717,1.0717,1.0717,1.0717,1.0717,1.0731,1.0605,1.0611,1.0313,0.927,0.0,0.0,0.1642,0.0,0.0,0.0,0.0,0.0,0.0,0.0,0.0,0.0,0.6773,0.7841,0.8937,0.9184,0.9164,0.9096,0.9089,0.9055,0.8947,0.8816,0.8818,0.8655,0.8407,0.8247,0.8179,0.9221,1.0288,1.0877,1.2619,1.3776,1.398,1.5507,1.5871,1.6358,1.7143,1.8377,1.9046,1.9806,2.0321,2.1068,2.1981,2.315,2.4548,2.6034,2.7289,2.8125,2.8983,2.972,2.9989,3.0412,3.1521,3.2506,3.3437,3.4637,3.6302,3.7717,3.8912,4.0312,4.2017,4.3104,4.3721,4.4691,4.5488,4.5586,4.5586,4.5586,4.5586,4.5586,4.5586,4.5586,4.5586,4.5586,4.5817,4.6278,4.6278,4.6201,4.7317,4.8548,4.9009,4.9317,5.0587,5.1818,5.2858,5.3841,2.1109,2.1109,2.1109,2.1109,2.0982,2.0322,1.9036,1.7731,1.7474,1.5784,1.3456,1.2545,1.1637,1.0982,1.085,1.0717,1.0717,1.0717,1.0717,1.0717,1.0717,1.0717,1.0717,1.0724,1.0731,1.0472,0.9655,0.8955,0.8154,0.0,0.0,0.0,0.0,0.0,0.0,0.0,0.0,0.0,0.0,0.0,0.0,0.0,0.6063,0.8743,0.9142,0.9306,0.9211,0.9211,0.9164,0.9049,0.893,0.8823,0.8703,0.8374,0.8186,0.8144,0.8528,0.9015,0.9608,1.1648,1.2716,1.3596,1.4746,1.5365,1.5572,1.6017,1.704,1.7876,1.8718,1.9427,2.0272,2.1138,2.2552,2.3968,2.5466,2.6931,2.7851,2.8706,2.9093,2.9289,3.0074,3.121,3.2227,3.3125,3.429,3.5958,3.741,3.8614,4.0121,4.1855,4.2742,4.3343,4.4504,4.5586,4.5586,4.5586,4.5586,4.5586,4.5586,4.5586,4.5586,4.5586,4.5586,4.574,4.6009,4.5932,4.5817,4.624,4.7124,4.7625,4.8279,4.9279,5.0567,5.1931,5.2928,2.1109,2.1109,2.1109,2.0829,2.0436,1.9139,1.7474,1.5784,1.5654,1.4623,1.2939,1.1372,1.085,1.0717,1.0717,1.0717,1.0717,1.0717,1.0717,1.0717,1.0717,1.0717,1.0724,1.0724,1.0717,0.9516,0.8552,0.7959,0.7192,0.0,0.0,0.0,0.0,0.0,0.0,0.0,0.0,0.0,0.0,0.0,0.0,0.0,0.2586,0.7194,0.8617,0.9169,0.9198,0.93,0.9327,0.9218,0.901,0.8897,0.8555,0.8357,0.8153,0.8052,0.8237,0.8237,0.9015,1.0769,1.1745,1.2909,1.4256,1.5126,1.5413,1.5314,1.6124,1.664,1.7365,1.8039,1.8788,1.991,2.1263,2.2922,2.452,2.6034,2.7284,2.8072,2.8596,2.8936,2.9782,3.0858,3.1882,3.2811,3.4191,3.5773,3.719,3.8402,3.9741,4.1523,4.2448,4.3073,4.4465,4.5526,4.5586,4.5586,4.5586,4.5586,4.5586,4.5586,4.5586,4.5586,4.5586,4.5701,4.5817,4.574,4.574,4.6047,4.6317,4.6701,4.7355,4.8009,4.9216,5.0781,5.2027,2.1109,2.1109,2.1109,1.9611,1.7468,1.8081,1.6689,1.397,1.397,1.2931,1.1505,1.0982,1.0717,1.0717,1.0717,1.0717,1.0717,1.0717,1.0717,1.0711,1.0711,1.0704,1.0711,1.0697,1.0551,1.0511,0.9264,0.0,0.0,0.0,0.0,0.0,0.0,0.0,0.0,0.0,0.0,0.0,0.0,0.0,0.0,0.0,0.1314,0.3475,0.4558,0.7926,0.8716,0.953,0.9401,0.9239,0.9191,0.8843,0.8474,0.8336,0.8167,0.8072,0.8038,0.8038,0.8627,1.0092,1.1365,1.2533,1.3825,1.4769,1.519,1.5044,1.5191,1.5573,1.597,1.6648,1.7587,1.8705,2.0142,2.187,2.369,2.5163,2.6654,2.7395,2.8072,2.8745,2.9476,3.046,3.1458,3.2768,3.4141,3.5618,3.7135,3.8397,3.9451,4.09,4.217,4.3027,4.4542,4.5449,4.5526,4.5586,4.5586,4.5586,4.5586,4.5586,4.5586,4.5586,4.5586,4.5586,4.5624,4.5586,4.5586,4.5663,4.5893,4.6163,4.6656,4.7422,4.8292,4.9688,5.0972,2.1109,2.1109,2.1109,1.9079,1.6402,1.6476,1.5235,1.3447,1.2545,1.163,1.085,1.0717,1.0717,1.0717,1.0717,1.0717,1.0717,1.0717,1.0717,1.0711,1.0663,1.067,1.0663,1.0491,0.9115,0.8807,0.636,0.0,0.0,0.0,0.0,0.0,0.0,0.0,0.0,0.0,0.0,0.0,0.0,0.0,0.0,0.0,0.0,0.0,0.0,0.0,0.8763,0.9693,0.9564,0.9415,0.9243,0.8872,0.8434,0.8186,0.8147,0.8072,0.8038,0.8038,0.8627,0.9706,1.1072,1.195,1.2716,1.3449,1.4093,1.4113,1.4696,1.5036,1.4853,1.5346,1.6536,1.777,1.9617,2.1469,2.3306,2.5025,2.6438,2.7488,2.7831,2.813,2.9013,3.0117,3.1127,3.2346,3.376,3.5082,3.6646,3.7817,3.8962,4.0223,4.1508,4.268,4.4003,4.518,4.5565,4.5586,4.5586,4.5586,4.5586,4.5586,4.5586,4.5586,4.5586,4.5586,4.5586,4.5586,4.5586,4.5586,4.5586,4.5817,4.632,4.6916,4.7882,4.8914,5.0354,2.1069,2.1109,2.1122,1.8976,1.5762,1.4651,1.3796,1.28,1.1372,1.0717,1.0717,1.0717,1.0717,1.0717,1.0717,1.0717,1.0717,1.0717,1.0717,1.0643,1.0561,1.0555,1.0521,1.033,0.807,0.5158,0.242,0.0,0.0,0.0,0.0,0.0,0.0,0.0,0.0,0.0,0.0,0.0,0.0,0.0,0.0,0.0,0.0,0.0,0.0,0.0,0.721,0.9137,0.896,0.8678,0.8109,0.7277,0.7725,0.7718,0.8039,0.7952,0.8038,0.8038,0.8329,0.9312,1.0002,1.0485,1.1268,1.2086,1.2752,1.3495,1.4177,1.4124,1.3867,1.4611,1.5763,1.6815,1.8794,2.1233,2.3094,2.494,2.625,2.7458,2.759,2.767,2.848,2.9588,3.0857,3.2084,3.3368,3.472,3.5894,3.6951,3.8153,3.9561,4.0854,4.187,4.2953,4.4013,4.524,4.547,4.5432,4.5586,4.5586,4.5586,4.5586,4.5586,4.5586,4.5586,4.5586,4.5603,4.5586,4.5586,4.5586,4.5599,4.5959,4.659,4.7866,4.8983,5.0141,2.0895,2.1122,2.1115,1.8547,1.4789,1.4205,1.3079,1.1372,1.0975,1.0717,1.0697,1.0711,1.0717,1.0717,1.0717,1.0711,1.0683,1.069,1.0616,1.0534,1.0466,1.0439,1.0541,1.0365,0.6536,0.0,0.0,0.0,0.0,0.0,0.0,0.0,0.0,0.0,0.0,0.0,0.0,0.0,0.0,0.0,0.0,0.0,0.0,0.0,0.0,0.0,0.478,0.5706,0.7443,0.7348,0.5341,0.4269,0.489,0.6337,0.7077,0.7965,0.7952,0.7945,0.8435,0.9122,0.9517,0.9805,1.0644,1.1259,1.2066,1.3076,1.327,1.2906,1.3092,1.4379,1.5418,1.5765,1.7343,2.0635,2.3069,2.4799,2.6308,2.6967,2.7408,2.7458,2.775,2.9112,3.061,3.1882,3.3198,3.4487,3.568,3.6749,3.749,3.8876,4.0274,4.1157,4.2023,4.359,4.5086,4.5163,4.5201,4.5432,4.5586,4.5586,4.5586,4.5586,4.5586,4.5586,4.5603,4.5603,4.5603,4.5637,4.5658,4.5718,4.5764,4.6329,4.7719,4.8943,5.0074]}]]